MPMG - Transparência

Contra-cheque - Valores recebidos por todos os colaboradores

Período: 2014 - Junho

Ordem Matrícula Nome Cargo Efetivo Situação Unidade Administrativa Rendimentos Descontos Rendimento Líquido Total Indenizações Outras Remunerações Retroativas/Temporárias Data de Referência
Remuneração Básica Remuneração Eventual ou Temporária Total de Rendimentos Brutos Obrigatórios/Legais Total de Descontos
Remuneração do Cargo Efetivo Outras Verbas Remuneratórias Função de Confiança ou Cargo em Comissão Gratificação Natalina Férias Abono de Permanência Contribuição Previdenciária Imposto de Renda Retenção por Teto Constitucional
1 370700 ADRIANA CRISTINA FIALHO VIANA ESTAGIARIO ATIVO CONTAGEM; CONTAGEM-22 PJ 545,00 0,00 0,00 0,00 0,00 0,00 545,00 0,00 0,00 0,00 0,00 545,00 111,30 0,00 30/06/2014
2 310700 ADRIANA FERNANDES SOARES ESTAGIARIO ATIVO PATOS DE MINAS; COORD REG BACIAS PARACATU,URUCUIA E ABAETE 545,00 0,00 0,00 0,00 0,00 0,00 545,00 0,00 0,00 0,00 0,00 545,00 111,30 0,00 30/06/2014
3 295100 ADRIANA GLAYCE SILVA ESTAGIARIO ATIVO CONTAGEM; CONTAGEM-06 PJ 545,00 0,00 0,00 0,00 0,00 0,00 545,00 0,00 0,00 0,00 0,00 545,00 111,30 0,00 30/06/2014
4 370600 ADRIANA RIBEIRO GARCIA DE FREITAS ESTAGIARIO ATIVO CARANDAI; CARANDAI - PJ ÚNICA 545,00 0,00 0,00 0,00 0,00 0,00 545,00 0,00 0,00 0,00 0,00 545,00 111,30 0,00 30/06/2014
5 318400 ADRIELLI MARQUES BRAIDOTTI ESTAGIARIO ATIVO POUSO ALEGRE; POUSO ALEGRE-08 PJ 545,00 0,00 0,00 0,00 0,00 0,00 545,00 0,00 0,00 0,00 0,00 545,00 111,30 0,00 30/06/2014
6 332700 ALAN DINIZ GUEDES DE ORNELAS ESTAGIARIO ATIVO JOAO PINHEIRO; JOAO PINHEIRO-02 PJ 545,00 0,00 0,00 0,00 0,00 0,00 545,00 0,00 0,00 0,00 0,00 545,00 111,30 0,00 30/06/2014
7 364900 ALAN JUNIO TELES DE ARAUJO ESTAGIARIO ATIVO CONTAGEM; CONTAGEM-14 PJ 545,00 0,00 0,00 0,00 0,00 0,00 545,00 0,00 0,00 0,00 0,00 545,00 111,30 0,00 30/06/2014
8 360900 ALANA CAVALCANTE LISBOA ESTAGIARIO ATIVO TEOFILO OTONI; TEOFILO OTONI-08 PJ 545,00 0,00 0,00 0,00 0,00 0,00 545,00 0,00 0,00 0,00 0,00 545,00 84,80 0,00 30/06/2014
9 417400 ALBA MOREIRA SALLES ESTAGIARIO ATIVO BELO HORIZONTE; JUIZO CRIMINAL-12 PJ 545,00 0,00 0,00 0,00 0,00 0,00 545,00 0,00 0,00 0,00 0,00 545,00 111,30 0,00 30/06/2014
10 99 ALCIDES COSTA DELEGADO DE POLICIA 1 ATIVO BELO HORIZONTE - COMARCA; CAO-CRIM EXEC PENAL TRIB JURI AUD MILITAR 3.842,95 0,00 0,00 0,00 0,00 0,00 3.842,95 0,00 261,70 0,00 261,70 3.581,25 685,50 0,00 30/06/2014
11 33 ALEC CARNEIRO CABO ATIVO BELO HORIZONTE - COMARCA; GAECO - SECRETARIA 1.477,90 0,00 0,00 0,00 0,00 0,00 1.477,90 0,00 0,00 0,00 0,00 1.477,90 685,50 0,00 30/06/2014
12 408800 ALESSANDRA DAS GRACAS FELICIO PEREIRA ESTAGIARIO ATIVO BELO HORIZONTE; EXTINTA - DIRETORIA SERVIÇOS GERAIS E TRANS 81,75 0,00 0,00 0,00 0,00 0,00 81,75 0,00 0,00 0,00 0,00 81,75 15,90 0,00 30/06/2014
13 420100 ALESSANDRA ESTEVO JERNIMO ESTAGIARIO ATIVO GUARANESIA; GUARANESIA - PJ ÚNICA 272,50 0,00 0,00 0,00 0,00 0,00 272,50 0,00 0,00 0,00 0,00 272,50 47,70 0,00 30/06/2014
14 373600 ALESSANDRA FONSECA MARTINS DA COSTA ESTAGIARIO ATIVO JOAO MONLEVADE; JOAO MONLEVADE-03 PJ 545,00 0,00 0,00 0,00 0,00 0,00 545,00 0,00 0,00 0,00 0,00 545,00 100,70 0,00 30/06/2014
15 361000 ALESSANDRA LILIAN DA SILVA FREITAS ESTAGIARIO ATIVO BARAO DE COCAIS; BARAO DE COCAIS - PJ ÚNICA 545,00 0,00 0,00 0,00 0,00 0,00 545,00 0,00 0,00 0,00 0,00 545,00 111,30 0,00 30/06/2014
16 348800 ALESSANDRE TAVARES DA SILVEIRA ESTAGIARIO ATIVO RAUL SOARES; RAUL SOARES - PJ ÚNICA 545,00 0,00 0,00 0,00 0,00 0,00 545,00 0,00 0,00 0,00 0,00 545,00 111,30 0,00 30/06/2014
17 287800 ALESSANDRO ROGERIO DIAS DE OLIVEIRA ESTAGIARIO ATIVO MONTES CLAROS; COORD REG PJ DEF EDUC DIR CRIANCA ADOL NORTE 545,00 0,00 0,00 0,00 0,00 0,00 545,00 0,00 0,00 0,00 0,00 545,00 111,30 0,00 30/06/2014
18 356000 ALEX ARRUDA TAVARES ESTAGIARIO ATIVO DIVINOPOLIS; DIVINOPOLIS-08 PJ 545,00 0,00 0,00 0,00 0,00 0,00 545,00 0,00 0,00 0,00 0,00 545,00 111,30 0,00 30/06/2014
19 110 ALEXANDRE ANTONIO DE ALMEIDA INVESTIGADOR DE POLICIA 2 ATIVO BELO HORIZONTE - COMARCA; COMB CRIMES PRAT POR AG POL MUN-SECRETARIA 1.918,67 0,00 0,00 0,00 0,00 0,00 1.918,67 0,00 9,82 0,00 9,82 1.908,85 685,50 0,00 30/06/2014
20 348900 ALEXANDRE EVARISTO CUNHA BARBOSA ESTAGIARIO ATIVO BELO HORIZONTE; PROCON-MG-GAB DO COORDENADOR DO PROCON-MG 545,00 0,00 0,00 0,00 0,00 0,00 545,00 0,00 0,00 0,00 0,00 545,00 84,80 0,00 30/06/2014
21 388600 ALEXIA DUARTE TORRES ESTAGIARIO ATIVO BELO HORIZONTE; 18 PJ DEF DIR HUM AP COM CONF AG E FISC POL 490,50 0,00 0,00 0,00 0,00 0,00 490,50 0,00 0,00 0,00 0,00 490,50 68,90 0,00 30/06/2014
22 323700 ALFREDO VAZ MOURA ESTAGIARIO ATIVO ARAGUARI; ARAGUARI-05 PJ 545,00 0,00 0,00 0,00 0,00 0,00 545,00 0,00 0,00 0,00 0,00 545,00 111,30 0,00 30/06/2014
23 412000 ALICE CRISTINA BRANDAO ESTAGIARIO ATIVO RIBEIRAO DAS NEVES; RIBEIRAO DAS NEVES-01 PJ 545,00 0,00 0,00 0,00 0,00 0,00 545,00 0,00 0,00 0,00 0,00 545,00 111,30 0,00 30/06/2014
24 365000 ALICE DE PINHO TAVARES GENEROSO ESTAGIARIO ATIVO BELO HORIZONTE; GABINETE DOS PROCURADORES 545,00 0,00 0,00 0,00 0,00 0,00 545,00 0,00 0,00 0,00 0,00 545,00 111,30 0,00 30/06/2014
25 392400 ALINDACI BARBOSA REIS ESTAGIARIO ATIVO BETIM; BETIM-10 PJ 545,00 0,00 0,00 0,00 0,00 0,00 545,00 0,00 0,00 0,00 0,00 545,00 111,30 0,00 30/06/2014
26 356100 ALINE ALVES GUIMARAES ESTAGIARIO ATIVO FORMIGA; FORMIGA-02 PJ 545,00 0,00 0,00 0,00 0,00 0,00 545,00 0,00 0,00 0,00 0,00 545,00 106,00 0,00 30/06/2014
27 427300 ALINE DE MELO SOUZA ESTAGIARIO ATIVO BELO HORIZONTE; PROCURADORIA DE JUSTIÇA DE HABEAS CORPUS 1.090,00 0,00 0,00 0,00 0,00 0,00 1.090,00 0,00 0,00 0,00 0,00 1.090,00 111,30 0,00 30/06/2014
28 392500 ALINE DE SOUZA MELLO ESTAGIARIO ATIVO JUIZ DE FORA; JUIZ DE FORA-03 PJ 545,00 0,00 0,00 0,00 0,00 0,00 545,00 0,00 0,00 0,00 0,00 545,00 106,00 0,00 30/06/2014
29 332800 ALINE LUIZA FLORENCIO ALVES ESTAGIARIO ATIVO BELO HORIZONTE; CAO-TS-TERCEIRO SETOR-APOIO TECNICO 545,00 0,00 0,00 0,00 0,00 0,00 545,00 0,00 0,00 0,00 0,00 545,00 84,80 0,00 30/06/2014
30 270100 ALINE SILVA ROSA ESTAGIARIO ATIVO GOVERNADOR VALADARES; GOVERNADOR VALADARES-10 PJ 545,00 0,00 0,00 0,00 0,00 0,00 545,00 0,00 0,00 0,00 0,00 545,00 106,00 0,00 30/06/2014
31 392600 ALLAN FERREIRA DOS SANTOS ESTAGIARIO ATIVO RIBEIRAO DAS NEVES; RIBEIRAO DAS NEVES-02 PJ 545,00 0,00 0,00 0,00 0,00 0,00 545,00 0,00 0,00 0,00 0,00 545,00 100,70 0,00 30/06/2014
32 338500 ALOIZIO MARTINS JALES JUNIOR ESTAGIARIO ATIVO CAMPESTRE; CAMPESTRE - PJ ÚNICA 545,00 0,00 0,00 0,00 0,00 0,00 545,00 0,00 0,00 0,00 0,00 545,00 111,30 0,00 30/06/2014
33 392700 ALVARO PHILIPE VILAS BOAS ESTAGIARIO ATIVO ITAJUBA; ITAJUBA-02 PJ 545,00 0,00 0,00 0,00 0,00 0,00 545,00 0,00 0,00 0,00 0,00 545,00 111,30 0,00 30/06/2014
34 403200 AMANDA BANDEIRA DE ALMEIDA ESTAGIARIO ATIVO MIRAI; MIRAI - PJ ÚNICA 545,00 0,00 0,00 0,00 0,00 0,00 545,00 0,00 0,00 0,00 0,00 545,00 111,30 0,00 30/06/2014
35 373700 AMANDA BARBARA COSTA SANTOS ESTAGIARIO ATIVO DIVINOPOLIS; DIVINÓPOLIS - 06ª PJ 545,00 0,00 0,00 0,00 0,00 0,00 545,00 0,00 0,00 0,00 0,00 545,00 111,30 0,00 30/06/2014
36 379000 AMANDA CAROLINA RESENDE DE MOURA ESTAGIARIO ATIVO BELO HORIZONTE; EXTINTA - DIRETORIA SERVIÇOS GERAIS E TRANS 545,00 0,00 0,00 0,00 0,00 0,00 545,00 0,00 0,00 0,00 0,00 545,00 68,90 0,00 30/06/2014
37 333000 AMANDA DONATO LUCAS ESTAGIARIO ATIVO BELO HORIZONTE; MEIO AMB PATRIM HISTORICO E CULTURAL-15 PJ 545,00 0,00 0,00 0,00 0,00 0,00 545,00 0,00 0,00 0,00 0,00 545,00 111,30 0,00 30/06/2014
38 294800 AMANDA GOMES PEREIRA ESTAGIARIO ATIVO JANAUBA; JANAUBA-03 PJ 545,00 0,00 0,00 0,00 0,00 0,00 545,00 0,00 0,00 0,00 0,00 545,00 111,30 272,50 30/06/2014
39 420200 AMANDA LCIA MOREIRA ESTAGIARIO ATIVO BELO HORIZONTE; COORD COMB REPRES TRAFICO ILICITO ENTORPECEN 272,50 0,00 0,00 0,00 0,00 0,00 272,50 0,00 0,00 0,00 0,00 272,50 47,70 0,00 30/06/2014
40 360600 AMANDA MACEDO RIBEIRO ESTAGIARIO ATIVO MONTES CLAROS; MONTES CLAROS-09 PJ 545,00 0,00 0,00 0,00 0,00 0,00 545,00 0,00 0,00 0,00 0,00 545,00 111,30 0,00 30/06/2014
41 365100 AMANDA REIS DA SILVA ESTAGIARIO ATIVO BELO HORIZONTE; JUIZO CRIMINAL-12 PJ 545,00 0,00 0,00 0,00 0,00 0,00 545,00 0,00 0,00 0,00 0,00 545,00 111,30 0,00 30/06/2014
42 408900 ANA BEATRIZ DANTAS DE MENEZES ESTAGIARIO ATIVO BELO HORIZONTE; CENTRO DE ESTUDOS E APERFEICOAMENTO FUNCIONAL 817,50 0,00 0,00 0,00 0,00 0,00 817,50 0,00 0,00 0,00 0,00 817,50 111,30 0,00 30/06/2014
43 356200 ANA CAROLINA BATISTA FERNANDES ESTAGIARIO ATIVO BELO HORIZONTE; ASSESSORIA ESPECIAL DO PGJ 545,00 0,00 0,00 0,00 0,00 0,00 545,00 0,00 0,00 0,00 0,00 545,00 111,30 0,00 30/06/2014
44 412100 ANA CAROLINA CARDOSO DE SOUZA ESTAGIARIO ATIVO VARGINHA; VARGINHA-07 PJ 545,00 0,00 0,00 0,00 0,00 0,00 545,00 0,00 0,00 0,00 0,00 545,00 111,30 0,00 30/06/2014
45 294900 ANA CAROLINA RODRIGUES ESTEVES ESTAGIARIO ATIVO DIVINOPOLIS; DIVINOPOLIS-01 PJ 545,00 0,00 0,00 0,00 0,00 0,00 545,00 0,00 0,00 0,00 0,00 545,00 111,30 0,00 30/06/2014
46 338600 ANA CAROLINA SILVA CLEBICAR ESTAGIARIO ATIVO POUSO ALEGRE; POUSO ALEGRE-08 PJ 545,00 0,00 0,00 0,00 0,00 0,00 545,00 0,00 0,00 0,00 0,00 545,00 111,30 0,00 30/06/2014
47 349100 ANA CAROLINA VARANDA CAMPOS ESTAGIARIO ATIVO JUIZ DE FORA; JUIZ DE FORA-08 PJ 545,00 0,00 0,00 0,00 0,00 0,00 545,00 0,00 0,00 0,00 0,00 545,00 106,00 0,00 30/06/2014
48 349200 ANA CLARA COSTA RAMOS ESTAGIARIO ATIVO BELO HORIZONTE; PROCON-MG-GAB DO COORDENADOR DO PROCON-MG 545,00 0,00 0,00 0,00 0,00 0,00 545,00 0,00 0,00 0,00 0,00 545,00 111,30 0,00 30/06/2014
49 361100 ANA CLARA NAVES DA SILVEIRA ESTAGIARIO ATIVO UBERLANDIA; UBERLANDIA-15 PJ 545,00 0,00 0,00 0,00 0,00 0,00 545,00 0,00 0,00 0,00 0,00 545,00 100,70 0,00 30/06/2014
50 392800 ANA CLARA OLIVEIRA FERREIRA ESTAGIARIO ATIVO ITABIRA; ITABIRA-03 PJ 545,00 0,00 0,00 0,00 0,00 0,00 545,00 0,00 0,00 0,00 0,00 545,00 111,30 0,00 30/06/2014
51 323800 ANA CLAUDIA DOURADO MENDES ESTAGIARIO ATIVO MONTES CLAROS; MONTES CLAROS-07 PJ 545,00 0,00 0,00 0,00 0,00 0,00 545,00 0,00 0,00 0,00 0,00 545,00 111,30 0,00 30/06/2014
52 318900 ANA CLAUDIA MORAIS VALGAS ESTAGIARIO ATIVO MESQUITA; MESQUITA - PJ ÚNICA 545,00 0,00 0,00 0,00 0,00 0,00 545,00 0,00 0,00 0,00 0,00 545,00 111,30 0,00 30/06/2014
53 356300 ANA EMILIA DA SILVA MOREIRA ESTAGIARIO ATIVO MONTE BELO; MONTE BELO - PJ ÚNICA 545,00 0,00 0,00 0,00 0,00 0,00 545,00 0,00 0,00 0,00 0,00 545,00 111,30 0,00 30/06/2014
54 370800 ANA FLAVIA ALVES RESENDE ESTAGIARIO ATIVO CARMOPOLIS DE MINAS; CARMOPOLIS DE MINAS - PJ ÚNICA 545,00 0,00 0,00 0,00 0,00 0,00 545,00 0,00 0,00 0,00 0,00 545,00 111,30 0,00 30/06/2014
55 349300 ANA FLAVIA CANCADO FERREIRA ESTAGIARIO ATIVO Informação não disponível 545,00 0,00 0,00 0,00 0,00 0,00 545,00 0,00 0,00 0,00 0,00 545,00 111,30 0,00 30/06/2014
56 365200 ANA FLAVIA COSTA ARAUJO ESTAGIARIO ATIVO BOM DESPACHO; BOM DESPACHO-02 PJ 545,00 0,00 0,00 0,00 0,00 0,00 545,00 0,00 0,00 0,00 0,00 545,00 111,30 0,00 30/06/2014
57 409000 ANA ISABEL BARRETO FERNANDES ESTAGIARIO ATIVO PEDRO LEOPOLDO; PEDRO LEOPOLDO- SECRETARIA DAS PROMOTORIAS 545,00 0,00 0,00 0,00 0,00 0,00 545,00 0,00 0,00 0,00 0,00 545,00 111,30 0,00 30/06/2014
58 417500 ANA JULIA GUEDES BONIFACIO ESTAGIARIO ATIVO BELO HORIZONTE; CAO-DIREITOS HUMANOS E APOIO COMUNITARIO 545,00 0,00 0,00 0,00 0,00 0,00 545,00 0,00 0,00 0,00 0,00 545,00 111,30 0,00 30/06/2014
59 319000 ANA LAURA VALADARES FRANCA FRAIHA ESTAGIARIO ATIVO PITANGUI; PITANGUI-01 PJ 545,00 0,00 0,00 0,00 0,00 0,00 545,00 0,00 0,00 0,00 0,00 545,00 106,00 0,00 30/06/2014
60 356500 ANA LAURA VIEIRA DE OLIVEIRA ESTAGIARIO ATIVO JUIZ DE FORA; JUIZ DE FORA-15 PJ 545,00 0,00 0,00 0,00 0,00 0,00 545,00 0,00 0,00 0,00 0,00 545,00 106,00 0,00 30/06/2014
61 333200 ANA LUIZA COUTINHO DE SOUZA ANDRADE ESTAGIARIO ATIVO BELO HORIZONTE; JUIZO CRIMINAL-12 PJ 545,00 0,00 0,00 0,00 0,00 0,00 545,00 0,00 0,00 0,00 0,00 545,00 100,70 0,00 30/06/2014
62 398400 ANA LUIZA PIRES MOREIRA ESTAGIARIO ATIVO JUIZ DE FORA; JUIZ DE FORA-10 PJ 545,00 0,00 0,00 0,00 0,00 0,00 545,00 0,00 0,00 0,00 0,00 545,00 106,00 0,00 30/06/2014
63 392900 ANA LUIZA SCHUFFNER RIBEIRO ESTAGIARIO ATIVO BELO HORIZONTE; GABINETE DOS PROCURADORES 545,00 0,00 0,00 0,00 0,00 0,00 545,00 0,00 0,00 0,00 0,00 545,00 111,30 0,00 30/06/2014
64 417600 ANA PAULA DE ALMEIDA VIEIRA SOUZA ESTAGIARIO ATIVO CORONEL FABRICIANO; CORONEL FABRICIANO-04 PJ 545,00 0,00 0,00 0,00 0,00 0,00 545,00 0,00 0,00 0,00 0,00 545,00 100,70 0,00 30/06/2014
65 409100 ANA PAULA DE CASTRO SANTANA ESTAGIARIO ATIVO SAO JOAO DEL REI; SAO JOAO DEL REI-05 PJ 545,00 0,00 0,00 0,00 0,00 0,00 545,00 0,00 0,00 0,00 0,00 545,00 111,30 0,00 30/06/2014
66 77 ANA PAULA DE LIMA GARCIA NEVES CAPITAO ATIVO BELO HORIZONTE - COMARCA; CENTRO SEGURANCA E INTELIGENCIA INSTITUCIONAL 3.170,67 0,00 0,00 0,00 0,00 0,00 3.170,67 0,00 140,57 0,00 140,57 3.030,10 685,50 0,00 30/06/2014
67 373800 ANA PAULA DE SOUZA ESTAGIARIO ATIVO UBERABA; UBERABA-07 PJ 545,00 0,00 0,00 0,00 0,00 0,00 545,00 0,00 0,00 0,00 0,00 545,00 111,30 0,00 30/06/2014
68 288100 ANA PAULA FERREIRA ALBERNAZ DO CARMO ESTAGIARIO ATIVO PARACATU; PARACATU-01 PJ 545,00 0,00 0,00 0,00 0,00 0,00 545,00 0,00 0,00 0,00 0,00 545,00 90,10 0,00 30/06/2014
69 427200 ANA PAULA GOMES ANTUNES ESTAGIARIO ATIVO CORACAO DE JESUS; CORACAO DE JESUS - PJ ÚNICA 545,00 0,00 0,00 0,00 0,00 0,00 545,00 0,00 0,00 0,00 0,00 545,00 106,00 0,00 30/06/2014
70 393000 ANA PAULA PEREIRA FARIA ESTAGIARIO ATIVO CONTAGEM; CONTAGEM-19 PJ 545,00 0,00 0,00 0,00 0,00 0,00 545,00 0,00 0,00 0,00 0,00 545,00 111,30 0,00 30/06/2014
71 398500 ANA PAULA SILVA FERREIRA ESTAGIARIO ATIVO BELO HORIZONTE; JUIZO CRIMINAL-12 PJ 545,00 0,00 0,00 0,00 0,00 0,00 545,00 0,00 0,00 0,00 0,00 545,00 111,30 0,00 30/06/2014
72 403300 ANA PAULA SOARES RAPOSO ESTAGIARIO ATIVO SAO FRANCISCO; SAO FRANCISCO-01 PJ 545,00 0,00 0,00 0,00 0,00 0,00 545,00 0,00 0,00 0,00 0,00 545,00 111,30 0,00 30/06/2014
73 301100 ANA PRISCILA ALVES DUARTE ESTAGIARIO ATIVO PATROCINIO; PATROCINIO-03 PJ 545,00 0,00 0,00 0,00 0,00 0,00 545,00 0,00 0,00 0,00 0,00 545,00 111,30 0,00 30/06/2014
74 415500 ANALICE DA SILVA SOUZA ESTAGIARIO ATIVO BELO HORIZONTE; CRIANÇAS E ADOLESCENTES-23 PJ-INFRACIONAL 545,00 0,00 0,00 0,00 0,00 0,00 545,00 0,00 0,00 0,00 0,00 545,00 111,30 0,00 30/06/2014
75 393100 ANDRE CORREA DE SOUZA ESTAGIARIO ATIVO BELO HORIZONTE; PROCON-MG-GAB DO COORDENADOR DO PROCON-MG 545,00 0,00 0,00 0,00 0,00 0,00 545,00 0,00 0,00 0,00 0,00 545,00 111,30 0,00 30/06/2014
76 417700 ANDRE RIBEIRO ANTUNES ESTAGIARIO ATIVO ITAUNA; ITAUNA-04 PJ 545,00 0,00 0,00 0,00 0,00 0,00 545,00 0,00 0,00 0,00 0,00 545,00 111,30 0,00 30/06/2014
77 319200 ANDREA MARIA ALVES ESTAGIARIO ATIVO BELO HORIZONTE; CAO-CRIMINAL-GABINETES 545,00 0,00 0,00 0,00 0,00 0,00 545,00 0,00 0,00 0,00 0,00 545,00 100,70 0,00 30/06/2014
78 356700 ANDREIA PATRICIA VIANA ESTAGIARIO ATIVO FORMIGA; FORMIGA-01 PJ 545,00 0,00 0,00 0,00 0,00 0,00 545,00 0,00 0,00 0,00 0,00 545,00 106,00 0,00 30/06/2014
79 420300 ANDRESSA NUNES RAMOS ESTAGIARIO ATIVO NOVO CRUZEIRO; NOVO CRUZEIRO - PJ ÚNICA 272,50 0,00 0,00 0,00 0,00 0,00 272,50 0,00 0,00 0,00 0,00 272,50 47,70 0,00 30/06/2014
80 265000 ANE CAROLINE ALVES VIEIRA ESTAGIARIO ATIVO CONSELHEIRO LAFAIETE; CONSELHEIRO LAFAIETE-01 PJ 545,00 0,00 0,00 0,00 0,00 0,00 545,00 0,00 0,00 0,00 0,00 545,00 106,00 0,00 30/06/2014
81 324100 ANGELICA NUNES VIEIRA DA SILVA ESTAGIARIO ATIVO IBIRITE; IBIRITE-02 PJ 545,00 0,00 0,00 0,00 0,00 0,00 545,00 0,00 0,00 0,00 0,00 545,00 111,30 0,00 30/06/2014
82 403500 ANILTON MARCIO DO CARMO JUNIOR ESTAGIARIO ATIVO VESPASIANO; VESPASIANO-03 PJ 545,00 0,00 0,00 0,00 0,00 0,00 545,00 0,00 0,00 0,00 0,00 545,00 100,70 0,00 30/06/2014
83 277300 ANNA CECILIA BORGES GOULART ESTAGIARIO ATIVO UBERABA; UBERABA-04 PJ 545,00 0,00 0,00 0,00 0,00 0,00 545,00 0,00 0,00 0,00 0,00 545,00 111,30 0,00 30/06/2014
84 373900 ANNA LETICIA MACHADO BRAJATO ESTAGIARIO ATIVO FRUTAL; FRUTAL-02 PJ 545,00 0,00 0,00 0,00 0,00 0,00 545,00 0,00 0,00 0,00 0,00 545,00 111,30 0,00 30/06/2014
85 338800 ANNA PAULA REIS BRAGA ESTAGIARIO ATIVO TRES MARIAS; TRES MARIAS - PJ ÚNICA 545,00 0,00 0,00 0,00 0,00 0,00 545,00 0,00 0,00 0,00 0,00 545,00 111,30 0,00 30/06/2014
86 388800 ANNE PENA DE OLIVEIRA ESTAGIARIO ATIVO GOVERNADOR VALADARES; GOVERNADOR VALADARES-15 PJ 545,00 0,00 0,00 0,00 0,00 0,00 545,00 0,00 0,00 0,00 0,00 545,00 63,60 0,00 30/06/2014
87 356900 ANNE VIEIRA TEODORAK PEGO ESTAGIARIO ATIVO BELO HORIZONTE; ASSESSORIA ESPECIAL DO PGJ 545,00 0,00 0,00 0,00 0,00 0,00 545,00 0,00 0,00 0,00 0,00 545,00 111,30 0,00 30/06/2014
88 282100 ANTONIELLY LOURENA DA SILVA FRAGA ESTAGIARIO ATIVO SAO DOMINGOS DO PRATA; SAO DOMINGOS DO PRATA - PJ ÚNICA 545,00 0,00 0,00 0,00 0,00 0,00 545,00 0,00 0,00 0,00 0,00 545,00 53,00 0,00 30/06/2014
89 412200 ANTONIO GUILHERME DE SENE ASSUMPCAO ESTAGIARIO ATIVO UBERABA; UBERABA-05 PJ 545,00 0,00 0,00 0,00 0,00 0,00 545,00 0,00 0,00 0,00 0,00 545,00 111,30 0,00 30/06/2014
90 96 ANTONIO JUNIO DUTRA PRADO DELEGADO DE POLICIA 1 ATIVO BELO HORIZONTE - COMARCA; EXTINTA-CAO-CRIMO-COMB CRIME ORGANIZADO-GABS 3.173,74 0,00 0,00 0,00 0,00 0,00 3.173,74 0,00 141,03 0,00 141,03 3.032,71 685,50 0,00 30/06/2014
91 370900 ARIANE ALVES DOS REIS ESTAGIARIO ATIVO IPATINGA; IPATINGA-08 PJ 545,00 0,00 0,00 0,00 0,00 0,00 545,00 0,00 0,00 0,00 0,00 545,00 111,30 0,00 30/06/2014
92 365300 ARIELY MILIAN SILVA ESTAGIARIO ATIVO CAETE; CAETE-02 PJ 545,00 0,00 0,00 0,00 0,00 0,00 545,00 0,00 0,00 0,00 0,00 545,00 111,30 0,00 30/06/2014
93 379200 ARTHUR ALMEIDA PASSOS ESTAGIARIO ATIVO BELO HORIZONTE; CENTRO DE ESTUDOS E APERFEICOAMENTO FUNCIONAL 817,50 0,00 0,00 0,00 0,00 0,00 817,50 0,00 0,00 0,00 0,00 817,50 111,30 0,00 30/06/2014
94 361200 ARTHUR ANDRADE BARBOSA ESTAGIARIO ATIVO CAMBUI; CAMBUI-01 PJ 545,00 0,00 0,00 0,00 0,00 0,00 545,00 0,00 0,00 0,00 0,00 545,00 111,30 0,00 30/06/2014
95 282200 ARTHUR DA SILVA CASTRO ESTAGIARIO ATIVO LAGOA DA PRATA; LAGOA DA PRATA-02 PJ 545,00 0,00 0,00 0,00 0,00 0,00 545,00 0,00 0,00 0,00 0,00 545,00 111,30 0,00 30/06/2014
96 379300 ARTHUR GONTIJO COTA ESTAGIARIO ATIVO BELO HORIZONTE; DIRET DE INFORMACAO E CONHECIMENTO-DINC/CEAF 817,50 0,00 0,00 0,00 0,00 0,00 817,50 0,00 0,00 0,00 0,00 817,50 95,40 0,00 30/06/2014
97 344100 ARTHUR OLIVEIRA GUIMARAES ESTAGIARIO ATIVO BELO HORIZONTE; EXTINTA-PROCON-14 PJ- DEFESA DO CONSUMIDOR 545,00 0,00 0,00 0,00 0,00 0,00 545,00 0,00 0,00 0,00 0,00 545,00 111,30 0,00 30/06/2014
98 301400 ATILA MOARES CORDEIRO ESTAGIARIO ATIVO SAO SEBASTIAO DO PARAISO; SAO SEBASTIAO DO PARAISO-05 PJ 545,00 0,00 0,00 0,00 0,00 0,00 545,00 0,00 0,00 0,00 0,00 545,00 42,40 0,00 30/06/2014
99 409200 AUGUSTO CESAR DA SILVA TOSTES ESTAGIARIO ATIVO JUIZ DE FORA; JUIZ DE FORA-19 PJ 545,00 0,00 0,00 0,00 0,00 0,00 545,00 0,00 0,00 0,00 0,00 545,00 106,00 0,00 30/06/2014
100 349700 AYUME ALVES FRANCO ESTAGIARIO ATIVO CARLOS CHAGAS; CARLOS CHAGAS - PJ ÚNICA 545,00 0,00 0,00 0,00 0,00 0,00 545,00 0,00 0,00 0,00 0,00 545,00 111,30 0,00 30/06/2014
101 403600 BARBARA ADRIANE DANTAS AZEVEDO ESTAGIARIO ATIVO BELO HORIZONTE; CENTRAL DE APOIO TECNICO-SETOR DE ENGENHARIA 817,50 0,00 0,00 0,00 0,00 0,00 817,50 0,00 0,00 0,00 0,00 817,50 111,30 0,00 30/06/2014
102 338900 BARBARA ALMEIDA DUARTE ESTAGIARIO ATIVO BELO HORIZONTE; JUIZO DE FAMILIA-02 PJ 545,00 0,00 0,00 0,00 0,00 0,00 545,00 0,00 0,00 0,00 0,00 545,00 111,30 0,00 30/06/2014
103 344300 BARBARA CERQUEIRA DA ROCHA ESTAGIARIO ATIVO MURIAE; MURIAE-03 PJ 545,00 0,00 0,00 0,00 0,00 0,00 545,00 0,00 0,00 0,00 0,00 545,00 111,30 0,00 30/06/2014
104 277500 BARBARA CRISTINA PEREIA MOTA ESTAGIARIO ATIVO ARINOS; ARINOS - PJ ÚNICA 545,00 0,00 0,00 0,00 0,00 0,00 545,00 0,00 0,00 0,00 0,00 545,00 111,30 0,00 30/06/2014
105 398600 BARBARA FERREIRA MAGALHAES ESTAGIARIO ATIVO BELO HORIZONTE; JUIZO CRIMINAL-12 PJ 545,00 0,00 0,00 0,00 0,00 0,00 545,00 0,00 0,00 0,00 0,00 545,00 111,30 0,00 30/06/2014
106 344400 BARBARA PEREIRA LEAL ESTAGIARIO ATIVO CONSELHEIRO LAFAIETE; CONSELHEIRO LAFAIETE-05 PJ 545,00 0,00 0,00 0,00 0,00 0,00 545,00 0,00 0,00 0,00 0,00 545,00 106,00 0,00 30/06/2014
107 409300 BARBARA STEFANIE SANTOS ESTAGIARIO ATIVO SANTA LUZIA; SANTA LUZIA-03 PJ 545,00 0,00 0,00 0,00 0,00 0,00 545,00 0,00 0,00 0,00 0,00 545,00 111,30 0,00 30/06/2014
108 319500 BARBARA VELOSO GUIMARAES ESTAGIARIO ATIVO BELO HORIZONTE; PROC. JUSTICA DIR. DIFUSOS E COLETIVOS 545,00 0,00 0,00 0,00 0,00 0,00 545,00 0,00 0,00 0,00 0,00 545,00 106,00 0,00 30/06/2014
109 361300 BARBARA VIANA GUIMARAES ESTAGIARIO ATIVO RIBEIRAO DAS NEVES; RIBEIRAO DAS NEVES-08 PJ 545,00 0,00 0,00 0,00 0,00 0,00 545,00 0,00 0,00 0,00 0,00 545,00 111,30 0,00 30/06/2014
110 370000 BIANCA CARDOSO ABUD ESTAGIARIO ATIVO ARAGUARI; ARAGUARI-03 PJ 545,00 0,00 0,00 0,00 0,00 0,00 545,00 0,00 0,00 0,00 0,00 545,00 111,30 0,00 30/06/2014
111 398700 BIANCA CERES DA SILVA ESTAGIARIO ATIVO BELO HORIZONTE; 23ª PJ DEF DIREITOS CRIANÇAS E ADOLESCENTES 817,50 0,00 0,00 0,00 0,00 0,00 817,50 0,00 0,00 0,00 0,00 817,50 84,80 0,00 30/06/2014
112 344500 BIANCA GOMES MODAFFERI ESTAGIARIO ATIVO BELO HORIZONTE; PROC. JUSTICA DIR. DIFUSOS E COLETIVOS 545,00 0,00 0,00 0,00 0,00 0,00 545,00 0,00 0,00 0,00 0,00 545,00 42,40 0,00 30/06/2014
113 311200 BIANCA KELLY FERREIRA CAMPOS ESTAGIARIO ATIVO BARBACENA; BARBACENA-01 PJ 545,00 0,00 0,00 0,00 0,00 0,00 545,00 0,00 0,00 0,00 0,00 545,00 90,10 0,00 30/06/2014
114 398800 BLENDA RODRIGUES AMARAL ESTAGIARIO ATIVO CURVELO; CURVELO - 04ª PJ 545,00 0,00 0,00 0,00 0,00 0,00 545,00 0,00 0,00 0,00 0,00 545,00 106,00 0,00 30/06/2014
115 393200 BRENDA MIEKO CARVALHO KAMIMURA ESTAGIARIO ATIVO ITAJUBA; ITAJUBA-04 PJ 545,00 0,00 0,00 0,00 0,00 0,00 545,00 0,00 0,00 0,00 0,00 545,00 111,30 0,00 30/06/2014
116 307000 BRENDA PIMENTEL DE SOUZA VIANA ESTAGIARIO ATIVO MANHUMIRIM; MANHUMIRIM-02 PROMOTORIA DEJUSTICA 545,00 0,00 0,00 0,00 0,00 0,00 545,00 0,00 0,00 0,00 0,00 545,00 111,30 0,00 30/06/2014
117 371000 BRUNA ALVES MARTINS CIARALLO ESTAGIARIO ATIVO RIO POMBA; RIO POMBA - PJ ÚNICA 545,00 0,00 0,00 0,00 0,00 0,00 545,00 0,00 0,00 0,00 0,00 545,00 106,00 0,00 30/06/2014
118 388900 BRUNA ALVES OLIVEIRA DE ABREU ESTAGIARIO ATIVO PASSOS; PASSOS-04 PJ 545,00 0,00 0,00 0,00 0,00 0,00 545,00 0,00 0,00 0,00 0,00 545,00 100,70 0,00 30/06/2014
119 349800 BRUNA ARANTES VIEIRA ESTAGIARIO ATIVO UBERLANDIA; UBERLÂNDIA-14 PJ 545,00 0,00 0,00 0,00 0,00 0,00 545,00 0,00 0,00 0,00 0,00 545,00 111,30 0,00 30/06/2014
120 398900 BRUNA CAROLINE TEOFILO MENDES ESTAGIARIO ATIVO SAO SEBASTIAO DO PARAISO; SAO SEBASTIAO DO PARAISO-01 PJ 545,00 0,00 0,00 0,00 0,00 0,00 545,00 0,00 0,00 0,00 0,00 545,00 111,30 0,00 30/06/2014
121 412400 BRUNA DA SILVA RIBEIRO DE OLIVEIRA ESTAGIARIO ATIVO POCO FUNDO; POCO FUNDO - PJ ÚNICA 545,00 0,00 0,00 0,00 0,00 0,00 545,00 0,00 0,00 0,00 0,00 545,00 111,30 0,00 30/06/2014
122 412300 BRUNA DOS SANTOS SOARES ESTAGIARIO ATIVO BETIM; BETIM-04 PJ 545,00 0,00 0,00 0,00 0,00 0,00 545,00 0,00 0,00 0,00 0,00 545,00 111,30 0,00 30/06/2014
123 311300 BRUNA FINHOLD LAMBOGLIA PEREZ ESTAGIARIO ATIVO UBERABA; UBERABA-12 PJ 545,00 0,00 0,00 0,00 0,00 0,00 545,00 0,00 0,00 0,00 0,00 545,00 111,30 0,00 30/06/2014
124 420400 BRUNA GOMES DE AZEVEDO LIMA ESTAGIARIO ATIVO BELO HORIZONTE; PROC. JUSTICA DE HABEAS CORPUS 272,50 0,00 0,00 0,00 0,00 0,00 272,50 0,00 0,00 0,00 0,00 272,50 47,70 0,00 30/06/2014
125 374000 BRUNA GONCALVES DE OLIVEIRA ESTAGIARIO ATIVO UBERABA; UBERABA-05 PJ 545,00 0,00 0,00 0,00 0,00 0,00 545,00 0,00 0,00 0,00 0,00 545,00 111,30 0,00 30/06/2014
126 412500 BRUNA HENRIQUE DE SOUZA ESTAGIARIO ATIVO Informação não disponível 545,00 0,00 0,00 0,00 0,00 0,00 545,00 0,00 0,00 0,00 0,00 545,00 111,30 0,00 30/06/2014
127 412600 BRUNA INACIO AGOSTINHO ESTAGIARIO ATIVO Informação não disponível 545,00 0,00 0,00 0,00 0,00 0,00 545,00 0,00 0,00 0,00 0,00 545,00 106,00 0,00 30/06/2014
128 301600 BRUNA LUIZA CARVALHO NEVES ESTAGIARIO ATIVO CONGONHAS; CONGONHAS-01 PJ 545,00 0,00 0,00 0,00 0,00 0,00 545,00 0,00 0,00 0,00 0,00 545,00 111,30 0,00 30/06/2014
129 374100 BRUNA MARIA DE SOUSA OLIVEIRA ESTAGIARIO ATIVO FRUTAL; FRUTAL-03 PJ 545,00 0,00 0,00 0,00 0,00 0,00 545,00 0,00 0,00 0,00 0,00 545,00 111,30 236,17 30/06/2014
130 311400 BRUNA PIRES VILELA ESTAGIARIO ATIVO BELO HORIZONTE; PROC. JUSTICA DIR. DIFUSOS E COLETIVOS 545,00 0,00 0,00 0,00 0,00 0,00 545,00 0,00 0,00 0,00 0,00 545,00 111,30 0,00 30/06/2014
131 324400 BRUNA SILVA AZEVEDO ESTAGIARIO ATIVO CAMANDUCAIA; CAMANDUCAIA - PJ ÚNICA 545,00 0,00 0,00 0,00 0,00 0,00 545,00 0,00 0,00 0,00 0,00 545,00 111,30 0,00 30/06/2014
132 379400 BRUNO ALMEIDA AMARAL ESTAGIARIO ATIVO BELO HORIZONTE; SUPERINTENDENCIA DE COMUNICACAO INTEGRADA 817,50 0,00 0,00 0,00 0,00 0,00 817,50 0,00 0,00 0,00 0,00 817,50 111,30 0,00 30/06/2014
133 357000 BRUNO ALVARENGA GUIMARAES DA SILVA ESTAGIARIO ATIVO TEOFILO OTONI; COORD REG PJ DEF EDU DIR CRIAN ADOL JEQUI MUC 545,00 0,00 0,00 0,00 0,00 0,00 545,00 0,00 0,00 0,00 0,00 545,00 111,30 0,00 30/06/2014
134 403700 BRUNO BURKHARDT ESTAGIARIO ATIVO BELO HORIZONTE; FAZENDA PUBLICA E EXECUCOES FISCAIS-01 PJ 545,00 0,00 0,00 0,00 0,00 0,00 545,00 0,00 0,00 0,00 0,00 545,00 111,30 0,00 30/06/2014
135 393300 BRUNO CASSIO DE PAULA SANTOS ESTAGIARIO ATIVO UBA; UBA-04 PJ 545,00 0,00 0,00 0,00 0,00 0,00 545,00 0,00 0,00 0,00 0,00 545,00 111,30 0,00 30/06/2014
136 389000 BRUNO CRUZ DE SOUZA ESTAGIARIO ATIVO CATAGUASES; CATAGUASES-01 PJ 545,00 0,00 0,00 0,00 0,00 0,00 545,00 0,00 0,00 0,00 0,00 545,00 106,00 0,00 30/06/2014
137 86 BRUNO MENDES AMIANTI INVESTIGADOR DE POLICIA 2 ATIVO BELO HORIZONTE - COMARCA; CAO-CRIM EXEC PENAL TRIB JURI AUD MILITAR 1.139,99 0,00 0,00 0,00 0,00 0,00 1.139,99 0,00 0,00 0,00 0,00 1.139,99 685,50 0,00 30/06/2014
138 271300 BRUNO PEREIRA PASSOS ESTAGIARIO ATIVO PEDRO LEOPOLDO; PEDRO LEOPOLDO-03 PJ 545,00 0,00 0,00 0,00 0,00 0,00 545,00 0,00 0,00 0,00 0,00 545,00 111,30 0,00 30/06/2014
139 389100 BRUNO SOLDI LEITE ESTAGIARIO ATIVO PAINS; ALFENAS-01 PJ 545,00 0,00 0,00 0,00 0,00 0,00 545,00 0,00 0,00 0,00 0,00 545,00 111,30 0,00 30/06/2014
140 420500 CAIO DEZONTINI BERNARDES ESTAGIARIO ATIVO BELO HORIZONTE; PROC. JUSTICA DIR. DIFUSOS E COLETIVOS 272,50 0,00 0,00 0,00 0,00 0,00 272,50 0,00 0,00 0,00 0,00 272,50 47,70 0,00 30/06/2014
141 349900 CAMILA ALVES FERREIRA ESTAGIARIO ATIVO RIBEIRAO DAS NEVES; RIBEIRAO DAS NEVES-01 PJ 545,00 0,00 0,00 0,00 0,00 0,00 545,00 0,00 0,00 0,00 0,00 545,00 111,30 0,00 30/06/2014
142 379500 CAMILA ALVES INNECCO ESTAGIARIO ATIVO BELO HORIZONTE; 23ª PJ DEF DIREITOS CRIANÇAS E ADOLESCENTES 817,50 0,00 0,00 0,00 0,00 0,00 817,50 0,00 0,00 0,00 0,00 817,50 63,60 0,00 30/06/2014
143 379600 CAMILA CARVALHO ESTAGIARIO ATIVO BELO HORIZONTE; CENTRO DE ESTUDOS E APERFEICOAMENTO FUNCIONAL 817,50 0,00 0,00 0,00 0,00 0,00 817,50 0,00 0,00 0,00 0,00 817,50 111,30 0,00 30/06/2014
144 365500 CAMILA CELIS DA SILVA ESTAGIARIO ATIVO BETIM; BETIM-08 PJ-DEFESA DO CIDADAO 545,00 0,00 0,00 0,00 0,00 0,00 545,00 0,00 0,00 0,00 0,00 545,00 111,30 0,00 30/06/2014
145 417800 CAMILA COSTA CARDEAL ESTAGIARIO ATIVO BELO HORIZONTE; CAO-DIREITOS HUMANOS E APOIO COMUNITARIO 817,50 0,00 0,00 0,00 0,00 0,00 817,50 0,00 0,00 0,00 0,00 817,50 111,30 0,00 30/06/2014
146 403800 CAMILA DE ALMEIDA ALKMIM FRANCA ESTAGIARIO ATIVO BELO HORIZONTE; 18 PJ DEF DIR HUM AP COM CONF AG E FISC POL 545,00 0,00 0,00 0,00 0,00 0,00 545,00 0,00 0,00 0,00 0,00 545,00 100,70 0,00 30/06/2014
147 374200 CAMILA DE FIGUEIREDO BAGATINI ESTAGIARIO ATIVO POUSO ALEGRE; POUSO ALEGRE-06 PJ 545,00 0,00 0,00 0,00 0,00 0,00 545,00 0,00 0,00 0,00 0,00 545,00 111,30 0,00 30/06/2014
148 412700 CAMILA FERREIRA TAVARES DA SILVA ESTAGIARIO ATIVO VARGINHA; VARGINHA-04 PJ 545,00 0,00 0,00 0,00 0,00 0,00 545,00 0,00 0,00 0,00 0,00 545,00 111,30 0,00 30/06/2014
149 379700 CAMILA MIRANDA CAMANZI ESTAGIARIO ATIVO BELO HORIZONTE; CENTRO DE ESTUDOS E APERFEICOAMENTO FUNCIONAL 817,50 0,00 0,00 0,00 0,00 0,00 817,50 0,00 0,00 0,00 0,00 817,50 95,40 0,00 30/06/2014
150 403900 CAMILA PEREIRA DE AZEVEDO CARVALHO ESTAGIARIO ATIVO AIURUOCA; AIURUOCA - PJ ÚNICA 545,00 0,00 0,00 0,00 0,00 0,00 545,00 0,00 0,00 0,00 0,00 545,00 111,30 0,00 30/06/2014
151 399000 CAMILA RODRIGUES SANTIAGO RONCALLE ESTAGIARIO ATIVO CONTAGEM; CONTAGEM-20 PJ 545,00 0,00 0,00 0,00 0,00 0,00 545,00 0,00 0,00 0,00 0,00 545,00 111,30 0,00 30/06/2014
152 365600 CAMILA SALLUM ESTAGIARIO ATIVO Informação não disponível 545,00 0,00 0,00 0,00 0,00 0,00 545,00 0,00 0,00 0,00 0,00 545,00 111,30 0,00 30/06/2014
153 404000 CAMILA SOUSA FERREIRA ESTAGIARIO ATIVO BELO HORIZONTE; 18 PJ DEF DIR HUM AP COM CONF AG E FISC POL 545,00 0,00 0,00 0,00 0,00 0,00 545,00 0,00 0,00 0,00 0,00 545,00 111,30 0,00 30/06/2014
154 357100 CAMILLA MALTA SILVANO ESTAGIARIO ATIVO SAO JOAO DEL REI; SAO JOAO DEL REI-03 PJ 545,00 0,00 0,00 0,00 0,00 0,00 545,00 0,00 0,00 0,00 0,00 545,00 111,30 0,00 30/06/2014
155 389200 CARINE RODRIGUES DE OLIVEIRA ESTAGIARIO ATIVO DIVINOPOLIS; DIVINÓPOLIS - 07ª PJ 545,00 0,00 0,00 0,00 0,00 0,00 545,00 0,00 0,00 0,00 0,00 545,00 106,00 0,00 30/06/2014
156 404100 CARINY DE SOUZA SOBRINHO ESTAGIARIO ATIVO PIUMHI; PIUMHI-02 PJ 545,00 0,00 0,00 0,00 0,00 0,00 545,00 0,00 0,00 0,00 0,00 545,00 111,30 0,00 30/06/2014
157 393400 CARLA CASTRO SCALIONI ESTAGIARIO ATIVO TRES PONTAS; TRES PONTAS-01 PJ 545,00 0,00 0,00 0,00 0,00 0,00 545,00 0,00 0,00 0,00 0,00 545,00 111,30 0,00 30/06/2014
158 404200 CARLA COSTA BAHIA ROCHA ESTAGIARIO ATIVO POCOS DE CALDAS; POCOS DE CALDAS-07 PJ 545,00 0,00 0,00 0,00 0,00 0,00 545,00 0,00 0,00 0,00 0,00 545,00 111,30 0,00 30/06/2014
159 415600 CARLA GONCALVES ROZEMBERG ESTAGIARIO ATIVO BELO HORIZONTE; DEFESA DA SAUDE-19 PJ 817,50 0,00 0,00 0,00 0,00 0,00 817,50 0,00 0,00 0,00 0,00 817,50 111,30 0,00 30/06/2014
160 92 CARLOS ALBERTO SANTOS 2O.TENENTE ATIVO BELO HORIZONTE - COMARCA; GAECO - SECRETARIA 2.396,60 0,00 0,00 0,00 0,00 0,00 2.396,60 0,00 45,67 0,00 45,67 2.350,93 685,50 0,00 30/06/2014
161 278000 CARLOS ANDRE LOPES ESTAGIARIO ATIVO FORMIGA; FORMIGA-01 PJ 545,00 0,00 0,00 0,00 0,00 0,00 545,00 0,00 0,00 0,00 0,00 545,00 106,00 0,00 30/06/2014
162 412800 CARLOS DE SOUSA CARVALHO JUNIOR ESTAGIARIO ATIVO VARGINHA; VARGINHA-02 PJ 545,00 0,00 0,00 0,00 0,00 0,00 545,00 0,00 0,00 0,00 0,00 545,00 111,30 0,00 30/06/2014
163 371100 CARLOS HENRIQUE BRANJAO ZONTA ESTAGIARIO ATIVO UBA; UBA-03 PJ 545,00 0,00 0,00 0,00 0,00 0,00 545,00 0,00 0,00 0,00 0,00 545,00 111,30 0,00 30/06/2014
164 89 CARLOS JOSE BRATILIERE TENENTE CORONEL ATIVO BELO HORIZONTE - COMARCA; CENTRAL DE APOIO TECNICO-SETOR DE INFORMATICA 3.842,96 0,00 0,00 0,00 0,00 0,00 3.842,96 0,00 261,71 0,00 261,71 3.581,25 685,50 0,00 30/06/2014
165 84 CARLOS PEREIRA JUNIOR INVESTIGADOR DE POLICIA 2 ATIVO BELO HORIZONTE - COMARCA; CAO-CRIM EXEC PENAL TRIB JURI AUD MILITAR 1.918,67 0,00 0,00 0,00 0,00 0,00 1.918,67 0,00 9,82 0,00 9,82 1.908,85 685,50 0,00 30/06/2014
166 55 CARLOS ROBERTO BARBOSA AGENTE DE POLICIA ATIVO BELO HORIZONTE - COMARCA; GAECO - SECRETARIA 2.110,53 0,00 0,00 0,00 0,00 0,00 2.110,53 0,00 24,21 0,00 24,21 2.086,32 685,50 0,00 30/06/2014
167 361400 CAROLINA ALMADA ARANTES ESTAGIARIO ATIVO PIUMHI; PIUMHI-01 PJ 545,00 0,00 0,00 0,00 0,00 0,00 545,00 0,00 0,00 0,00 0,00 545,00 111,30 0,00 30/06/2014
168 332400 CAROLINA COSTA LEONEL ESTAGIARIO ATIVO BELO HORIZONTE; FAZENDA PUBLICA E EXECUCOES FISCAIS-01 PJ 545,00 0,00 0,00 0,00 0,00 0,00 545,00 0,00 0,00 0,00 0,00 545,00 111,30 0,00 30/06/2014
169 417900 CAROLINA FLAVIA LEMOS ESTAGIARIO ATIVO PATROCINIO; PATROCINIO-01 PJ 545,00 0,00 0,00 0,00 0,00 0,00 545,00 0,00 0,00 0,00 0,00 545,00 111,30 0,00 30/06/2014
170 389400 CAROLINA MURTA FARIA ESTAGIARIO ATIVO BELO HORIZONTE; JUIZADO ESPECIAL CÍVEL E CRIMINAL - 08ª PJ 545,00 0,00 0,00 0,00 0,00 0,00 545,00 0,00 0,00 0,00 0,00 545,00 111,30 0,00 30/06/2014
171 324800 CAROLINA VIEIRA CORREA ESTAGIARIO ATIVO BELO HORIZONTE; GABINETE DOS PROCURADORES 545,00 0,00 0,00 0,00 0,00 0,00 545,00 0,00 0,00 0,00 0,00 545,00 111,30 0,00 30/06/2014
172 344700 CAROLINE DOS SANTOS ALVES ESTAGIARIO ATIVO CONSELHEIRO PENA; CONSELHEIRO PENA-01 PJ 308,83 0,00 0,00 0,00 0,00 0,00 308,83 0,00 0,00 0,00 0,00 308,83 68,90 0,00 30/06/2014
173 344600 CAROLINE LIMA SANTOS ESTAGIARIO ATIVO BELO HORIZONTE; JUIZO CRIMINAL-12 PJ 545,00 0,00 0,00 0,00 0,00 0,00 545,00 0,00 0,00 0,00 0,00 545,00 111,30 0,00 30/06/2014
174 288500 CAROLINE RODRIGUES COSTA ESTAGIARIO ATIVO LAMBARI; LAMBARI - PJ ÚNICA 545,00 0,00 0,00 0,00 0,00 0,00 545,00 0,00 0,00 0,00 0,00 545,00 111,30 0,00 30/06/2014
175 415700 CAROLINE TOFANELI TOTOLA ESTAGIARIO ATIVO BELO HORIZONTE; CRIANÇAS E ADOLESCENTES-23 PJ-INFRACIONAL 545,00 0,00 0,00 0,00 0,00 0,00 545,00 0,00 0,00 0,00 0,00 545,00 111,30 0,00 30/06/2014
176 281600 CASTER MACHADO DE CARVALHO ESTAGIARIO ATIVO SAO JOAO EVANGELISTA; SAO JOAO EVANGELISTA - PJ ÚNICA 545,00 0,00 0,00 0,00 0,00 0,00 545,00 0,00 0,00 0,00 0,00 545,00 111,30 0,00 30/06/2014
177 333500 CATARINA ANNONI CESAR ESTAGIARIO ATIVO BELO HORIZONTE; 18 PJ DEF DIR HUM AP COM CONF AG E FISC POL 545,00 0,00 0,00 0,00 0,00 0,00 545,00 0,00 0,00 0,00 0,00 545,00 111,30 0,00 30/06/2014
178 350200 CATIA BONSUCESSO FRANCO ESTAGIARIO ATIVO SABARA; SABARA-02 PJ 545,00 0,00 0,00 0,00 0,00 0,00 545,00 0,00 0,00 0,00 0,00 545,00 53,00 0,00 30/06/2014
179 404300 CELSO AUGUSTO PAULINO DUARTE ESTAGIARIO ATIVO SAO SEBASTIAO DO PARAISO; SAO SEBASTIAO DO PARAISO-03 PJ 545,00 0,00 0,00 0,00 0,00 0,00 545,00 0,00 0,00 0,00 0,00 545,00 111,30 0,00 30/06/2014
180 374300 CESAR PACHECO LOUREIRO BATISTA ESTAGIARIO ATIVO Informação não disponível 545,00 0,00 0,00 0,00 0,00 0,00 545,00 0,00 0,00 0,00 0,00 545,00 111,30 0,00 30/06/2014
181 333600 CHADSON JHONANTHAN ANTONIO DIAS ESTAGIARIO ATIVO Informação não disponível 145,33 0,00 0,00 0,00 0,00 0,00 145,33 0,00 0,00 0,00 0,00 145,33 21,20 0,00 30/06/2014
182 311800 CHRISTIAN KIYOSHI MENDES KON ESTAGIARIO ATIVO BELO HORIZONTE; GABINETE DOS PROCURADORES 545,00 0,00 0,00 0,00 0,00 0,00 545,00 0,00 0,00 0,00 0,00 545,00 74,20 0,00 30/06/2014
183 393500 CHRISTIAN MARK DE SOUZA REIS ESTAGIARIO ATIVO BELO HORIZONTE; CAO-TS-TERCEIRO SETOR-APOIO TECNICO 817,50 0,00 0,00 0,00 0,00 0,00 817,50 0,00 0,00 0,00 0,00 817,50 111,30 0,00 30/06/2014
184 265700 CINTHIA CARDOSO MOURA ESTAGIARIO ATIVO BORDA DA MATA; BORDA DA MATA - PJ ÚNICA 545,00 0,00 0,00 0,00 0,00 0,00 545,00 0,00 0,00 0,00 0,00 545,00 111,30 0,00 30/06/2014
185 420600 CLAIR VALVERDE PEREIRA ESTAGIARIO ATIVO BELO HORIZONTE; PROC. JUSTICA DE HABEAS CORPUS 545,00 0,00 0,00 0,00 0,00 0,00 545,00 0,00 0,00 0,00 0,00 545,00 47,70 0,00 30/06/2014
186 311900 CLARICE DOS ANJOS AMORIM ESTAGIARIO ATIVO PONTE NOVA; PONTE NOVA- 05 PJ 545,00 0,00 0,00 0,00 0,00 0,00 545,00 0,00 0,00 0,00 0,00 545,00 111,30 0,00 30/06/2014
187 374400 CLAUDILENE DA SILVA COELHO ESTAGIARIO ATIVO ALVINOPOLIS; ALVINOPOLIS - PJ ÚNICA 545,00 0,00 0,00 0,00 0,00 0,00 545,00 0,00 0,00 0,00 0,00 545,00 111,30 0,00 30/06/2014
188 40 CLAUDIO MANOEL FERNANDES AGENTE DE POLICIA ATIVO BELO HORIZONTE - COMARCA; GAECO - SECRETARIA 1.918,67 0,00 0,00 0,00 0,00 0,00 1.918,67 0,00 9,82 0,00 9,82 1.908,85 685,50 0,00 30/06/2014
189 398300 CLAYTON ATILA GOMES ESTAGIARIO ATIVO BELO HORIZONTE; 23ª PJ DEF DIREITOS CRIANÇAS E ADOLESCENTES 545,00 0,00 0,00 0,00 0,00 0,00 545,00 0,00 0,00 0,00 0,00 545,00 111,30 0,00 30/06/2014
190 301800 CLEBSON SILVA SANTOS ESTAGIARIO ATIVO VARGINHA; VARGINHA-05 PJ 545,00 0,00 0,00 0,00 0,00 0,00 545,00 0,00 0,00 0,00 0,00 545,00 68,90 0,00 30/06/2014
191 344800 CONRADO LUIZ PIMENTA AZEVEDO ESTAGIARIO ATIVO ALEM PARAIBA; ALEM PARAIBA-02 PJ 545,00 0,00 0,00 0,00 0,00 0,00 545,00 0,00 0,00 0,00 0,00 545,00 111,30 0,00 30/06/2014
192 81 COSME COELHO TEIXEIRA 3O.SARGENTO ATIVO BELO HORIZONTE - COMARCA; CAO-ORDEM ECONOMICA E TRIBUTARIA 1.477,90 0,00 0,00 0,00 0,00 0,00 1.477,90 0,00 0,00 0,00 0,00 1.477,90 685,50 0,00 30/06/2014
193 325100 CRISTIAN TRISTAO DE ANDRADE ESTAGIARIO ATIVO TRES CORACOES; TRES CORACOES-01 PJ 545,00 0,00 0,00 0,00 0,00 0,00 545,00 0,00 0,00 0,00 0,00 545,00 111,30 0,00 30/06/2014
194 344900 CRISTIANO MATHIAS DE OLIVEIRA ESTAGIARIO ATIVO BELO HORIZONTE; JUIZO CRIMINAL-12 PJ 545,00 0,00 0,00 0,00 0,00 0,00 545,00 0,00 0,00 0,00 0,00 545,00 111,30 0,00 30/06/2014
195 412900 CRISTIANO VICTOR FORTUNATO ESTAGIARIO ATIVO Informação não disponível 181,67 0,00 0,00 0,00 0,00 0,00 181,67 0,00 0,00 0,00 0,00 181,67 42,40 0,00 30/06/2014
196 325200 CYNTHIA CRISTINA CASSIMIRO ESTAGIARIO ATIVO BELO HORIZONTE; PROCON-MG-GAB DO COORDENADOR DO PROCON-MG 545,00 0,00 0,00 0,00 0,00 0,00 545,00 0,00 0,00 0,00 0,00 545,00 37,10 0,00 30/06/2014
197 310400 DAFINIE TALITA CANUTO ESTAGIARIO ATIVO SETE LAGOAS; SETE LAGOAS-10 PJ 109,00 0,00 0,00 0,00 0,00 0,00 109,00 0,00 0,00 0,00 0,00 109,00 0,00 0,00 30/06/2014
198 271800 DAIANA APARECIDA BORGES ESTAGIARIO ATIVO ARAXA; ARAXA-02 PJ/PROCON 545,00 0,00 0,00 0,00 0,00 0,00 545,00 0,00 0,00 0,00 0,00 545,00 111,30 0,00 30/06/2014
199 413000 DAIANE KELY DOS REIS ESTAGIARIO ATIVO Informação não disponível 545,00 0,00 0,00 0,00 0,00 0,00 545,00 0,00 0,00 0,00 0,00 545,00 111,30 0,00 30/06/2014
200 404400 DALILA BECKER DE MACEDO ESTAGIARIO ATIVO BELO HORIZONTE; CENTRAL DE APOIO TECNICO-SETOR DE ENGENHARIA 817,50 0,00 0,00 0,00 0,00 0,00 817,50 0,00 0,00 0,00 0,00 817,50 111,30 0,00 30/06/2014
201 333800 DALVO MARTINS BEMFEITO ESTAGIARIO ATIVO BELO HORIZONTE; DEFESA DE HABITACAO E URBANISMO-16 PJ 545,00 0,00 0,00 0,00 0,00 0,00 545,00 0,00 0,00 0,00 0,00 545,00 0,00 0,00 30/06/2014
202 374500 DANDARA ALEXANDRINA FELIPE OLIVEIRA ESTAGIARIO ATIVO DIVINOPOLIS; DIVINÓPOLIS - 02ª PJ 545,00 0,00 0,00 0,00 0,00 0,00 545,00 0,00 0,00 0,00 0,00 545,00 111,30 0,00 30/06/2014
203 404500 DANIEL BERTOLDI DE SOUZA NETO ESTAGIARIO ATIVO UBERLANDIA; UBERLANDIA-11 PJ 545,00 0,00 0,00 0,00 0,00 0,00 545,00 0,00 0,00 0,00 0,00 545,00 111,30 0,00 30/06/2014
204 288700 DANIEL CONTARINI SALGADO FERREIRA ESTAGIARIO ATIVO BELO HORIZONTE; JUIZO CRIMINAL-12 PJ 545,00 0,00 0,00 0,00 0,00 0,00 545,00 0,00 0,00 0,00 0,00 545,00 111,30 0,00 30/06/2014
205 339200 DANIEL FELIPE FERREIRA CARDOSO ESTAGIARIO ATIVO BELO HORIZONTE; JUIZO CRIMINAL-12 PJ 545,00 0,00 0,00 0,00 0,00 0,00 545,00 0,00 0,00 0,00 0,00 545,00 79,50 0,00 30/06/2014
206 389500 DANIEL FERREIRA BERNARDES ESTAGIARIO ATIVO CATAGUASES; CATAGUASES-04 PJ 545,00 0,00 0,00 0,00 0,00 0,00 545,00 0,00 0,00 0,00 0,00 545,00 106,00 0,00 30/06/2014
207 379900 DANIEL JOSE SIQUEIRA MARQUES ESTAGIARIO ATIVO BELO HORIZONTE; CENTRO DE ESTUDOS E APERFEICOAMENTO FUNCIONAL 817,50 0,00 0,00 0,00 0,00 0,00 817,50 0,00 0,00 0,00 0,00 817,50 53,00 0,00 30/06/2014
208 415800 DANIEL SA FREIRE ESTAGIARIO ATIVO SANTOS DUMONT; SANTOS DUMONT-02 PJ 545,00 0,00 0,00 0,00 0,00 0,00 545,00 0,00 0,00 0,00 0,00 545,00 111,30 0,00 30/06/2014
209 374600 DANIELA BICALHO GODOY ESTAGIARIO ATIVO BELO HORIZONTE; COORD DE INCLUSAO E MOBILIZACAO SOCIAIS 545,00 0,00 0,00 0,00 0,00 0,00 545,00 0,00 0,00 0,00 0,00 545,00 84,80 0,00 30/06/2014
210 371200 DANIELA GAIO BESE ESTAGIARIO ATIVO DIVINOPOLIS; DIVINOPOLIS-08 PJ 545,00 0,00 0,00 0,00 0,00 0,00 545,00 0,00 0,00 0,00 0,00 545,00 111,30 0,00 30/06/2014
211 345000 DANIELA GOMES FONSECA ESTAGIARIO ATIVO BELO HORIZONTE; EXTINTA-COORD DEF MEIO AMB-BACIA RIO SAO FRAN 545,00 0,00 0,00 0,00 0,00 0,00 545,00 0,00 0,00 0,00 0,00 545,00 111,30 0,00 30/06/2014
212 333900 DANIELA NOGUEIRA GODOY ESTAGIARIO ATIVO SETE LAGOAS; SETE LAGOAS-09 PJ 545,00 0,00 0,00 0,00 0,00 0,00 545,00 0,00 0,00 0,00 0,00 545,00 111,30 0,00 30/06/2014
213 296000 DANIELE CERCEAU AVELINO ESTAGIARIO ATIVO BELO HORIZONTE; CAO-CRIMINAL-GABINETES 545,00 0,00 0,00 0,00 0,00 0,00 545,00 0,00 0,00 0,00 0,00 545,00 79,50 0,00 30/06/2014
214 350300 DANIELE SOARES E SILVA ESTAGIARIO ATIVO VARZEA DA PALMA; VARZEA DA PALMA-01 PJ 545,00 0,00 0,00 0,00 0,00 0,00 545,00 0,00 0,00 0,00 0,00 545,00 111,30 0,00 30/06/2014
215 345100 DANIELLA MORAES ZAMBONI ESTAGIARIO ATIVO ALEM PARAIBA; ALEM PARAIBA-02 PJ 545,00 0,00 0,00 0,00 0,00 0,00 545,00 0,00 0,00 0,00 0,00 545,00 111,30 0,00 30/06/2014
216 361600 DANIELLA PEREIRA DE ALMEIDA ESTAGIARIO ATIVO BARBACENA; BARBACENA-02 PJ 545,00 0,00 0,00 0,00 0,00 0,00 545,00 0,00 0,00 0,00 0,00 545,00 84,80 0,00 30/06/2014
217 325400 DANIELLA ROSA DE SOUZA ESTAGIARIO ATIVO BELO HORIZONTE; PROC. JUSTICA DIR. DIFUSOS E COLETIVOS 417,83 0,00 0,00 0,00 0,00 0,00 417,83 0,00 0,00 0,00 0,00 417,83 21,20 0,00 30/06/2014
218 282900 DANIELLE DE ASSIS SILVA ESTAGIARIO ATIVO BARBACENA; BARBACENA-04 PJ 545,00 0,00 0,00 0,00 0,00 0,00 545,00 0,00 0,00 0,00 0,00 545,00 111,30 0,00 30/06/2014
219 350400 DANIELLE DE FARIAS REGO OLIVEIRA ESTAGIARIO ATIVO JUIZ DE FORA; JUIZ DE FORA-20 PJ 545,00 0,00 0,00 0,00 0,00 0,00 545,00 0,00 0,00 0,00 0,00 545,00 84,80 0,00 30/06/2014
220 361700 DANUSA VIANA DIAS ESTAGIARIO ATIVO RIBEIRAO DAS NEVES; RIBEIRAO DAS NEVES-04 PJ 545,00 0,00 0,00 0,00 0,00 0,00 545,00 0,00 0,00 0,00 0,00 545,00 111,30 0,00 30/06/2014
221 24 DARCI APARECIDA VIEIRA 2O. SARGENTO ATIVO BELO HORIZONTE - COMARCA; GAECO - SECRETARIA 1.674,87 0,00 0,00 0,00 0,00 0,00 1.674,87 0,00 0,00 0,00 0,00 1.674,87 685,50 0,00 30/06/2014
222 2 DARIO VITORINO DE CARVALHO SILVA TENENTE CORONEL ATIVO BELO HORIZONTE - COMARCA; GABINETE DE SEGURANCA E INTELIGENCIA 3.842,96 0,00 0,00 0,00 0,00 0,00 3.842,96 0,00 261,71 0,00 261,71 3.581,25 685,50 0,00 30/06/2014
223 296100 DAVI NOMINATO DALLA BERNARDINA ESTAGIARIO ATIVO GOVERNADOR VALADARES; GOVERNADOR VALADARES-11 PJ 545,00 0,00 0,00 0,00 0,00 0,00 545,00 0,00 0,00 0,00 0,00 545,00 106,00 0,00 30/06/2014
224 399100 DAVI VIEIRA DE SENA ESTAGIARIO ATIVO BELO HORIZONTE; JUIZO CRIMINAL-12 PJ 545,00 0,00 0,00 0,00 0,00 0,00 545,00 0,00 0,00 0,00 0,00 545,00 111,30 0,00 30/06/2014
225 365700 DAYANE ALVES DA SILVA ESTAGIARIO ATIVO CALDAS; CALDAS - PJ ÚNICA 545,00 0,00 0,00 0,00 0,00 0,00 545,00 0,00 0,00 0,00 0,00 545,00 111,30 0,00 30/06/2014
226 393600 DAYANE SILVA COUTO ESTAGIARIO ATIVO UNAI; UNAI-02 PJ 545,00 0,00 0,00 0,00 0,00 0,00 545,00 0,00 0,00 0,00 0,00 545,00 106,00 0,00 30/06/2014
227 365800 DAYSE GRACIELLE SOARES ARAUJO DE FIGUEIREDO ESTAGIARIO ATIVO BELO HORIZONTE; JUIZO DE FAMILIA-02 PJ 545,00 0,00 0,00 0,00 0,00 0,00 545,00 0,00 0,00 0,00 0,00 545,00 111,30 0,00 30/06/2014
228 365900 DEBORA CAROLINE FERREIRA ESTAGIARIO ATIVO NOVA LIMA; NOVA LIMA-04 PJ 545,00 0,00 0,00 0,00 0,00 0,00 545,00 0,00 0,00 0,00 0,00 545,00 111,30 0,00 30/06/2014
229 302000 DEBORA FERREIRA ESTAGIARIO ATIVO PARA DE MINAS; PARA DE MINAS-02 PJ 545,00 0,00 0,00 0,00 0,00 0,00 545,00 0,00 0,00 0,00 0,00 545,00 111,30 0,00 30/06/2014
230 389600 DEBORA LOPES DE MORAIS ESTAGIARIO ATIVO BELO HORIZONTE; 18 PJ DEF DIR HUM AP COM CONF AG E FISC POL 545,00 0,00 0,00 0,00 0,00 0,00 545,00 0,00 0,00 0,00 0,00 545,00 111,30 0,00 30/06/2014
231 393700 DEBORA MARIA ASSUMPCAO ESTAGIARIO ATIVO MANHUMIRIM; MANHUMIRIM-01 PJ 545,00 0,00 0,00 0,00 0,00 0,00 545,00 0,00 0,00 0,00 0,00 545,00 111,30 0,00 30/06/2014
232 409400 DEBORA VICTOR ANDRADE ESTAGIARIO ATIVO PEDRO LEOPOLDO; PEDRO LEOPOLDO-02 PJ 545,00 0,00 0,00 0,00 0,00 0,00 545,00 0,00 0,00 0,00 0,00 545,00 111,30 0,00 30/06/2014
233 393800 DEBORAH CELYMARY FREITAS RAMOS ESTAGIARIO ATIVO GOVERNADOR VALADARES; GOVERNADOR VALADARES-01 PJ 545,00 0,00 0,00 0,00 0,00 0,00 545,00 0,00 0,00 0,00 0,00 545,00 106,00 0,00 30/06/2014
234 418000 DEBORAH SILVA CHAGAS ESTAGIARIO ATIVO UBERABA; UBERABA-14 PJ 545,00 0,00 0,00 0,00 0,00 0,00 545,00 0,00 0,00 0,00 0,00 545,00 95,40 0,00 30/06/2014
235 325500 DELVIRIA DAS DORES PERERIA OLIVEIRA ESTAGIARIO ATIVO CONTAGEM; CONTAGEM-09 PJ 545,00 0,00 0,00 0,00 0,00 0,00 545,00 0,00 0,00 0,00 0,00 545,00 111,30 0,00 30/06/2014
236 65 DENILSON DOS REIS GOMES DELEGADO DE POLICIA 1 ATIVO BELO HORIZONTE - COMARCA; CAO-ORDEM ECONOMICA E TRIBUTARIA 4.686,46 0,00 0,00 0,00 0,00 0,00 4.686,46 0,00 462,63 0,00 462,63 4.223,83 685,50 0,00 30/06/2014
237 39 DENILSON GONCALVES DE ASSIS INVESTIGADOR DE POLICIA 2 ATIVO BELO HORIZONTE - COMARCA; GAECO - SECRETARIA 1.918,66 0,00 0,00 0,00 0,00 0,00 1.918,66 0,00 9,82 0,00 9,82 1.908,84 685,50 0,00 30/06/2014
238 404600 DIANA STEHLING DA SILVEIRA SANTOS ESTAGIARIO ATIVO Informação não disponível 545,00 0,00 0,00 0,00 0,00 0,00 545,00 0,00 0,00 0,00 0,00 545,00 111,30 0,00 30/06/2014
239 302200 DIEGO DE FARIA BRAGA CHAGAS ESTAGIARIO ATIVO PITANGUI; PITANGUI-02 PJ 545,00 0,00 0,00 0,00 0,00 0,00 545,00 0,00 0,00 0,00 0,00 545,00 106,00 0,00 30/06/2014
240 334000 DIEGO LOURENCO ORLANDI DE MELO ESTAGIARIO ATIVO SABARA; SABARA-01 PJ 545,00 0,00 0,00 0,00 0,00 0,00 545,00 0,00 0,00 0,00 0,00 545,00 111,30 0,00 30/06/2014
241 380100 DIEGO LOURES DE OLIVEIRA ESTAGIARIO ATIVO BELO HORIZONTE 817,50 0,00 0,00 0,00 0,00 0,00 817,50 0,00 0,00 0,00 0,00 817,50 111,30 0,00 30/06/2014
242 272000 DIEGO NATANEL LOPES ESTAGIARIO ATIVO NEPOMUCENO; NEPOMUCENO - PJ ÚNICA 545,00 0,00 0,00 0,00 0,00 0,00 545,00 0,00 0,00 0,00 0,00 545,00 111,30 0,00 30/06/2014
243 325600 DIOGENES ARAUJO INACIO ESTAGIARIO ATIVO BELO HORIZONTE; JUIZADO ESPECIAL CÍVEL E CRIMINAL - 08ª PJ 545,00 0,00 0,00 0,00 0,00 0,00 545,00 0,00 0,00 0,00 0,00 545,00 111,30 0,00 30/06/2014
244 393900 DIOGENES SANGI LOMBA ALMEIDA ESTAGIARIO ATIVO LAJINHA; LAJINHA - PJ ÚNICA 545,00 0,00 0,00 0,00 0,00 0,00 545,00 0,00 0,00 0,00 0,00 545,00 212,00 545,00 30/06/2014
245 374700 DIOGO DOS SANTOS MARTINS ESTAGIARIO ATIVO GUAXUPE; GUAXUPE-03 PJ 545,00 0,00 0,00 0,00 0,00 0,00 545,00 0,00 0,00 0,00 0,00 545,00 212,00 545,00 30/06/2014
246 312200 DIONATAN ARLEM DE MORAIS ESTAGIARIO ATIVO MATEUS LEME; MATEUS LEME-02 PJ 545,00 0,00 0,00 0,00 0,00 0,00 545,00 0,00 0,00 0,00 0,00 545,00 111,30 0,00 30/06/2014
247 380300 DOUGLAS AUGUSTO FERREIRA ARAUJO ESTAGIARIO ATIVO BELO HORIZONTE; SUPERINTENDENCIA DE TECNOLOGIA DA INFORMACAO 817,50 0,00 0,00 0,00 0,00 0,00 817,50 0,00 0,00 0,00 0,00 817,50 111,30 0,00 30/06/2014
248 409500 DUILIO SILVA SANTANA DE ARAUJO ESTAGIARIO ATIVO Informação não disponível 327,00 0,00 0,00 0,00 0,00 0,00 327,00 0,00 0,00 0,00 0,00 327,00 47,70 0,00 30/06/2014
249 294400 DYHESSICA CRISTINA VIEIRA VINHAL ESTAGIARIO ATIVO PRESIDENTE OLEGARIO; PRESIDENTE OLEGARIO - PJ ÚNICA 545,00 0,00 0,00 0,00 0,00 0,00 545,00 0,00 0,00 0,00 0,00 545,00 84,80 0,00 30/06/2014
250 3 EDILSON SOARES DE MELO SUB TENENTE ATIVO BELO HORIZONTE - COMARCA; GAECO - SECRETARIA 2.152,80 0,00 0,00 0,00 0,00 0,00 2.152,80 0,00 27,38 0,00 27,38 2.125,42 685,50 0,00 30/06/2014
251 399200 EDIMEIA APARECIDA DE OLIVEIRA NERI ESTAGIARIO ATIVO SETE LAGOAS; SETE LAGOAS-08 PJ 545,00 0,00 0,00 0,00 0,00 0,00 545,00 0,00 0,00 0,00 0,00 545,00 111,30 0,00 30/06/2014
252 269900 EDMILSON DIAS DA SILVA ESTAGIARIO ATIVO RIO VERMELHO; RIO VERMELHO - PJ ÚNICA 545,00 0,00 0,00 0,00 0,00 0,00 545,00 0,00 0,00 0,00 0,00 545,00 111,30 545,00 30/06/2014
253 366100 EDSOM CARLOS DE SOUZA ESTAGIARIO ATIVO ANDRADAS; ANDRADAS-02 PJ 545,00 0,00 0,00 0,00 0,00 0,00 545,00 0,00 0,00 0,00 0,00 545,00 111,30 0,00 30/06/2014
254 361900 EDSON BIANCHI JUNIOR ESTAGIARIO ATIVO PATROCINIO; PATROCINIO-04 PJ 545,00 0,00 0,00 0,00 0,00 0,00 545,00 0,00 0,00 0,00 0,00 545,00 111,30 0,00 30/06/2014
255 394000 EDSON LUIZ IZOLAN ESTAGIARIO ATIVO UNAI; UNAI-03 PJ 545,00 0,00 0,00 0,00 0,00 0,00 545,00 0,00 0,00 0,00 0,00 545,00 106,00 0,00 30/06/2014
256 289300 EDUARDA SILVEIRA TEIXEIRA ESTAGIARIO ATIVO OLIVEIRA; OLIVEIRA-01 PJ 545,00 0,00 0,00 0,00 0,00 0,00 545,00 0,00 0,00 0,00 0,00 545,00 111,30 0,00 30/06/2014
257 289400 EDUARDO ANTONIO PRADO ESTAGIARIO ATIVO TRES CORACOES; TRES CORACOES-04 PJ 545,00 0,00 0,00 0,00 0,00 0,00 545,00 0,00 0,00 0,00 0,00 545,00 111,30 0,00 30/06/2014
258 420700 EDUARDO DE SOUZA LUI ESTAGIARIO ATIVO BELO HORIZONTE; JUIZO CRIMINAL-12 PJ 545,00 0,00 0,00 0,00 0,00 0,00 545,00 0,00 0,00 0,00 0,00 545,00 47,70 0,00 30/06/2014
259 331900 EDUARDO SOARES CAROLINO ESTAGIARIO ATIVO ITURAMA; ITURAMA-02 PJ 545,00 0,00 0,00 0,00 0,00 0,00 545,00 0,00 0,00 0,00 0,00 545,00 106,00 0,00 30/06/2014
260 380400 ELAYNE APARECIDA COSTA ALMEIDA ESTAGIARIO ATIVO Informação não disponível 817,50 0,00 0,00 0,00 0,00 0,00 817,50 0,00 0,00 0,00 0,00 817,50 111,30 0,00 30/06/2014
261 409600 ELDEANE CRISTINA GUERRA SILVA ESTAGIARIO ATIVO GUANHAES; GUANHAES-02 PJ 545,00 0,00 0,00 0,00 0,00 0,00 545,00 0,00 0,00 0,00 0,00 545,00 111,30 0,00 30/06/2014
262 41 ELI CESAR DE OLIVEIRA AGENTE DE POLICIA ATIVO BELO HORIZONTE - COMARCA; GAECO - SECRETARIA 1.918,67 0,00 0,00 0,00 0,00 0,00 1.918,67 0,00 9,82 0,00 9,82 1.908,85 685,50 0,00 30/06/2014
263 345200 ELISA ALVES CORREA DE ABREU ESTAGIARIO ATIVO OURO PRETO; OURO PRETO-01 PJ 472,33 0,00 0,00 0,00 0,00 0,00 472,33 0,00 0,00 0,00 0,00 472,33 37,10 0,00 30/06/2014
264 366200 ELISA BORGES DE JESUS ESTAGIARIO ATIVO BETIM; BETIM-02 PJ 545,00 0,00 0,00 0,00 0,00 0,00 545,00 0,00 0,00 0,00 0,00 545,00 111,30 0,00 30/06/2014
265 357300 ELISA MATA MACHADO DE ALKIMIM BREDT ESTAGIARIO ATIVO BELO HORIZONTE; JUIZO DE FAMILIA-02 PJ 545,00 0,00 0,00 0,00 0,00 0,00 545,00 0,00 0,00 0,00 0,00 545,00 111,30 0,00 30/06/2014
266 334100 ELISAMA MARTINS GARCIA ESTAGIARIO ATIVO UBERABA; UBERABA-02 PJ 545,00 0,00 0,00 0,00 0,00 0,00 545,00 0,00 0,00 0,00 0,00 545,00 111,30 0,00 30/06/2014
267 380500 ELMITA XISTO DO VALLE ESTAGIARIO ATIVO BELO HORIZONTE; CENTRO DE ESTUDOS E APERFEICOAMENTO FUNCIONAL 817,50 0,00 0,00 0,00 0,00 0,00 817,50 0,00 0,00 0,00 0,00 817,50 111,30 0,00 30/06/2014
268 420900 ELOSA VIEIRA LOPES ESTAGIARIO ATIVO GOVERNADOR VALADARES; GOVERNADOR VALADARES-02 PJ 272,50 0,00 0,00 0,00 0,00 0,00 272,50 0,00 0,00 0,00 0,00 272,50 47,70 0,00 30/06/2014
269 91 ELVIS SOUZA DA SILVA 3O.SARGENTO ATIVO BELO HORIZONTE - COMARCA; GAECO - SECRETARIA 1.477,90 0,00 0,00 0,00 0,00 0,00 1.477,90 0,00 0,00 0,00 0,00 1.477,90 685,50 0,00 30/06/2014
270 362000 EMANUELE MEIGA MAIA ESTAGIARIO ATIVO CONTAGEM; CONTAGEM-15 PJ 545,00 0,00 0,00 0,00 0,00 0,00 545,00 0,00 0,00 0,00 0,00 545,00 111,30 0,00 30/06/2014
271 289600 EMILIA BORGES DE SA ESTAGIARIO ATIVO LUZ; LUZ - PJ ÚNICA 545,00 0,00 0,00 0,00 0,00 0,00 545,00 0,00 0,00 0,00 0,00 545,00 111,30 0,00 30/06/2014
272 374800 EMILIA GONCALVES MARTINS CUNHA ESTAGIARIO ATIVO PARA DE MINAS; PARA DE MINAS-05 PJ 545,00 0,00 0,00 0,00 0,00 0,00 545,00 0,00 0,00 0,00 0,00 545,00 111,30 0,00 30/06/2014
273 415900 ENEAS MOURA PACHECO JUNIOR ESTAGIARIO ATIVO CURVELO; CURVELO-01 PJ 545,00 0,00 0,00 0,00 0,00 0,00 545,00 0,00 0,00 0,00 0,00 545,00 159,00 272,50 30/06/2014
274 380600 ENEDINA JENUSIA PRATES DE SOUZA ESTAGIARIO ATIVO BELO HORIZONTE; SUPERINTENDENCIA DE COMUNICACAO INTEGRADA 817,50 0,00 0,00 0,00 0,00 0,00 817,50 0,00 0,00 0,00 0,00 817,50 111,30 0,00 30/06/2014
275 357400 ERICA APARECIDA ROSA ESTAGIARIO ATIVO BRUMADINHO; BRUMADINHO-01 PJ 545,00 0,00 0,00 0,00 0,00 0,00 545,00 0,00 0,00 0,00 0,00 545,00 111,30 0,00 30/06/2014
276 409700 ERICA MARIA MATOS SBRALETTA ESTAGIARIO ATIVO BELO HORIZONTE; OUVIDORIA DO MPMG 817,50 0,00 0,00 0,00 0,00 0,00 817,50 0,00 0,00 0,00 0,00 817,50 106,00 0,00 30/06/2014
277 404700 ERIKA CONCEICAO DE SOUZA MELO ESTAGIARIO ATIVO CAETE; CAETE-01 PJ 545,00 0,00 0,00 0,00 0,00 0,00 545,00 0,00 0,00 0,00 0,00 545,00 0,00 0,00 30/06/2014
278 334300 ERIKA MOURA E SILVA ESTAGIARIO ATIVO ITUIUTABA; ITUIUTABA-01 PJ 545,00 0,00 0,00 0,00 0,00 0,00 545,00 0,00 0,00 0,00 0,00 545,00 111,30 0,00 30/06/2014
279 404800 EROS SERIO BRAGA DE MATTOS ESTAGIARIO ATIVO Informação não disponível 545,00 0,00 0,00 0,00 0,00 0,00 545,00 0,00 0,00 0,00 0,00 545,00 111,30 0,00 30/06/2014
280 302400 ESTEVAN SIMOES PASSERI DA SILVA ESTAGIARIO ATIVO SAO LOURENCO; SAO LOURENCO-03 PJ 545,00 0,00 0,00 0,00 0,00 0,00 545,00 0,00 0,00 0,00 0,00 545,00 111,30 0,00 30/06/2014
281 20 EVANDRO GERALDO FERREIRA BORGES MAJOR ATIVO BELO HORIZONTE - COMARCA; COORD DE PLANEJAMENTO INSTITUCIONAL 3.842,96 0,00 0,00 0,00 0,00 0,00 3.842,96 0,00 261,71 0,00 261,71 3.581,25 685,50 0,00 30/06/2014
282 380800 EVERSON GUIMARAES PEREIRA ESTAGIARIO ATIVO BELO HORIZONTE; JUIZO DE FAMILIA-02 PJ 817,50 0,00 0,00 0,00 0,00 0,00 817,50 0,00 0,00 0,00 0,00 817,50 111,30 0,00 30/06/2014
283 283400 FABIANA DAS GRACAS DE CASTRO ESTAGIARIO ATIVO PATROCINIO; PATROCINIO-04 PJ 545,00 0,00 0,00 0,00 0,00 0,00 545,00 0,00 0,00 0,00 0,00 545,00 111,30 0,00 30/06/2014
284 302500 FABIANA DE CASSIA CARLIN ESTAGIARIO ATIVO BELO HORIZONTE; GABINETE DOS PROCURADORES 545,00 0,00 0,00 0,00 0,00 0,00 545,00 0,00 0,00 0,00 0,00 545,00 84,80 0,00 30/06/2014
285 374900 FABIANA LOPES DE JESUS ESTAGIARIO ATIVO CONTAGEM; CONTAGEM-10 PJ 545,00 0,00 0,00 0,00 0,00 0,00 545,00 0,00 0,00 0,00 0,00 545,00 111,30 0,00 30/06/2014
286 302600 FABIANA MARA DE ALMEIDA ASSUNCAO ESTAGIARIO ATIVO CONGONHAS; CONGONHAS-02 PJ 545,00 0,00 0,00 0,00 0,00 0,00 545,00 0,00 0,00 0,00 0,00 545,00 111,30 0,00 30/06/2014
287 302800 FABIO ALVES DE SOUZA ESTAGIARIO ATIVO Informação não disponível 545,00 0,00 0,00 0,00 0,00 0,00 545,00 0,00 0,00 0,00 0,00 545,00 111,30 0,00 30/06/2014
288 371300 FABIO BRANDAO DE AQUINO ESTAGIARIO ATIVO BELO HORIZONTE; JUIZO CRIMINAL-12 PJ 545,00 0,00 0,00 0,00 0,00 0,00 545,00 0,00 0,00 0,00 0,00 545,00 111,30 0,00 30/06/2014
289 296500 FABIO DIAS QUEIROZ ZAVITOSKI ESTAGIARIO ATIVO UBERLANDIA; UBERLANDIA-01 PJ 545,00 0,00 0,00 0,00 0,00 0,00 545,00 0,00 0,00 0,00 0,00 545,00 111,30 0,00 30/06/2014
290 312300 FABIO FONSECA DO VALE ESTAGIARIO ATIVO BELO HORIZONTE; 03ª PJ - JUÍZO EMPRESARIAL 545,00 0,00 0,00 0,00 0,00 0,00 545,00 0,00 0,00 0,00 0,00 545,00 21,20 0,00 30/06/2014
291 325900 FABRICIO FERREIRA COSTA ESTAGIARIO ATIVO BELO HORIZONTE; PROCON-MG-GAB DO COORDENADOR DO PROCON-MG 545,00 0,00 0,00 0,00 0,00 0,00 545,00 0,00 0,00 0,00 0,00 545,00 111,30 0,00 30/06/2014
292 339300 FABRICIO FERREIRA DA COSTA ESTAGIARIO ATIVO BARBACENA; BARBACENA- 09 PJ 545,00 0,00 0,00 0,00 0,00 0,00 545,00 0,00 0,00 0,00 0,00 545,00 111,30 0,00 30/06/2014
293 100 FACEBER MENEZES ALVES SUB TENENTE ATIVO BELO HORIZONTE - COMARCA; NUCLEO DE OPERACOES DE SEGURANCA ORGANICA 2.152,80 0,00 0,00 0,00 0,00 0,00 2.152,80 0,00 27,38 0,00 27,38 2.125,42 685,50 0,00 30/06/2014
294 345300 FARLEY AUGUSTO LOPO OLIVEIRA ESTAGIARIO ATIVO MONTES CLAROS; MONTES CLAROS-12 PJ 545,00 0,00 0,00 0,00 0,00 0,00 545,00 0,00 0,00 0,00 0,00 545,00 111,30 0,00 30/06/2014
295 253700 FELIPE ALEXANDRE DA SILVEIRA BARBOSA ESTAGIARIO ATIVO LAVRAS; LAVRAS-01 PJ 545,00 0,00 0,00 0,00 0,00 0,00 545,00 0,00 0,00 0,00 0,00 545,00 111,30 0,00 30/06/2014
296 318200 FELIPE BARBOSA FERREIRA ESTAGIARIO ATIVO PATOS DE MINAS; PATOS DE MINAS-06 PJ 545,00 0,00 0,00 0,00 0,00 0,00 545,00 0,00 0,00 0,00 0,00 545,00 111,30 0,00 30/06/2014
297 345400 FELIPE CARDOSO DE MENEZES SOUTO ESTAGIARIO ATIVO BELO HORIZONTE; JUIZO CRIMINAL-12 PJ 545,00 0,00 0,00 0,00 0,00 0,00 545,00 0,00 0,00 0,00 0,00 545,00 111,30 0,00 30/06/2014
298 375000 FELIPE DUTRA QUEIROZ ESTAGIARIO ATIVO UBERABA; UBERABA - 06ª PJ 545,00 0,00 0,00 0,00 0,00 0,00 545,00 0,00 0,00 0,00 0,00 545,00 106,00 0,00 30/06/2014
299 326000 FELIPE FERRERIA FERRAZ ESTAGIARIO ATIVO TEOFILO OTONI; TEOFILO OTONI-07 PJ 545,00 0,00 0,00 0,00 0,00 0,00 545,00 0,00 0,00 0,00 0,00 545,00 68,90 0,00 30/06/2014
300 421000 FELIPE SOARES DOS SANTOS ESTAGIARIO ATIVO BELO HORIZONTE; PROC. JUSTICA DE HABEAS CORPUS 272,50 0,00 0,00 0,00 0,00 0,00 272,50 0,00 0,00 0,00 0,00 272,50 47,70 0,00 30/06/2014
301 345500 FELIPE VAZ DE MELO E SILVA ESTAGIARIO ATIVO BELO HORIZONTE; JUIZADO ESPECIAL CÍVEL E CRIMINAL - 08ª PJ 545,00 0,00 0,00 0,00 0,00 0,00 545,00 0,00 0,00 0,00 0,00 545,00 111,30 0,00 30/06/2014
302 357500 FERNANDA ANTUNES RODRIGUES ESTAGIARIO ATIVO BELO HORIZONTE; FAZENDA PUBLICA E EXECUCOES FISCAIS-01 PJ 545,00 0,00 0,00 0,00 0,00 0,00 545,00 0,00 0,00 0,00 0,00 545,00 111,30 0,00 30/06/2014
303 427600 FERNANDA APARECIDA CORGOZINHO ESTAGIARIO ATIVO MARTINHO CAMPOS; MARTINHO CAMPOS - PJ ÚNICA 545,00 0,00 0,00 0,00 0,00 0,00 545,00 0,00 0,00 0,00 0,00 545,00 111,30 0,00 30/06/2014
304 283500 FERNANDA APARECIDA MAIA CAMPOS ESTAGIARIO ATIVO PEDRO LEOPOLDO; PEDRO LEOPOLDO-01 PJ 545,00 0,00 0,00 0,00 0,00 0,00 545,00 0,00 0,00 0,00 0,00 545,00 111,30 0,00 30/06/2014
305 380900 FERNANDA CAROLINA DOS SANTOS FARIA ESTAGIARIO ATIVO BELO HORIZONTE; SUPERINTENDENCIA DE COMUNICACAO INTEGRADA 272,50 0,00 0,00 0,00 0,00 0,00 272,50 0,00 0,00 0,00 0,00 272,50 42,40 0,00 30/06/2014
306 375100 FERNANDA CRISTINA CORTEZ ESTAGIARIO ATIVO FRUTAL; FRUTAL-01 PJ 545,00 0,00 0,00 0,00 0,00 0,00 545,00 0,00 0,00 0,00 0,00 545,00 111,30 0,00 30/06/2014
307 312600 FERNANDA CRISTINA FROES SILVEIRA ESTAGIARIO ATIVO BELO HORIZONTE; JUIZADO ESPECIAL CÍVEL E CRIMINAL - 08ª PJ 545,00 0,00 0,00 0,00 0,00 0,00 545,00 0,00 0,00 0,00 0,00 545,00 68,90 0,00 30/06/2014
308 306800 FERNANDA CRISTINA PAGLIARINI TIBURZIO ESTAGIARIO ATIVO POUSO ALEGRE; POUSO ALEGRE-03 PJ 545,00 0,00 0,00 0,00 0,00 0,00 545,00 0,00 0,00 0,00 0,00 545,00 111,30 0,00 30/06/2014
309 375200 FERNANDA GOMES LOPES TERRA ESTAGIARIO ATIVO BELO HORIZONTE; GABINETE DOS PROCURADORES 545,00 0,00 0,00 0,00 0,00 0,00 545,00 0,00 0,00 0,00 0,00 545,00 111,30 0,00 30/06/2014
310 371400 FERNANDA MARQUES DE SOUZA ESTAGIARIO ATIVO OURO FINO; OURO FINO-02 PJ 545,00 0,00 0,00 0,00 0,00 0,00 545,00 0,00 0,00 0,00 0,00 545,00 111,30 0,00 30/06/2014
311 404900 FERNANDA NUNES CASTRO ESTAGIARIO ATIVO BELO HORIZONTE; TOXICOS-13 PJ 545,00 0,00 0,00 0,00 0,00 0,00 545,00 0,00 0,00 0,00 0,00 545,00 111,30 0,00 30/06/2014
312 350700 FERNANDA OLIVEIRA LAUDARES ESTAGIARIO ATIVO BELO HORIZONTE; JUIZO CRIMINAL-12 PJ 545,00 0,00 0,00 0,00 0,00 0,00 545,00 0,00 0,00 0,00 0,00 545,00 111,30 0,00 30/06/2014
313 320000 FERNANDA RIBEIRO NOGUEIRA DE OLIVEIRA ESTAGIARIO ATIVO ITUIUTABA; ITUIUTABA-03 PJ 545,00 0,00 0,00 0,00 0,00 0,00 545,00 0,00 0,00 0,00 0,00 545,00 100,70 0,00 30/06/2014
314 357600 FERNANDA RIBEIRO PAPANDREA ESTAGIARIO ATIVO JUIZ DE FORA; JUIZ DE FORA-18 PJ 545,00 0,00 0,00 0,00 0,00 0,00 545,00 0,00 0,00 0,00 0,00 545,00 106,00 0,00 30/06/2014
315 375300 FERNANDA ROCHA RODRIGUES ESTAGIARIO ATIVO VICOSA; VICOSA-01 PJ 545,00 0,00 0,00 0,00 0,00 0,00 545,00 0,00 0,00 0,00 0,00 545,00 111,30 0,00 30/06/2014
316 278600 FERNANDA SABRINA SIQUEIRA CAMPOS ESTAGIARIO ATIVO CONTAGEM; CONTAGEM-01 PJ 817,50 0,00 0,00 0,00 0,00 0,00 817,50 0,00 0,00 0,00 0,00 817,50 111,30 0,00 30/06/2014
317 381000 FERNANDA SANTANA DE CAMPOS MATTAR ESTAGIARIO ATIVO BELO HORIZONTE; CENTRAL DE APOIO TECNICO-SETOR DE ENGENHARIA 817,50 0,00 0,00 0,00 0,00 0,00 817,50 0,00 0,00 0,00 0,00 817,50 95,40 0,00 30/06/2014
318 405000 FERNANDA SANTANA DE SOUZA ESTAGIARIO ATIVO BELO HORIZONTE; 18 PJ DEF DIR HUM AP COM CONF AG E FISC POL 545,00 0,00 0,00 0,00 0,00 0,00 545,00 0,00 0,00 0,00 0,00 545,00 111,30 0,00 30/06/2014
319 405100 FERNANDA SILVA OLIVEIRA ESTAGIARIO ATIVO TEOFILO OTONI; TEOFILO OTONI-08 PJ 545,00 0,00 0,00 0,00 0,00 0,00 545,00 0,00 0,00 0,00 0,00 545,00 111,30 0,00 30/06/2014
320 272400 FERNANDO DELFINO DA SILVA NETO ESTAGIARIO ATIVO BELO HORIZONTE; TRIBUNAL DO JURI-07 PJ 545,00 0,00 0,00 0,00 0,00 0,00 545,00 0,00 0,00 0,00 0,00 545,00 111,30 0,00 30/06/2014
321 389700 FERNANDO HENRIQUE RIBEIRO ESTAGIARIO ATIVO ITAUNA; ITAUNA-01 PJ 545,00 0,00 0,00 0,00 0,00 0,00 545,00 0,00 0,00 0,00 0,00 545,00 111,30 0,00 30/06/2014
322 394200 FILIPE FERREIRA GUEDES ESTAGIARIO ATIVO MONTES CLAROS; EXTINTA-COORD DEF MEIO AMB-BACIA DO RIO VERDE 545,00 0,00 0,00 0,00 0,00 0,00 545,00 0,00 0,00 0,00 0,00 545,00 84,80 0,00 30/06/2014
323 413200 FILLIPE COSTA MIRANDA ESTAGIARIO ATIVO GOVERNADOR VALADARES; GOVERNADOR VALADARES-08 PJ 545,00 0,00 0,00 0,00 0,00 0,00 545,00 0,00 0,00 0,00 0,00 545,00 106,00 0,00 30/06/2014
324 272500 FLAVIA DIAS DUARTE E SILVA ESTAGIARIO ATIVO BELO HORIZONTE; PATRIMONIO PUBLICO-17 PJ 399,67 0,00 0,00 0,00 0,00 0,00 399,67 0,00 0,00 0,00 0,00 399,67 84,80 0,00 30/06/2014
325 389800 FLAVIA FERREIRA FREITAS FERNANDES ESTAGIARIO ATIVO INHAPIM; INHAPIM-01 PJ 545,00 0,00 0,00 0,00 0,00 0,00 545,00 0,00 0,00 0,00 0,00 545,00 111,30 0,00 30/06/2014
326 339400 FLAVIA GONCALVES MARTINS ALVES ESTAGIARIO ATIVO Informação não disponível 490,50 0,00 0,00 0,00 0,00 0,00 490,50 0,00 0,00 0,00 0,00 490,50 90,10 0,00 30/06/2014
327 416000 FLAVIA LACERDA NUNES FREITAS ESTAGIARIO ATIVO CONCEICAO DAS ALAGOAS; CONCEICAO DAS ALAGOAS - 01ª PJ 545,00 0,00 0,00 0,00 0,00 0,00 545,00 0,00 0,00 0,00 0,00 545,00 111,30 0,00 30/06/2014
328 413300 FLAVIA RODRIGUES TAVARES ESTAGIARIO ATIVO POCOS DE CALDAS; POCOS DE CALDAS-04 PJ 545,00 0,00 0,00 0,00 0,00 0,00 545,00 0,00 0,00 0,00 0,00 545,00 111,30 0,00 30/06/2014
329 362200 FLAVIA SILVERIO SILVA ESTAGIARIO ATIVO ALPINOPOLIS; ALPINOPOLIS - PJ ÚNICA 545,00 0,00 0,00 0,00 0,00 0,00 545,00 0,00 0,00 0,00 0,00 545,00 111,30 0,00 30/06/2014
330 82 FLAVIANE LENIMAR VIEIRA BRANDAO SILVA CABO ATIVO BELO HORIZONTE - COMARCA; COORD ESTADUAL COMBATE CRIMES CIBERNETICOS 1.280,94 0,00 0,00 0,00 0,00 0,00 1.280,94 0,00 0,00 0,00 0,00 1.280,94 685,50 0,00 30/06/2014
331 381200 FLAVIO PEIXOTO DE ALMEIDA ESTAGIARIO ATIVO BELO HORIZONTE; DIRETORIA DE SUPORTE E MANUTENCAO 817,50 0,00 0,00 0,00 0,00 0,00 817,50 0,00 0,00 0,00 0,00 817,50 111,30 0,00 30/06/2014
332 375400 FLAVIO VALADARES MOREIRA ESTAGIARIO ATIVO DIVINOPOLIS; DIVINOPOLIS-04 PJ 545,00 0,00 0,00 0,00 0,00 0,00 545,00 0,00 0,00 0,00 0,00 545,00 84,80 0,00 30/06/2014
333 421100 FLVIA STAEL ALVES FONSECA ESTAGIARIO ATIVO ITAUNA; ITAUNA-02 PJ 272,50 0,00 0,00 0,00 0,00 0,00 272,50 0,00 0,00 0,00 0,00 272,50 47,70 0,00 30/06/2014
334 90 FORTUNATO TOBIAS SUB TENENTE ATIVO BELO HORIZONTE - COMARCA; GAECO - SECRETARIA 2.152,80 0,00 0,00 0,00 0,00 0,00 2.152,80 0,00 27,38 0,00 27,38 2.125,42 685,50 0,00 30/06/2014
335 313000 FRANCIANE CAROLINA DE SOUZA ESTAGIARIO ATIVO GALILEIA; GALILEIA - PJ ÚNICA 545,00 0,00 0,00 0,00 0,00 0,00 545,00 0,00 0,00 0,00 0,00 545,00 111,30 0,00 30/06/2014
336 345700 FRANCIANE ELIAS FERREIRA ESTAGIARIO ATIVO BELO HORIZONTE; DEFESA DA SAUDE-19 PJ 545,00 0,00 0,00 0,00 0,00 0,00 545,00 0,00 0,00 0,00 0,00 545,00 111,30 0,00 30/06/2014
337 389900 FRANCIELLE LAIA ROCHA ESTAGIARIO ATIVO GOVERNADOR VALADARES; GOVERNADOR VALADARES-15 PJ 545,00 0,00 0,00 0,00 0,00 0,00 545,00 0,00 0,00 0,00 0,00 545,00 106,00 0,00 30/06/2014
338 345800 FRANCIELLY DE PAIVA OLIVEIRA ESTAGIARIO ATIVO BETIM; BETIM-11 PJ 545,00 0,00 0,00 0,00 0,00 0,00 545,00 0,00 0,00 0,00 0,00 545,00 111,30 0,00 30/06/2014
339 381300 FRANCINELE DA SILVA TOMAZ ESTAGIARIO ATIVO BELO HORIZONTE; PROCON-MG-GAB DO COORDENADOR DO PROCON-MG 817,50 0,00 0,00 0,00 0,00 0,00 817,50 0,00 0,00 0,00 0,00 817,50 95,40 0,00 30/06/2014
340 375500 FRANCINI APARECIDA DE OLIVEIRA ESTAGIARIO ATIVO JOAO MONLEVADE; JOAO MONLEVADE-01 PJ 290,67 0,00 0,00 0,00 0,00 0,00 290,67 0,00 0,00 0,00 0,00 290,67 21,20 0,00 30/06/2014
341 418200 FRANKLYN VIEIRA BORGES FERREIRA ESTAGIARIO ATIVO MONTES CLAROS; COORD REG PJ DEF EDUC DIR CRIANCA ADOL NORTE 545,00 0,00 0,00 0,00 0,00 0,00 545,00 0,00 0,00 0,00 0,00 545,00 111,30 0,00 30/06/2014
342 421200 FLVIO ALVARENGA SAMPAIO ESTAGIARIO ATIVO BELO HORIZONTE; PROCURADORIA DE JUSTIÇA DE DIREITOS DIFUSOS E 272,50 0,00 0,00 0,00 0,00 0,00 272,50 0,00 0,00 0,00 0,00 272,50 47,70 0,00 30/06/2014
343 381400 GABRIEL BICALHO DE OLIVEIRA ESTAGIARIO ATIVO BELO HORIZONTE; SUPERINTENDENCIA DE TECNOLOGIA DA INFORMACAO 817,50 0,00 0,00 0,00 0,00 0,00 817,50 0,00 0,00 0,00 0,00 817,50 111,30 0,00 30/06/2014
344 272800 GABRIEL JOSE DE OLIVEIRA ESTAGIARIO ATIVO SANTO ANTONIO DO MONTE; SANTO ANTONIO DO MONTE - PJ ÚNICA 545,00 0,00 0,00 0,00 0,00 0,00 545,00 0,00 0,00 0,00 0,00 545,00 106,00 0,00 30/06/2014
345 427400 GABRIEL JNIOR JANURIO DA SILVA ESTAGIARIO ATIVO BELO HORIZONTE; PROCURADORIA DE JUSTIÇA DE HABEAS CORPUS 545,00 0,00 0,00 0,00 0,00 0,00 545,00 0,00 0,00 0,00 0,00 545,00 111,30 0,00 30/06/2014
346 366400 GABRIEL OLIVEIRA DE AGUIAR BORGES ESTAGIARIO ATIVO UBERLANDIA; UBERLANDIA-03 PJ 545,00 0,00 0,00 0,00 0,00 0,00 545,00 0,00 0,00 0,00 0,00 545,00 111,30 0,00 30/06/2014
347 381500 GABRIEL PEREIRA DE SOUZA ESTAGIARIO ATIVO BELO HORIZONTE; CENTRO DE ESTUDOS E APERFEICOAMENTO FUNCIONAL 817,50 0,00 0,00 0,00 0,00 0,00 817,50 0,00 0,00 0,00 0,00 817,50 111,30 0,00 30/06/2014
348 345900 GABRIELA ALVES LIMA JALES BRAGA ESTAGIARIO ATIVO ITABIRITO; ITABIRITO-01 PJ 545,00 0,00 0,00 0,00 0,00 0,00 545,00 0,00 0,00 0,00 0,00 545,00 111,30 0,00 30/06/2014
349 339600 GABRIELA ASSIS VAZ BATISTA ESTAGIARIO ATIVO NOVA LIMA; NOVA LIMA-03 PJ 545,00 0,00 0,00 0,00 0,00 0,00 545,00 0,00 0,00 0,00 0,00 545,00 111,30 0,00 30/06/2014
350 416100 GABRIELA CARRIJO CANNO DE ANDRADE ESTAGIARIO ATIVO UBERLANDIA; UBERLANDIA-01 PJ 545,00 0,00 0,00 0,00 0,00 0,00 545,00 0,00 0,00 0,00 0,00 545,00 111,30 0,00 30/06/2014
351 320100 GABRIELA CRISTINA FERREIRA DA SILVA ESTAGIARIO ATIVO OURO PRETO; OURO PRETO-04 PJ 545,00 0,00 0,00 0,00 0,00 0,00 545,00 0,00 0,00 0,00 0,00 545,00 111,30 0,00 30/06/2014
352 350800 GABRIELA CRISTINA SILVA DE ARAUJO ESTAGIARIO ATIVO JUIZ DE FORA; JUIZ DE FORA-08 PJ 545,00 0,00 0,00 0,00 0,00 0,00 545,00 0,00 0,00 0,00 0,00 545,00 63,60 0,00 30/06/2014
353 405400 GABRIELA LOPES DE MEIRA ESTAGIARIO ATIVO BELO HORIZONTE; 18 PJ DEF DIR HUM AP COM CONF AG E FISC POL 545,00 0,00 0,00 0,00 0,00 0,00 545,00 0,00 0,00 0,00 0,00 545,00 111,30 0,00 30/06/2014
354 394300 GABRIELA OLIVEIRA E MELO ESTAGIARIO ATIVO PATOS DE MINAS; PATOS DE MINAS-05 PJ 545,00 0,00 0,00 0,00 0,00 0,00 545,00 0,00 0,00 0,00 0,00 545,00 111,30 0,00 30/06/2014
355 427500 GABRIELA PINHEIRO DE OLIVEIRA ESTAGIARIO ATIVO BELO HORIZONTE; PROCURADORIA DE JUSTIÇA DE HABEAS CORPUS 1.090,00 0,00 0,00 0,00 0,00 0,00 1.090,00 0,00 0,00 0,00 0,00 1.090,00 111,30 0,00 30/06/2014
356 339500 GABRIELLA APARECIDA DE CASTRO DUTRA ESTAGIARIO ATIVO DIVINOPOLIS; DIVINOPOLIS-09 PJ 545,00 0,00 0,00 0,00 0,00 0,00 545,00 0,00 0,00 0,00 0,00 545,00 111,30 0,00 30/06/2014
357 375600 GABRIELLE MORAIS COSTA DIAS ESTAGIARIO ATIVO MACHADO; MACHADO-02 PJ 545,00 0,00 0,00 0,00 0,00 0,00 545,00 0,00 0,00 0,00 0,00 545,00 111,30 0,00 30/06/2014
358 278700 GEORGIA MARIA BATISTA DA SILVA LUCAS ESTAGIARIO ATIVO TIMOTEO; TIMOTEO-02 PJ 545,00 0,00 0,00 0,00 0,00 0,00 545,00 0,00 0,00 0,00 0,00 545,00 106,00 0,00 30/06/2014
359 371500 GEOVANI COELHO DE OLIVEIRA ESTAGIARIO ATIVO GOVERNADOR VALADARES; GOVERNADOR VALADARES-12 PJ 545,00 0,00 0,00 0,00 0,00 0,00 545,00 0,00 0,00 0,00 0,00 545,00 106,00 0,00 30/06/2014
360 355900 GERLAINE MARIA DO CARMO TOMAZ ESTAGIARIO ATIVO SERRO; SERRO - PJ ÚNICA 545,00 0,00 0,00 0,00 0,00 0,00 545,00 0,00 0,00 0,00 0,00 545,00 111,30 0,00 30/06/2014
361 326100 GESSICA CAROLINE ALVES DE SOUZA ESTAGIARIO ATIVO JANAUBA; JANAUBA-02 PJ 545,00 0,00 0,00 0,00 0,00 0,00 545,00 0,00 0,00 0,00 0,00 545,00 111,30 0,00 30/06/2014
362 357800 GESSICA NAIRA BATISTA FERREIRA ESTAGIARIO ATIVO CARATINGA; CARATINGA-04 PJ 545,00 0,00 0,00 0,00 0,00 0,00 545,00 0,00 0,00 0,00 0,00 545,00 111,30 0,00 30/06/2014
363 364600 GETULIO DE SOUSA BATISTA ESTAGIARIO ATIVO CABO VERDE; CABO VERDE - PJ ÚNICA 545,00 0,00 0,00 0,00 0,00 0,00 545,00 0,00 0,00 0,00 0,00 545,00 111,30 0,00 30/06/2014
364 303000 GIANY DE SOUSA SOUTO ESTAGIARIO ATIVO CAMPO BELO; CAMPO BELO-03 PJ 545,00 0,00 0,00 0,00 0,00 0,00 545,00 0,00 0,00 0,00 0,00 545,00 111,30 0,00 30/06/2014
365 346100 GILDO FRANCISCO DA SILVA ESTAGIARIO ATIVO BELO HORIZONTE; PROC. JUSTICA DIR. DIFUSOS E COLETIVOS 545,00 0,00 0,00 0,00 0,00 0,00 545,00 0,00 0,00 0,00 0,00 545,00 111,30 236,17 30/06/2014
366 334600 GILSON EZEQUIEL DO COUTO ESTAGIARIO ATIVO JUIZ DE FORA; JUIZ DE FORA-24 PJ 545,00 0,00 0,00 0,00 0,00 0,00 545,00 0,00 0,00 0,00 0,00 545,00 106,00 0,00 30/06/2014
367 21 GILVAN DA COSTA LIMA 3O.SARGENTO ATIVO BELO HORIZONTE - COMARCA; COORD DE PLANEJAMENTO INSTITUCIONAL 1.477,90 0,00 0,00 0,00 0,00 0,00 1.477,90 0,00 0,00 0,00 0,00 1.477,90 685,50 0,00 30/06/2014
368 405500 GINNIA LESSA DE SOUSA ALVES ESTAGIARIO ATIVO RESPLENDOR; RESPLENDOR - PJ ÚNICA 545,00 0,00 0,00 0,00 0,00 0,00 545,00 0,00 0,00 0,00 0,00 545,00 111,30 0,00 30/06/2014
369 375700 GIOVANA ANDREIA GONTIJO LESE ESTAGIARIO ATIVO UBERLANDIA; UBERLANDIA-21 PJ 545,00 0,00 0,00 0,00 0,00 0,00 545,00 0,00 0,00 0,00 0,00 545,00 111,30 0,00 30/06/2014
370 326200 GIOVANNA LEITE NUNES COELHO ESTAGIARIO ATIVO BELO HORIZONTE; DEFESA DE HABITACAO E URBANISMO-16 PJ 545,00 0,00 0,00 0,00 0,00 0,00 545,00 0,00 0,00 0,00 0,00 545,00 100,70 0,00 30/06/2014
371 270300 GIOVANNI DE SALLES COSTA ESTAGIARIO ATIVO BELO HORIZONTE; JUIZO DE FAMILIA-02 PJ 545,00 0,00 0,00 0,00 0,00 0,00 545,00 0,00 0,00 0,00 0,00 545,00 95,40 236,17 30/06/2014
372 381700 GISLENE FERRAZ MARTINS ESTAGIARIO ATIVO BELO HORIZONTE; CRIANÇAS E ADOLESCENTES-23 PJ-INFRACIONAL 817,50 0,00 0,00 0,00 0,00 0,00 817,50 0,00 0,00 0,00 0,00 817,50 111,30 0,00 30/06/2014
373 339800 GLAUCIA DANIELA ALVES ESTAGIARIO ATIVO UBERABA; UBERABA-10 PJ 545,00 0,00 0,00 0,00 0,00 0,00 545,00 0,00 0,00 0,00 0,00 545,00 63,60 0,00 30/06/2014
374 303100 GLEISON JOSE PEREIRA MARTINS ESTAGIARIO ATIVO BRUMADINHO; BRUMADINHO-02 PJ 545,00 0,00 0,00 0,00 0,00 0,00 545,00 0,00 0,00 0,00 0,00 545,00 111,30 0,00 30/06/2014
375 290000 GLEYCIELE GOMES ALVES SILVA ESTAGIARIO ATIVO UNAI; UNAI-03 PJ 545,00 0,00 0,00 0,00 0,00 0,00 545,00 0,00 0,00 0,00 0,00 545,00 106,00 0,00 30/06/2014
376 334700 GLEYCON BRAZ BUENO ESTAGIARIO ATIVO BUENO BRANDAO; BUENO BRANDAO - PJ ÚNICA 545,00 0,00 0,00 0,00 0,00 0,00 545,00 0,00 0,00 0,00 0,00 545,00 111,30 0,00 30/06/2014
377 381800 GRACIANA DE ALMEIDA DOS SANTOS ESTAGIARIO ATIVO BELO HORIZONTE; EXTINTA - DIRETORIA SERVIÇOS GERAIS E TRANS 817,50 0,00 0,00 0,00 0,00 0,00 817,50 0,00 0,00 0,00 0,00 817,50 90,10 0,00 30/06/2014
378 303300 GRAZIELE MENDES DE FREITAS ESTAGIARIO ATIVO RIBEIRAO DAS NEVES; RIBEIRAO DAS NEVES-02 PJ 545,00 0,00 0,00 0,00 0,00 0,00 545,00 0,00 0,00 0,00 0,00 545,00 111,30 0,00 30/06/2014
379 418300 GRAZIELLE SILVA CEZARIO FRANCISCO ESTAGIARIO ATIVO SANTA LUZIA; SANTA LUZIA-02 PJ 545,00 0,00 0,00 0,00 0,00 0,00 545,00 0,00 0,00 0,00 0,00 545,00 111,30 0,00 30/06/2014
380 390000 GREICIELLE FARIA PIRES ESTAGIARIO ATIVO CAMPOS ALTOS; CAMPOS ALTOS - PJ ÚNICA 545,00 0,00 0,00 0,00 0,00 0,00 545,00 0,00 0,00 0,00 0,00 545,00 111,30 0,00 30/06/2014
381 409800 GUILHERME BANTERLI MOREIRA ESTAGIARIO ATIVO VARGINHA; VARGINHA-03 PJ 545,00 0,00 0,00 0,00 0,00 0,00 545,00 0,00 0,00 0,00 0,00 545,00 111,30 0,00 30/06/2014
382 381900 GUILHERME BONSANTO DERIZ ESTAGIARIO ATIVO BELO HORIZONTE; DIRETORIA DE PRODUCAO EDITORIAL 817,50 0,00 0,00 0,00 0,00 0,00 817,50 0,00 0,00 0,00 0,00 817,50 111,30 0,00 30/06/2014
383 296900 GUILHERME CASELHONE CHAGAS ESTAGIARIO ATIVO UBERLANDIA; UBERLANDIA-01 PJ 545,00 0,00 0,00 0,00 0,00 0,00 545,00 0,00 0,00 0,00 0,00 545,00 111,30 0,00 30/06/2014
384 326300 GUILHERME DE OLIVEIRAS RAMOS ESTAGIARIO ATIVO UBERABA; UBERABA-08 PJ 545,00 0,00 0,00 0,00 0,00 0,00 545,00 0,00 0,00 0,00 0,00 545,00 68,90 0,00 30/06/2014
385 307300 GUILHERME FERREIRA GUIMARAES ESTAGIARIO ATIVO JOAO MONLEVADE; JOAO MONLEVADE-02 PJ 545,00 0,00 0,00 0,00 0,00 0,00 545,00 0,00 0,00 0,00 0,00 545,00 111,30 0,00 30/06/2014
386 339900 GUILHERME FRANCISCO SOUZA AMARAL ESTAGIARIO ATIVO BELO HORIZONTE; JUIZO CRIMINAL-12 PJ 545,00 0,00 0,00 0,00 0,00 0,00 545,00 0,00 0,00 0,00 0,00 545,00 100,70 0,00 30/06/2014
387 351000 GUILHERME NOGUEIRA SANTOS ESTAGIARIO ATIVO JUIZ DE FORA; JUIZ DE FORA-13 PJ 545,00 0,00 0,00 0,00 0,00 0,00 545,00 0,00 0,00 0,00 0,00 545,00 106,00 0,00 30/06/2014
388 357900 GUILHERME PERERIA DA FONSECA ESTAGIARIO ATIVO BELO HORIZONTE; TOXICOS-13 PJ 545,00 0,00 0,00 0,00 0,00 0,00 545,00 0,00 0,00 0,00 0,00 545,00 111,30 0,00 30/06/2014
389 362300 GUILHERME SOUZA VICTOR DE CARVALHO ESTAGIARIO ATIVO BELO HORIZONTE; GABINETE DOS PROCURADORES 545,00 0,00 0,00 0,00 0,00 0,00 545,00 0,00 0,00 0,00 0,00 545,00 111,30 0,00 30/06/2014
390 340000 GUILHERME VIEIRA DE MAGALHAES ESTAGIARIO ATIVO POCOS DE CALDAS; POCOS DE CALDAS-01 PJ 545,00 0,00 0,00 0,00 0,00 0,00 545,00 0,00 0,00 0,00 0,00 545,00 111,30 0,00 30/06/2014
391 346300 GUNTHER ASSUNCAO COSTA ESTAGIARIO ATIVO BELO HORIZONTE; JUIZADO ESPECIAL CÍVEL E CRIMINAL - 08ª PJ 545,00 0,00 0,00 0,00 0,00 0,00 545,00 0,00 0,00 0,00 0,00 545,00 111,30 0,00 30/06/2014
392 320500 GUSTAVO AGUIAR LOPES ESTAGIARIO ATIVO MANHUACU; MANHUACU-04 PJ 545,00 0,00 0,00 0,00 0,00 0,00 545,00 0,00 0,00 0,00 0,00 545,00 111,30 0,00 30/06/2014
393 416200 GUSTAVO DE OLIVEIRA COSTA SOUZA ESTAGIARIO ATIVO BELO HORIZONTE; JUIZO CRIMINAL-12 PJ 545,00 0,00 0,00 0,00 0,00 0,00 545,00 0,00 0,00 0,00 0,00 545,00 100,70 0,00 30/06/2014
394 405600 GUSTAVO FIRMINO DOS SANTOS ESTAGIARIO ATIVO BELO HORIZONTE; 23ª PJ DEF DIREITOS CRIANÇAS E ADOLESCENTES 127,17 0,00 0,00 0,00 0,00 0,00 127,17 0,00 0,00 0,00 0,00 127,17 26,50 0,00 30/06/2014
395 413400 GUSTAVO HEINRICH ENTRINGER FERREIRA ESTAGIARIO ATIVO BELO HORIZONTE; GABINETE DOS PROCURADORES 545,00 0,00 0,00 0,00 0,00 0,00 545,00 0,00 0,00 0,00 0,00 545,00 111,30 0,00 30/06/2014
396 421300 GUSTAVO OLIVEIRA PAGANINI ESTAGIARIO ATIVO BELO HORIZONTE; PROC. JUSTICA DE HABEAS CORPUS 545,00 0,00 0,00 0,00 0,00 0,00 545,00 0,00 0,00 0,00 0,00 545,00 47,70 0,00 30/06/2014
397 375800 GUSTAVO RIBEIRO BARROSO ALVARENGA ESTAGIARIO ATIVO SAO GOTARDO; SAO GOTARDO - PJ ÚNICA 545,00 0,00 0,00 0,00 0,00 0,00 545,00 0,00 0,00 0,00 0,00 545,00 111,30 0,00 30/06/2014
398 394400 GUSTAVO RIOS RIBEIRO ESTAGIARIO ATIVO PARA DE MINAS; PARÁ DE MINAS-01 PJ 545,00 0,00 0,00 0,00 0,00 0,00 545,00 0,00 0,00 0,00 0,00 545,00 111,30 0,00 30/06/2014
399 399500 HALINE FREITAS SEVERINO ESTAGIARIO ATIVO ITURAMA; ITURAMA-01 PJ 545,00 0,00 0,00 0,00 0,00 0,00 545,00 0,00 0,00 0,00 0,00 545,00 74,20 0,00 30/06/2014
400 382000 HEBERT GERSON SOARES JUNIOR ESTAGIARIO ATIVO BELO HORIZONTE; MEIO AMB PATRIM HISTORICO E CULTURAL-15 PJ 817,50 0,00 0,00 0,00 0,00 0,00 817,50 0,00 0,00 0,00 0,00 817,50 111,30 0,00 30/06/2014
401 358000 HECTOR CHAVES RIBEIRO FRANCA GUIMARAES ESTAGIARIO ATIVO JUIZ DE FORA; JUIZ DE FORA-15 PJ 545,00 0,00 0,00 0,00 0,00 0,00 545,00 0,00 0,00 0,00 0,00 545,00 106,00 0,00 30/06/2014
402 358100 HEITOR JANUZZI DELFINO DE PAULA ESTAGIARIO ATIVO BELO HORIZONTE; GABINETE DOS PROCURADORES 545,00 0,00 0,00 0,00 0,00 0,00 545,00 0,00 0,00 0,00 0,00 545,00 111,30 0,00 30/06/2014
403 326400 HELCIO VILELA SILVA JUNIOR ESTAGIARIO ATIVO SAO GONCALO DO SAPUCAI; SAO GONCALO DO SAPUCAI-01 PJ 545,00 0,00 0,00 0,00 0,00 0,00 545,00 0,00 0,00 0,00 0,00 545,00 111,30 0,00 30/06/2014
404 351100 HELIDA DE CASSIA MOURA RICARDO ESTAGIARIO ATIVO IPATINGA; IPATINGA-04 PJ 545,00 0,00 0,00 0,00 0,00 0,00 545,00 0,00 0,00 0,00 0,00 545,00 90,10 0,00 30/06/2014
405 390100 HELIO REIS FARIA JUNIOR ESTAGIARIO ATIVO Informação não disponível 545,00 0,00 0,00 0,00 0,00 0,00 545,00 0,00 0,00 0,00 0,00 545,00 111,30 0,00 30/06/2014
406 399700 HELLEN CRISTINE SANTOS PEREIRA ESTAGIARIO ATIVO DIAMANTINA; DIAMANTINA-01 PJ 545,00 0,00 0,00 0,00 0,00 0,00 545,00 0,00 0,00 0,00 0,00 545,00 106,00 0,00 30/06/2014
407 399800 HENRIAN DE PLA E SANTANNA ESTAGIARIO ATIVO BELO HORIZONTE; JUIZO CRIMINAL-12 PJ 545,00 0,00 0,00 0,00 0,00 0,00 545,00 0,00 0,00 0,00 0,00 545,00 111,30 0,00 30/06/2014
408 297100 HENRIQUE CEOLA ESTAGIARIO ATIVO UNAI; UNAI-04 PJ 545,00 0,00 0,00 0,00 0,00 0,00 545,00 0,00 0,00 0,00 0,00 545,00 106,00 0,00 30/06/2014
409 418400 HENRIQUE DE ARAUJO MORAES ESTAGIARIO ATIVO UBERLANDIA; UBERLANDIA-12 PJ 109,00 0,00 0,00 0,00 0,00 0,00 109,00 0,00 0,00 0,00 0,00 109,00 21,20 0,00 30/06/2014
410 320600 HENRIQUE DE OLIVEIRA RIBEIRO ESTAGIARIO ATIVO MONTES CLAROS; MONTES CLAROS-04 PJ 545,00 0,00 0,00 0,00 0,00 0,00 545,00 0,00 0,00 0,00 0,00 545,00 111,30 0,00 30/06/2014
411 351200 HENRIQUE GOMES DA SILVA ESTAGIARIO ATIVO GUAPE; GUAPE - PJ ÚNICA 545,00 0,00 0,00 0,00 0,00 0,00 545,00 0,00 0,00 0,00 0,00 545,00 100,70 0,00 30/06/2014
412 376000 HENRIQUE MACIEL KHIPP ESTAGIARIO ATIVO BELO HORIZONTE; COMBATE AO CRIME ORGANIZADO-11 PJ- SECRETARIA 545,00 0,00 0,00 0,00 0,00 0,00 545,00 0,00 0,00 0,00 0,00 545,00 111,30 0,00 30/06/2014
413 273300 HENRIQUE PEREIRA RIBEIRO ESTAGIARIO ATIVO BELO HORIZONTE; GABINETE DOS PROCURADORES 545,00 0,00 0,00 0,00 0,00 0,00 545,00 0,00 0,00 0,00 0,00 545,00 68,90 0,00 30/06/2014
414 390200 HENRIQUE SILVEIRA NOGUEIRA ESTAGIARIO ATIVO TEIXEIRAS; TEIXEIRAS - PJ ÚNICA 545,00 0,00 0,00 0,00 0,00 0,00 545,00 0,00 0,00 0,00 0,00 545,00 90,10 0,00 30/06/2014
415 79 HERICK GUILHERME DE MELO ESCRIVAO DE POLICIA ATIVO 1.526,44 0,00 0,00 0,00 0,00 0,00 1.526,44 0,00 0,00 0,00 0,00 1.526,44 685,50 0,00 30/06/2014
416 58 HERIKA ALONSO CICARELLI FONSECA 1O. SARGENTO ATIVO BELO HORIZONTE - COMARCA; COORD ESTADUAL COMBATE CRIMES CIBERNETICOS 1.918,66 0,00 0,00 0,00 0,00 0,00 1.918,66 0,00 9,82 0,00 9,82 1.908,84 685,50 0,00 30/06/2014
417 409900 HEVENY NATIVIDADE BARBOZA DE LIMA ESTAGIARIO ATIVO IPATINGA; IPATINGA-07 PJ 545,00 0,00 0,00 0,00 0,00 0,00 545,00 0,00 0,00 0,00 0,00 545,00 111,30 0,00 30/06/2014
418 410000 HINGRID COSTA CIQUEIRA ESTAGIARIO ATIVO ARAXA; ARAXA-03 PJ 545,00 0,00 0,00 0,00 0,00 0,00 545,00 0,00 0,00 0,00 0,00 545,00 111,30 0,00 30/06/2014
419 34 HUDSON SILVA GOMES SUB TENENTE ATIVO BELO HORIZONTE - COMARCA; GAECO - SECRETARIA 2.152,80 0,00 0,00 0,00 0,00 0,00 2.152,80 0,00 27,38 0,00 27,38 2.125,42 685,50 0,00 30/06/2014
420 358200 HUGO DE SOUZA REIS ESTAGIARIO ATIVO BELO HORIZONTE; JUIZO CRIMINAL-12 PJ 545,00 0,00 0,00 0,00 0,00 0,00 545,00 0,00 0,00 0,00 0,00 545,00 111,30 0,00 30/06/2014
421 382100 HUGO LEONARDO ALVES FLORES ESTAGIARIO ATIVO BELO HORIZONTE; SUPERINTENDENCIA DE TECNOLOGIA DA INFORMACAO 817,50 0,00 0,00 0,00 0,00 0,00 817,50 0,00 0,00 0,00 0,00 817,50 111,30 0,00 30/06/2014
422 297300 HYLANA CARVALHO MOTTA ESTAGIARIO ATIVO UBERLANDIA; UBERLANDIA-01 PJ 545,00 0,00 0,00 0,00 0,00 0,00 545,00 0,00 0,00 0,00 0,00 545,00 111,30 0,00 30/06/2014
423 413500 IAGO RODRIGUES DE SOUZA ESTAGIARIO ATIVO PASSOS; PASSOS-05 PJ 545,00 0,00 0,00 0,00 0,00 0,00 545,00 0,00 0,00 0,00 0,00 545,00 111,30 0,00 30/06/2014
424 366500 IARA CARLOTA LOURENCO EUCLYDES DE SOUSA ESTAGIARIO ATIVO BELO HORIZONTE; GABINETE DOS PROCURADORES 545,00 0,00 0,00 0,00 0,00 0,00 545,00 0,00 0,00 0,00 0,00 545,00 111,30 0,00 30/06/2014
425 284000 IGHOR MATTOS GRANADO ESTAGIARIO ATIVO BICAS; BICAS - PJ ÚNICA 545,00 0,00 0,00 0,00 0,00 0,00 545,00 0,00 0,00 0,00 0,00 545,00 111,30 0,00 30/06/2014
426 376100 IGOR ANDRADE CARVALHO ESTAGIARIO ATIVO VISCONDE DO RIO BRANCO; VISCONDE DO RIO BRANCO-03 PJ 545,00 0,00 0,00 0,00 0,00 0,00 545,00 0,00 0,00 0,00 0,00 545,00 106,00 0,00 30/06/2014
427 340100 IGOR FONSECA AFONSO ESTAGIARIO ATIVO ARAGUARI; ARAGUARI-02 PJ 545,00 0,00 0,00 0,00 0,00 0,00 545,00 0,00 0,00 0,00 0,00 545,00 95,40 0,00 30/06/2014
428 390300 IGOR FRANZINI CARRARA ESTAGIARIO ATIVO CATAGUASES; CATAGUASES-01 PJ 545,00 0,00 0,00 0,00 0,00 0,00 545,00 0,00 0,00 0,00 0,00 545,00 106,00 0,00 30/06/2014
429 358300 IGOR MORAES SANTOS ESTAGIARIO ATIVO BELO HORIZONTE; AUDITORIA MILITAR-09 PJ 545,00 0,00 0,00 0,00 0,00 0,00 545,00 0,00 0,00 0,00 0,00 545,00 111,30 0,00 30/06/2014
430 340200 IGOR PEREIRA PIMENTA ESTAGIARIO ATIVO Informação não disponível 545,00 0,00 0,00 0,00 0,00 0,00 545,00 0,00 0,00 0,00 0,00 545,00 111,30 0,00 30/06/2014
431 376200 IGOR XAVIER PONTES ESTAGIARIO ATIVO DIVINOPOLIS; DIVINOPOLIS-01 PJ 545,00 0,00 0,00 0,00 0,00 0,00 545,00 0,00 0,00 0,00 0,00 545,00 111,30 0,00 30/06/2014
432 273400 ILIHA KAROLIN-KERR NOGUEIRA ESTAGIARIO ATIVO CONTAGEM; CONTAGEM-22 PJ 545,00 0,00 0,00 0,00 0,00 0,00 545,00 0,00 0,00 0,00 0,00 545,00 111,30 0,00 30/06/2014
433 351300 INGRID DAYANE MARQUES ESTAGIARIO ATIVO NOVA LIMA; NOVA LIMA-03 PJ 545,00 0,00 0,00 0,00 0,00 0,00 545,00 0,00 0,00 0,00 0,00 545,00 111,30 0,00 30/06/2014
434 394500 INGRID DE OLIVEIRA ESTAGIARIO ATIVO TEOFILO OTONI; TEOFILO OTONI-06 PJ 545,00 0,00 0,00 0,00 0,00 0,00 545,00 0,00 0,00 0,00 0,00 545,00 111,30 0,00 30/06/2014
435 418500 INGRID LORRAYNE MENDES RAMOS ESTAGIARIO ATIVO BELO HORIZONTE; TUTELA DAS FUNDACOES-21 PJ 545,00 0,00 0,00 0,00 0,00 0,00 545,00 0,00 0,00 0,00 0,00 545,00 111,30 0,00 30/06/2014
436 250900 INGRID MACHADO ROQUE ESTAGIARIO ATIVO CONGONHAS; CONGONHAS-01 PJ 545,00 0,00 0,00 0,00 0,00 0,00 545,00 0,00 0,00 0,00 0,00 545,00 111,30 0,00 30/06/2014
437 382200 IRADE NAAMA DE OLIVEIRA ESTAGIARIO ATIVO BELO HORIZONTE; CENTRAL DE APOIO TECNICO-SETOR CONTABIL 790,25 0,00 0,00 0,00 0,00 0,00 790,25 0,00 0,00 0,00 0,00 790,25 100,70 0,00 30/06/2014
438 413600 ISABELA BERNARDES LEAO DA SILVA ESTAGIARIO ATIVO PARA DE MINAS; PARA DE MINAS-03 PJ 545,00 0,00 0,00 0,00 0,00 0,00 545,00 0,00 0,00 0,00 0,00 545,00 111,30 0,00 30/06/2014
439 313200 ISABELA CARVALHO LOURENCO ESTAGIARIO ATIVO MURIAE; MURIAE-03 PJ 545,00 0,00 0,00 0,00 0,00 0,00 545,00 0,00 0,00 0,00 0,00 545,00 111,30 0,00 30/06/2014
440 340400 ISABELA CRISTIANE DE SIQUEIRA OLIVEIRA ESTAGIARIO ATIVO BELO HORIZONTE; PROMOT ESTADUAL DE DEF PATRI CULT E TUR DE MG 545,00 0,00 0,00 0,00 0,00 0,00 545,00 0,00 0,00 0,00 0,00 545,00 111,30 0,00 30/06/2014
441 320900 ISABELA DORNELAS DE OLIVEIRA FERREIRA PRADO ESTAGIARIO ATIVO Informação não disponível 545,00 0,00 0,00 0,00 0,00 0,00 545,00 0,00 0,00 0,00 0,00 545,00 106,00 0,00 30/06/2014
442 366600 ISABELA LUCENA ANTUNES ESTAGIARIO ATIVO BELO HORIZONTE; PROC. JUSTICA DIR. DIFUSOS E COLETIVOS 545,00 0,00 0,00 0,00 0,00 0,00 545,00 0,00 0,00 0,00 0,00 545,00 111,30 0,00 30/06/2014
443 399900 ISABELA MARIA PEREIRA LOPES ESTAGIARIO ATIVO Informação não disponível 545,00 0,00 0,00 0,00 0,00 0,00 545,00 0,00 0,00 0,00 0,00 545,00 111,30 0,00 30/06/2014
444 351500 ISABELA MARTINS MAIA ESTAGIARIO ATIVO CONTAGEM; CONTAGEM-12 PJ 545,00 0,00 0,00 0,00 0,00 0,00 545,00 0,00 0,00 0,00 0,00 545,00 100,70 0,00 30/06/2014
445 394600 ISABELLA CARVALHO DOS SANTOS BASTOS ESTAGIARIO ATIVO SETE LAGOAS; SETE LAGOAS-05 PJ 545,00 0,00 0,00 0,00 0,00 0,00 545,00 0,00 0,00 0,00 0,00 545,00 111,30 0,00 30/06/2014
446 405700 ISABELLA CUNHA MOUKARZEL ESTAGIARIO ATIVO ITUIUTABA; ITUIUTABA-06 PJ 545,00 0,00 0,00 0,00 0,00 0,00 545,00 0,00 0,00 0,00 0,00 545,00 100,70 0,00 30/06/2014
447 107 ISABELLA PINTO INVESTIGADOR DE POLICIA 2 ATIVO CONTAGEM - COMARCA; COORD REG DEF ORDEM ECONOMICA TRIB CONTAGEM 1.345,78 0,00 0,00 0,00 0,00 0,00 1.345,78 0,00 0,00 0,00 0,00 1.345,78 685,50 0,00 30/06/2014
448 266500 ISABELLA RODRIGUES JERONIMO ESTAGIARIO ATIVO LAVRAS; LAVRAS-04 PJ 545,00 0,00 0,00 0,00 0,00 0,00 545,00 0,00 0,00 0,00 0,00 545,00 111,30 0,00 30/06/2014
449 366800 ISABELLA SANTOS GUIMARAES ESTAGIARIO ATIVO Informação não disponível 545,00 0,00 0,00 0,00 0,00 0,00 545,00 0,00 0,00 0,00 0,00 545,00 111,30 0,00 30/06/2014
450 394700 ISABELLA SEQUETTO TERROR ESTAGIARIO ATIVO JUIZ DE FORA; JUIZ DE FORA-22 PJ 545,00 0,00 0,00 0,00 0,00 0,00 545,00 0,00 0,00 0,00 0,00 545,00 106,00 0,00 30/06/2014
451 362400 ISADORA FERNANDES MARIOZA ESTAGIARIO ATIVO OURO BRANCO; OURO BRANCO - PJ ÚNICA 545,00 0,00 0,00 0,00 0,00 0,00 545,00 0,00 0,00 0,00 0,00 545,00 111,30 0,00 30/06/2014
452 334800 ISAIAS DANIEL FERNANDES LUCAS ESTAGIARIO ATIVO Informação não disponível 545,00 0,00 0,00 0,00 0,00 0,00 545,00 0,00 0,00 0,00 0,00 545,00 111,30 0,00 30/06/2014
453 382300 ISIS CASTRO COSTA ESTAGIARIO ATIVO BELO HORIZONTE; SUPERINTENDENCIA DE COMUNICACAO INTEGRADA 545,00 0,00 0,00 0,00 0,00 0,00 545,00 0,00 0,00 0,00 0,00 545,00 111,30 0,00 30/06/2014
454 351700 IVAN TANURE SANTANNA ESTAGIARIO ATIVO BELO HORIZONTE; TOXICOS-13 PJ 545,00 0,00 0,00 0,00 0,00 0,00 545,00 0,00 0,00 0,00 0,00 545,00 111,30 0,00 30/06/2014
455 358400 IVANILDA DE MELO OLIVEIRA ESTAGIARIO ATIVO CARATINGA; CARATINGA-02 PJ 545,00 0,00 0,00 0,00 0,00 0,00 545,00 0,00 0,00 0,00 0,00 545,00 111,30 0,00 30/06/2014
456 348600 IZABEL FURTADO COELHO ESTAGIARIO ATIVO JUIZ DE FORA; JUIZ DE FORA-23 PJ 545,00 0,00 0,00 0,00 0,00 0,00 545,00 0,00 0,00 0,00 0,00 545,00 106,00 0,00 30/06/2014
457 405800 IZABELA DOS SANTOS VILLAR ESTAGIARIO ATIVO BELO HORIZONTE; 22ª PJ DEF DIREITO PESSOAS DEFICIENCIA IDOSOS 545,00 0,00 0,00 0,00 0,00 0,00 545,00 0,00 0,00 0,00 0,00 545,00 111,30 0,00 30/06/2014
458 405900 IZABELA SOUZA ALBANO FELIX ESTAGIARIO ATIVO BELO HORIZONTE; 18 PJ DEF DIR HUM AP COM CONF AG E FISC POL 545,00 0,00 0,00 0,00 0,00 0,00 545,00 0,00 0,00 0,00 0,00 545,00 111,30 0,00 30/06/2014
459 346500 IZABELLA BOTELHO SANTOS ESTAGIARIO ATIVO VESPASIANO; VESPASIANO-01 PJ 545,00 0,00 0,00 0,00 0,00 0,00 545,00 0,00 0,00 0,00 0,00 545,00 111,30 0,00 30/06/2014
460 424900 IZABELLA CRISTINA ROCHA GONALVES ESTAGIARIO ATIVO BELO HORIZONTE; JUIZO CRIMINAL-12 PJ 545,00 0,00 0,00 0,00 0,00 0,00 545,00 0,00 0,00 0,00 0,00 545,00 37,10 0,00 30/06/2014
461 351800 IZABELLA DE SOUZA SALES ESTAGIARIO ATIVO Informação não disponível 545,00 0,00 0,00 0,00 0,00 0,00 545,00 0,00 0,00 0,00 0,00 545,00 100,70 0,00 30/06/2014
462 400000 IZABELLA RIOS FERRAZ DE ALMEIDA ESTAGIARIO ATIVO BELO HORIZONTE; 18 PJ DEF DIR HUM AP COM CONF AG E FISC POL 545,00 0,00 0,00 0,00 0,00 0,00 545,00 0,00 0,00 0,00 0,00 545,00 111,30 0,00 30/06/2014
463 410100 JACIERE APARECIDA AVELAR ESTAGIARIO ATIVO BELO HORIZONTE; CENTRO DE ESTUDOS E APERFEICOAMENTO FUNCIONAL 817,50 0,00 0,00 0,00 0,00 0,00 817,50 0,00 0,00 0,00 0,00 817,50 106,00 0,00 30/06/2014
464 104 JACKSON BATISTA EMBURANA ESCRIVAO DE POLICIA ATIVO BELO HORIZONTE - COMARCA; COMB CRIMES PRAT POR AG POL MUN-PROC JUST ESP 1.209,41 0,00 0,00 0,00 0,00 0,00 1.209,41 0,00 0,00 0,00 0,00 1.209,41 685,50 0,00 30/06/2014
465 406000 JACQUELINE DE FREITAS SANTOS ESTAGIARIO ATIVO BELO HORIZONTE; JUIZO CRIMINAL-12 PJ 545,00 0,00 0,00 0,00 0,00 0,00 545,00 0,00 0,00 0,00 0,00 545,00 100,70 0,00 30/06/2014
466 313400 JACQUELINE GONCALVES ARAUJO SANTOS ESTAGIARIO ATIVO DIVINOPOLIS; DIVINOPOLIS-11 PJ 545,00 0,00 0,00 0,00 0,00 0,00 545,00 0,00 0,00 0,00 0,00 545,00 111,30 0,00 30/06/2014
467 351900 JAIANNY KAROLLINNY SOARES SILVA ESTAGIARIO ATIVO GOVERNADOR VALADARES; GOVERNADOR VALADARES - 16ª PROMOTORIA DE JUST 490,50 0,00 0,00 0,00 0,00 0,00 490,50 0,00 0,00 0,00 0,00 490,50 63,60 0,00 30/06/2014
468 376300 JAQUELINE GIRALDELLI REZENDE ESTAGIARIO ATIVO POCOS DE CALDAS; POCOS DE CALDAS-03 PJ 545,00 0,00 0,00 0,00 0,00 0,00 545,00 0,00 0,00 0,00 0,00 545,00 111,30 0,00 30/06/2014
469 394800 JAQUELINE MAYARA FERREIRA DA COSTA ESTAGIARIO ATIVO TEOFILO OTONI; TEOFILO OTONI-01 PJ 545,00 0,00 0,00 0,00 0,00 0,00 545,00 0,00 0,00 0,00 0,00 545,00 111,30 0,00 30/06/2014
470 421400 JENIFFER CRISTINA OLIVEIRA DE LIMA ESTAGIARIO ATIVO UBA; COORD REG BACIA DO RIO PARAIBA DO SUL 272,50 0,00 0,00 0,00 0,00 0,00 272,50 0,00 0,00 0,00 0,00 272,50 47,70 0,00 30/06/2014
471 326800 JENIFFER MARINHO RODRIGUES ESTAGIARIO ATIVO BELO HORIZONTE; 18 PJ DEF DIR HUM AP COM CONF AG E FISC POL 545,00 0,00 0,00 0,00 0,00 0,00 545,00 0,00 0,00 0,00 0,00 545,00 111,30 0,00 30/06/2014
472 421500 JENNIFER KRISLEY MOREIRA NASCIMENTO ESTAGIARIO ATIVO BELO HORIZONTE; PROC. JUSTICA DE HABEAS CORPUS 254,33 0,00 0,00 0,00 0,00 0,00 254,33 0,00 0,00 0,00 0,00 254,33 42,40 0,00 30/06/2014
473 346600 JESSICA ALTIVA LOPES ESTAGIARIO ATIVO BAMBUI; BAMBUI - PJ ÚNICA 545,00 0,00 0,00 0,00 0,00 0,00 545,00 0,00 0,00 0,00 0,00 545,00 111,30 0,00 30/06/2014
474 266700 JESSICA ALVARENGA SOARES ESTAGIARIO ATIVO BELO HORIZONTE; JUIZO CRIMINAL-12 PJ 545,00 0,00 0,00 0,00 0,00 0,00 545,00 0,00 0,00 0,00 0,00 545,00 111,30 0,00 30/06/2014
475 358500 JESSICA ALVES DE SOUZA ESTAGIARIO ATIVO BELO HORIZONTE; JUIZO CRIMINAL-12 PJ 545,00 0,00 0,00 0,00 0,00 0,00 545,00 0,00 0,00 0,00 0,00 545,00 111,30 0,00 30/06/2014
476 321000 JESSICA AMORIM ASSIS ESTAGIARIO ATIVO BONFIM; BONFIM - PJ ÚNICA 545,00 0,00 0,00 0,00 0,00 0,00 545,00 0,00 0,00 0,00 0,00 545,00 111,30 0,00 30/06/2014
477 376400 JESSICA ARIANY S. MARTINS ESTAGIARIO ATIVO PERDOES; PERDOES - PJ ÚNICA 545,00 0,00 0,00 0,00 0,00 0,00 545,00 0,00 0,00 0,00 0,00 545,00 111,30 0,00 30/06/2014
478 376500 JESSICA CRISTINA DO NASCIMENTO ESTAGIARIO ATIVO BARROSO; BARROSO-01 PJ 545,00 0,00 0,00 0,00 0,00 0,00 545,00 0,00 0,00 0,00 0,00 545,00 111,30 0,00 30/06/2014
479 376600 JESSICA DAMASCENO RIBEIRO GOMES ESTAGIARIO ATIVO IPATINGA; IPATINGA-05 PJ 545,00 0,00 0,00 0,00 0,00 0,00 545,00 0,00 0,00 0,00 0,00 545,00 111,30 0,00 30/06/2014
480 382400 JESSICA DE SOUZA DIAS ESTAGIARIO ATIVO BELO HORIZONTE; OUVIDORIA DO MPMG 327,00 0,00 0,00 0,00 0,00 0,00 327,00 0,00 0,00 0,00 0,00 327,00 0,00 0,00 30/06/2014
481 276700 JESSICA DO NASCIMENTO FARIA ESTAGIARIO ATIVO Informação não disponível 545,00 0,00 0,00 0,00 0,00 0,00 545,00 0,00 0,00 0,00 0,00 545,00 111,30 0,00 30/06/2014
482 362500 JESSICA FERNANDA ALVES DE OLIVEIRA ESTAGIARIO ATIVO UBERABA; UBERABA-03 PJ 545,00 0,00 0,00 0,00 0,00 0,00 545,00 0,00 0,00 0,00 0,00 545,00 111,30 0,00 30/06/2014
483 284200 JESSICA FERNANDA SILVA ESTAGIARIO ATIVO BARBACENA; EXTINTA-BARBACENA - 06ª PJ EXECUÇÃO PENAL 545,00 0,00 0,00 0,00 0,00 0,00 545,00 0,00 0,00 0,00 0,00 545,00 84,80 0,00 30/06/2014
484 413700 JESSICA FERNANDES ANGELO ESTAGIARIO ATIVO BELO HORIZONTE; PROMOT ESTADUAL DE DEF PATRI CULT E TUR DE MG 817,50 0,00 0,00 0,00 0,00 0,00 817,50 0,00 0,00 0,00 0,00 817,50 111,30 0,00 30/06/2014
485 112 JESSICA FERREIRA RIBEIRO TECNICO POLICIA CIVIL ATIVO BELO HORIZONTE - COMARCA; CAO-CRIM EXEC PENAL TRIB JURI AUD MILITAR 413,23 0,00 0,00 0,00 0,00 0,00 413,23 0,00 0,00 0,00 0,00 413,23 685,50 0,00 30/06/2014
486 346700 JESSICA GONCALVES LARA ESTAGIARIO ATIVO PRATAPOLIS; PRATAPOLIS - PJ ÚNICA 545,00 0,00 0,00 0,00 0,00 0,00 545,00 0,00 0,00 0,00 0,00 545,00 111,30 0,00 30/06/2014
487 362600 JESSICA JUNQUEIRA SANTOS DA SILVA ESTAGIARIO ATIVO POUSO ALEGRE; POUSO ALEGRE-05 PJ 545,00 0,00 0,00 0,00 0,00 0,00 545,00 0,00 0,00 0,00 0,00 545,00 111,30 0,00 30/06/2014
488 369900 JESSICA MAYARA VIEIRA COELHO ESTAGIARIO ATIVO CONSELHEIRO LAFAIETE; CONSELHEIRO LAFAIETE-07 PJ 545,00 0,00 0,00 0,00 0,00 0,00 545,00 0,00 0,00 0,00 0,00 545,00 111,30 0,00 30/06/2014
489 413800 JESSICA NOGUEIRA DE OLIVEIRA ESTAGIARIO ATIVO LEOPOLDINA; LEOPOLDINA-03 PJ 545,00 0,00 0,00 0,00 0,00 0,00 545,00 0,00 0,00 0,00 0,00 545,00 111,30 0,00 30/06/2014
490 394900 JESSICA PEIXOTO DE CARVALHO ESTAGIARIO ATIVO UBERLANDIA; UBERLANDIA-08 PJ 545,00 0,00 0,00 0,00 0,00 0,00 545,00 0,00 0,00 0,00 0,00 545,00 111,30 0,00 30/06/2014
491 307800 JESSICA RODRIGUES GODINHO ESTAGIARIO ATIVO BELO HORIZONTE; DEFESA DA SAUDE-19 PJ 545,00 0,00 0,00 0,00 0,00 0,00 545,00 0,00 0,00 0,00 0,00 545,00 111,30 0,00 30/06/2014
492 376700 JESSICA RODRIGUES PARDINI SABILA ESTAGIARIO ATIVO BELO HORIZONTE; 23ª PJ DEF DIREITOS CRIANÇAS E ADOLESCENTES 545,00 0,00 0,00 0,00 0,00 0,00 545,00 0,00 0,00 0,00 0,00 545,00 100,70 0,00 30/06/2014
493 367100 JESSICA SANTIAGO SOARES ESTAGIARIO ATIVO TIMOTEO; TIMOTEO-01 PJ 545,00 0,00 0,00 0,00 0,00 0,00 545,00 0,00 0,00 0,00 0,00 545,00 111,30 0,00 30/06/2014
494 290400 JESSICA SARA BRUNO SPOSITO ESTAGIARIO ATIVO BELO HORIZONTE; AUDITORIA MILITAR-09 PJ 545,00 0,00 0,00 0,00 0,00 0,00 545,00 0,00 0,00 0,00 0,00 545,00 111,30 0,00 30/06/2014
495 395000 JESSICA TEODORO XAVIER ESTAGIARIO ATIVO DIVINOPOLIS; DIVINOPOLIS-13 PJ-JUIZADO ESPECIAL 545,00 0,00 0,00 0,00 0,00 0,00 545,00 0,00 0,00 0,00 0,00 545,00 111,30 0,00 30/06/2014
496 395100 JESSICA THALYTA VELOSO RIBEIRO ESTAGIARIO ATIVO FRANCISCO SA; FRANCISCO SA - PJ ÚNICA 545,00 0,00 0,00 0,00 0,00 0,00 545,00 0,00 0,00 0,00 0,00 545,00 106,00 0,00 30/06/2014
497 367200 JHONATAN CANDIDO FELIX ESTAGIARIO ATIVO UBERLANDIA; UBERLANDIA-03 PJ 545,00 0,00 0,00 0,00 0,00 0,00 545,00 0,00 0,00 0,00 0,00 545,00 111,30 0,00 30/06/2014
498 83 JOAO ALVES DE MIRANDA INVESTIGADOR DE POLICIA 2 ATIVO BELO HORIZONTE - COMARCA; CAO-CRIM EXEC PENAL TRIB JURI AUD MILITAR 1.918,67 0,00 0,00 0,00 0,00 0,00 1.918,67 0,00 9,82 0,00 9,82 1.908,85 685,50 0,00 30/06/2014
499 106 JOAO CARLOS DE FARIA LIMA INVESTIGADOR DE POLICIA 2 ATIVO CONTAGEM - COMARCA; COORD REG DEF ORDEM ECONOMICA TRIB CONTAGEM 1.139,98 0,00 0,00 0,00 0,00 0,00 1.139,98 0,00 0,00 0,00 0,00 1.139,98 685,50 0,00 30/06/2014
500 297600 JOAO CARLOS SILVA ESTAGIARIO ATIVO CARMO DO RIO CLARO; CARMO DO RIO CLARO - PJ ÚNICA 545,00 0,00 0,00 0,00 0,00 0,00 545,00 0,00 0,00 0,00 0,00 545,00 111,30 0,00 30/06/2014
501 410200 JOAO GABRIEL SPINI DE CASTRO ESTAGIARIO ATIVO UBERLANDIA; UBERLANDIA-24 PJ 545,00 0,00 0,00 0,00 0,00 0,00 545,00 0,00 0,00 0,00 0,00 545,00 111,30 0,00 30/06/2014
502 307600 JOAO HENRIQUE GONCALVES BALMANT ESTAGIARIO ATIVO MANTENA; MANTENA-02 PJ 545,00 0,00 0,00 0,00 0,00 0,00 545,00 0,00 0,00 0,00 0,00 545,00 111,30 0,00 30/06/2014
503 307700 JOAO PAULO GOMES LIMA CORDEIRO ESTAGIARIO ATIVO MEDINA; MEDINA - PJ ÚNICA 545,00 0,00 0,00 0,00 0,00 0,00 545,00 0,00 0,00 0,00 0,00 545,00 111,30 0,00 30/06/2014
504 416300 JOAO PEDRO DRUMOND SOUZA ESTAGIARIO ATIVO BELO HORIZONTE; CRIANÇAS E ADOLESCENTES-23 PJ-INFRACIONAL 545,00 0,00 0,00 0,00 0,00 0,00 545,00 0,00 0,00 0,00 0,00 545,00 111,30 0,00 30/06/2014
505 321200 JOAO RAFFAEL VELOSO SOARES ESTAGIARIO ATIVO Informação não disponível 545,00 0,00 0,00 0,00 0,00 0,00 545,00 0,00 0,00 0,00 0,00 545,00 111,30 0,00 30/06/2014
506 406200 JOAO VITOR SILVA MIRANDA ESTAGIARIO ATIVO BELO HORIZONTE; 18 PJ DEF DIR HUM AP COM CONF AG E FISC POL 545,00 0,00 0,00 0,00 0,00 0,00 545,00 0,00 0,00 0,00 0,00 545,00 111,30 0,00 30/06/2014
507 395200 JOELMA FRANKLIN PINHEIRO ESTAGIARIO ATIVO Informação não disponível 545,00 0,00 0,00 0,00 0,00 0,00 545,00 0,00 0,00 0,00 0,00 545,00 79,50 0,00 30/06/2014
508 358600 JOHNNY SANTOS VILLAR ESTAGIARIO ATIVO JUIZ DE FORA; JUIZ DE FORA-09 PJ 545,00 0,00 0,00 0,00 0,00 0,00 545,00 0,00 0,00 0,00 0,00 545,00 106,00 0,00 30/06/2014
509 390400 JOICE CRISTINA DE PAULA ESTAGIARIO ATIVO DIVINOPOLIS; DIVINÓPOLIS - 06ª PJ 545,00 0,00 0,00 0,00 0,00 0,00 545,00 0,00 0,00 0,00 0,00 545,00 111,30 0,00 30/06/2014
510 413900 JONAS BOMTEMPO GUEDES ESTAGIARIO ATIVO JUIZ DE FORA; JUIZ DE FORA-12 PJ 545,00 0,00 0,00 0,00 0,00 0,00 545,00 0,00 0,00 0,00 0,00 545,00 106,00 0,00 30/06/2014
511 290500 JORDANA VERISSIMO MESQUITA ESTAGIARIO ATIVO MONTES CLAROS; MONTES CLAROS-11 PJ 545,00 0,00 0,00 0,00 0,00 0,00 545,00 0,00 0,00 0,00 0,00 545,00 106,00 0,00 30/06/2014
512 308000 JORDANNY SANTAN DE OLIVEIRA ESTAGIARIO ATIVO NOVA SERRANA; NOVA SERRANA-01 PJ 545,00 0,00 0,00 0,00 0,00 0,00 545,00 0,00 0,00 0,00 0,00 545,00 111,30 0,00 30/06/2014
513 326900 JOSE BORGES PEREIRA COSTA ESTAGIARIO ATIVO CACHOEIRA DE MINAS; CACHOEIRA DE MINAS - PJ ÚNICA 545,00 0,00 0,00 0,00 0,00 0,00 545,00 0,00 0,00 0,00 0,00 545,00 111,30 0,00 30/06/2014
514 93 JOSE CRISTIANO DE OLIVEIRA SAMPAIO CABO ATIVO BELO HORIZONTE - COMARCA; GAECO - SECRETARIA 1.280,94 0,00 0,00 0,00 0,00 0,00 1.280,94 0,00 0,00 0,00 0,00 1.280,94 685,50 0,00 30/06/2014
515 376800 JOSE DE ARIMATEA DUARTE JUNIOR ESTAGIARIO ATIVO UBERLANDIA; UBERLANDIA-06 PJ 545,00 0,00 0,00 0,00 0,00 0,00 545,00 0,00 0,00 0,00 0,00 545,00 111,30 0,00 30/06/2014
516 94 JOSE DO CARMO BARBOSA CAPITAO ATIVO BELO HORIZONTE - COMARCA; COORD DE PLANEJAMENTO INSTITUCIONAL 3.170,67 0,00 0,00 0,00 0,00 0,00 3.170,67 0,00 140,57 0,00 140,57 3.030,10 685,50 0,00 30/06/2014
517 382500 JOSE GERALDO DE OLIVEIRA NETO ESTAGIARIO ATIVO BELO HORIZONTE; DIRETORIA DE MANUTENCAO PREDIAL 817,50 0,00 0,00 0,00 0,00 0,00 817,50 0,00 0,00 0,00 0,00 817,50 111,30 0,00 30/06/2014
518 73 JOSE WALTER REGINA CABO ATIVO BELO HORIZONTE - COMARCA; GAECO - SECRETARIA 1.280,94 0,00 0,00 0,00 0,00 0,00 1.280,94 0,00 0,00 0,00 0,00 1.280,94 685,50 0,00 30/06/2014
519 290600 JOSIANE CRISTINA MENDONCA ESTAGIARIO ATIVO LAVRAS; COORD REG DO MA DA BACIA DO RIO GRANDE 545,00 0,00 0,00 0,00 0,00 0,00 545,00 0,00 0,00 0,00 0,00 545,00 111,30 0,00 30/06/2014
520 313600 JOSIELLE GARCIA DE MELO ESTAGIARIO ATIVO CANDEIAS; CANDEIAS - PJ ÚNICA 545,00 0,00 0,00 0,00 0,00 0,00 545,00 0,00 0,00 0,00 0,00 545,00 111,30 0,00 30/06/2014
521 410300 JOSUE CARLOS DE OLIVEIRA ESTAGIARIO ATIVO BELO HORIZONTE; OUVIDORIA DO MPMG 817,50 0,00 0,00 0,00 0,00 0,00 817,50 0,00 0,00 0,00 0,00 817,50 111,30 0,00 30/06/2014
522 382700 JOYCE MIRIAM FERREIRA ESTAGIARIO ATIVO Informação não disponível 817,50 0,00 0,00 0,00 0,00 0,00 817,50 0,00 0,00 0,00 0,00 817,50 111,30 0,00 30/06/2014
523 313700 JULIA BARROS DE ARAUJO ESTAGIARIO ATIVO DIVINOPOLIS; DIVINOPOLIS-12 PJ 545,00 0,00 0,00 0,00 0,00 0,00 545,00 0,00 0,00 0,00 0,00 545,00 111,30 0,00 30/06/2014
524 358700 JULIA CARNEIRO COLARES ESTAGIARIO ATIVO BELO HORIZONTE; GABINETE DOS PROCURADORES 545,00 0,00 0,00 0,00 0,00 0,00 545,00 0,00 0,00 0,00 0,00 545,00 111,30 0,00 30/06/2014
525 279300 JULIA GRUPPIONI PASSOS ESTAGIARIO ATIVO PONTE NOVA; PONTE NOVA-04 PJ 545,00 0,00 0,00 0,00 0,00 0,00 545,00 0,00 0,00 0,00 0,00 545,00 111,30 0,00 30/06/2014
526 410400 JULIA MARIA MOL LIMA ESTAGIARIO ATIVO BELO HORIZONTE; 18 PJ DEF DIR HUM AP COM CONF AG E FISC POL 545,00 0,00 0,00 0,00 0,00 0,00 545,00 0,00 0,00 0,00 0,00 545,00 111,30 0,00 30/06/2014
527 421700 JULIA SOARES FAGUNDES ESTAGIARIO ATIVO BETIM; BETIM-12 PJ 199,83 0,00 0,00 0,00 0,00 0,00 199,83 0,00 0,00 0,00 0,00 199,83 26,50 0,00 30/06/2014
528 352100 JULIANA ALVES BELO ESTAGIARIO ATIVO BELO HORIZONTE; DEFESA DA SAUDE-19 PJ 545,00 0,00 0,00 0,00 0,00 0,00 545,00 0,00 0,00 0,00 0,00 545,00 111,30 0,00 30/06/2014
529 395300 JULIANA CRISTINA SANTOS ARAUJO ESTAGIARIO ATIVO ITABIRA; ITABIRA-02 PJ 545,00 0,00 0,00 0,00 0,00 0,00 545,00 0,00 0,00 0,00 0,00 545,00 111,30 0,00 30/06/2014
530 266800 JULIANA DE MESQUITA SARDINHA ESTAGIARIO ATIVO SAO LOURENCO; SAO LOURENCO-04 PJ 545,00 0,00 0,00 0,00 0,00 0,00 545,00 0,00 0,00 0,00 0,00 545,00 68,90 0,00 30/06/2014
531 346800 JULIANA FELIX PENIDO ESTAGIARIO ATIVO MURIAE; MURIAÉ - 01ª PJ 545,00 0,00 0,00 0,00 0,00 0,00 545,00 0,00 0,00 0,00 0,00 545,00 111,30 0,00 30/06/2014
532 410500 JULIANA MARIA SILVA DE ABREU ESTAGIARIO ATIVO BELO HORIZONTE; TOXICOS-13 PJ 545,00 0,00 0,00 0,00 0,00 0,00 545,00 0,00 0,00 0,00 0,00 545,00 111,30 0,00 30/06/2014
533 382800 JULIANA PAULA DE OLIVEIRA ESTAGIARIO ATIVO BELO HORIZONTE; 22ª PJ DEF DIREITO PESSOAS DEFICIENCIA IDOSOS 817,50 0,00 0,00 0,00 0,00 0,00 817,50 0,00 0,00 0,00 0,00 817,50 111,30 0,00 30/06/2014
534 390500 JULIANA VIEIRA DAVID ESTAGIARIO ATIVO JUIZ DE FORA; JUIZ DE FORA-23 PJ 545,00 0,00 0,00 0,00 0,00 0,00 545,00 0,00 0,00 0,00 0,00 545,00 106,00 0,00 30/06/2014
535 313800 JULIANO GONCALVES NUNES TEIXEIRA ESTAGIARIO ATIVO PATOS DE MINAS; PATOS DE MINAS-02 PJ 545,00 0,00 0,00 0,00 0,00 0,00 545,00 0,00 0,00 0,00 0,00 545,00 111,30 0,00 30/06/2014
536 303900 JULIO CESAR FLEMING ALMEIDA DE MORAES ESTAGIARIO ATIVO POUSO ALEGRE; POUSO ALEGRE-07 PJ 545,00 0,00 0,00 0,00 0,00 0,00 545,00 0,00 0,00 0,00 0,00 545,00 111,30 0,00 30/06/2014
537 5 JULIO CESAR GOMES MENEGUITE MAJOR ATIVO BELO HORIZONTE - COMARCA; GAECO - SECRETARIA 3.425,36 0,00 0,00 0,00 0,00 0,00 3.425,36 0,00 178,77 0,00 178,77 3.246,59 685,50 0,00 30/06/2014
538 331800 KAMILA FONSECA RANGE ESTAGIARIO ATIVO JUATUBA; AIMORES - PJ ÚNICA 545,00 0,00 0,00 0,00 0,00 0,00 545,00 0,00 0,00 0,00 0,00 545,00 111,30 0,00 30/06/2014
539 418600 KAMILLA GRAZIELE FREITAS SILVA ESTAGIARIO ATIVO BELO HORIZONTE; CRIANÇAS E ADOLESCENTES-23 PJ-INFRACIONAL 817,50 0,00 0,00 0,00 0,00 0,00 817,50 0,00 0,00 0,00 0,00 817,50 106,00 0,00 30/06/2014
540 273900 KAREN DANTAS ARAUJO ESTAGIARIO ATIVO FORMIGA; FORMIGA-03 PJ 545,00 0,00 0,00 0,00 0,00 0,00 545,00 0,00 0,00 0,00 0,00 545,00 106,00 0,00 30/06/2014
541 97 KAREN DE PAULA LOPES DELEGADO DE POLICIA 1 ATIVO BELO HORIZONTE - COMARCA; COMB CRIMES PRAT POR AG POL MUN-PROC JUST ESP 3.099,00 0,00 0,00 0,00 0,00 0,00 3.099,00 0,00 1.133,97 0,00 1.133,97 1.965,03 1.287,91 4.028,70 30/06/2014
542 304000 KARINA AMELIA DE OLIVEIRA ESTAGIARIO ATIVO POUSO ALEGRE; POUSO ALEGRE-01 PJ 545,00 0,00 0,00 0,00 0,00 0,00 545,00 0,00 0,00 0,00 0,00 545,00 111,30 0,00 30/06/2014
543 421800 KARINA RESENDE BRASIL ESTAGIARIO ATIVO BELO HORIZONTE; COORD DE INCLUSAO E MOBILIZACAO SOCIAIS 272,50 0,00 0,00 0,00 0,00 0,00 272,50 0,00 0,00 0,00 0,00 272,50 47,70 0,00 30/06/2014
544 308200 KARINE RIBEIRO CARDOSO ESTAGIARIO ATIVO PERDIZES; PERDIZES - PJ ÚNICA 545,00 0,00 0,00 0,00 0,00 0,00 545,00 0,00 0,00 0,00 0,00 545,00 212,00 545,00 30/06/2014
545 400200 KARLA SANTOS ATHAYDE ESTAGIARIO ATIVO UBERLANDIA; UBERLANDIA-05 PJ 545,00 0,00 0,00 0,00 0,00 0,00 545,00 0,00 0,00 0,00 0,00 545,00 111,30 0,00 30/06/2014
546 376900 KARLLA MOREIRA CARVALHO ESTAGIARIO ATIVO Informação não disponível 545,00 0,00 0,00 0,00 0,00 0,00 545,00 0,00 0,00 0,00 0,00 545,00 111,30 0,00 30/06/2014
547 274000 KAROLINA DE OLIVERIA LANA ESTAGIARIO ATIVO CATAGUASES; CATAGUASES-01 PJ 545,00 0,00 0,00 0,00 0,00 0,00 545,00 0,00 0,00 0,00 0,00 545,00 63,60 0,00 30/06/2014
548 390600 KASSILEIA APARECIDA DE SOUZA ESTAGIARIO ATIVO IBIA; IBIA - PJ ÚNICA 545,00 0,00 0,00 0,00 0,00 0,00 545,00 0,00 0,00 0,00 0,00 545,00 111,30 0,00 30/06/2014
549 352300 KATIA COLLA DA CUNHA ESTAGIARIO ATIVO BELO HORIZONTE; GABINETE DOS PROCURADORES 545,00 0,00 0,00 0,00 0,00 0,00 545,00 0,00 0,00 0,00 0,00 545,00 111,30 0,00 30/06/2014
550 352400 KATLLY ALVES FONSECA ESTAGIARIO ATIVO MONTE CARMELO; MONTE CARMELO-01 PJ 545,00 0,00 0,00 0,00 0,00 0,00 545,00 0,00 0,00 0,00 0,00 545,00 111,30 0,00 30/06/2014
551 352200 KAYRO DEIVID GOMES DE OLIVEIRA ESTAGIARIO ATIVO ARAGUARI; ARAGUARI-02 PJ 545,00 0,00 0,00 0,00 0,00 0,00 545,00 0,00 0,00 0,00 0,00 545,00 111,30 0,00 30/06/2014
552 400300 KEITH EMANUELLY MARTINS ESTAGIARIO ATIVO PORTEIRINHA; PORTEIRINHA - PJ UNICA 545,00 0,00 0,00 0,00 0,00 0,00 545,00 0,00 0,00 0,00 0,00 545,00 111,30 0,00 30/06/2014
553 406300 KELLY CRISTIAN BARROS ROCHA ESTAGIARIO ATIVO ITAMBACURI; ITAMBACURI-02 PJ 545,00 0,00 0,00 0,00 0,00 0,00 545,00 0,00 0,00 0,00 0,00 545,00 111,30 0,00 30/06/2014
554 416400 KELLY DE SOUZA BARBOSA ESTAGIARIO ATIVO PASSOS; PASSOS-07 PJ 545,00 0,00 0,00 0,00 0,00 0,00 545,00 0,00 0,00 0,00 0,00 545,00 111,30 0,00 30/06/2014
555 367300 KENIA CAROLINA MARTINS DE SOUZA ESTAGIARIO ATIVO BELO HORIZONTE; AUDITORIA MILITAR-09 PJ 545,00 0,00 0,00 0,00 0,00 0,00 545,00 0,00 0,00 0,00 0,00 545,00 111,30 0,00 30/06/2014
556 335100 KEREN JOQUEBERDE DOS SANTOS ESTAGIARIO ATIVO BELO HORIZONTE; JUIZO CRIMINAL-12 PJ 545,00 0,00 0,00 0,00 0,00 0,00 545,00 0,00 0,00 0,00 0,00 545,00 111,30 0,00 30/06/2014
557 327000 KESIA LAIS PAGANI DA FONSECA ESTAGIARIO ATIVO TRES CORACOES; TRES CORACOES-03 PJ 545,00 0,00 0,00 0,00 0,00 0,00 545,00 0,00 0,00 0,00 0,00 545,00 68,90 0,00 30/06/2014
558 352600 KEZIA DE CASSIA ANTUNES CARDOSO ESTAGIARIO ATIVO SAO JOAO DA PONTE; SÃO JOÃO DA PONTE - PJ ÚNICA 545,00 0,00 0,00 0,00 0,00 0,00 545,00 0,00 0,00 0,00 0,00 545,00 79,50 0,00 30/06/2014
559 367400 KEZIA TELES GONCALVES ESTAGIARIO ATIVO Informação não disponível 545,00 0,00 0,00 0,00 0,00 0,00 545,00 0,00 0,00 0,00 0,00 545,00 111,30 0,00 30/06/2014
560 321400 KLAYTON ROGERIO DE OLIVEIRA ESTAGIARIO ATIVO SACRAMENTO; SACRAMENTO-01 PJ 545,00 0,00 0,00 0,00 0,00 0,00 545,00 0,00 0,00 0,00 0,00 545,00 111,30 0,00 30/06/2014
561 335200 KRIS KRISTOFERSON PEREIRA ESTAGIARIO ATIVO BELO HORIZONTE; JUIZADO ESPECIAL CÍVEL E CRIMINAL - 08ª PJ 545,00 0,00 0,00 0,00 0,00 0,00 545,00 0,00 0,00 0,00 0,00 545,00 111,30 0,00 30/06/2014
562 377100 LAIANA SANTANA RIBEIRO ESTAGIARIO ATIVO MARIANA; MARIANA-02 PJ 545,00 0,00 0,00 0,00 0,00 0,00 545,00 0,00 0,00 0,00 0,00 545,00 111,30 0,00 30/06/2014
563 371600 LAIANE MELO MARTINS ESTAGIARIO ATIVO IPATINGA; IPATINGA-09 PJ 545,00 0,00 0,00 0,00 0,00 0,00 545,00 0,00 0,00 0,00 0,00 545,00 111,30 0,00 30/06/2014
564 327100 LAIENY FERREIRA BERG ESTAGIARIO ATIVO SANTOS DUMONT; SANTOS DUMONT-03 PJ 545,00 0,00 0,00 0,00 0,00 0,00 545,00 0,00 0,00 0,00 0,00 545,00 111,30 0,00 30/06/2014
565 371700 LAIS ALMEIDA DE SOUZA LOPES ESTAGIARIO ATIVO JUIZ DE FORA; JUIZ DE FORA-02 PJ 545,00 0,00 0,00 0,00 0,00 0,00 545,00 0,00 0,00 0,00 0,00 545,00 95,40 0,00 30/06/2014
566 367500 LAIS CANEDO SANTIAGO ESTAGIARIO ATIVO DIVINOPOLIS; DIVINÓPOLIS - 02ª PJ 545,00 0,00 0,00 0,00 0,00 0,00 545,00 0,00 0,00 0,00 0,00 545,00 111,30 0,00 30/06/2014
567 414000 LAIS MACHADO PORTO LEMOS ESTAGIARIO ATIVO PASSOS; PASSOS-03 PJ 545,00 0,00 0,00 0,00 0,00 0,00 545,00 0,00 0,00 0,00 0,00 545,00 111,30 0,00 30/06/2014
568 342000 LAIS MANSANO DE OLIVEIRA ESTAGIARIO ATIVO GUARANESIA; GUARANESIA - PJ ÚNICA 526,83 0,00 0,00 0,00 0,00 0,00 526,83 0,00 0,00 0,00 0,00 526,83 63,60 0,00 30/06/2014
569 313900 LAIS MEDEIROS DANTAS ESTAGIARIO ATIVO CAPINOPOLIS; CAPINOPOLIS - PJ ÚNICA 545,00 0,00 0,00 0,00 0,00 0,00 545,00 0,00 0,00 0,00 0,00 545,00 111,30 0,00 30/06/2014
570 340800 LAIS PECORA RIBEIRO ESTAGIARIO ATIVO UBERLANDIA; UBERLANDIA-15 PJ 545,00 0,00 0,00 0,00 0,00 0,00 545,00 0,00 0,00 0,00 0,00 545,00 100,70 0,00 30/06/2014
571 26 LANA SAYONARA PEIXOTO 1O. SARGENTO ATIVO BELO HORIZONTE - COMARCA; COORD DE PLANEJAMENTO INSTITUCIONAL 1.918,66 0,00 0,00 0,00 0,00 0,00 1.918,66 0,00 9,82 0,00 9,82 1.908,84 685,50 0,00 30/06/2014
572 362700 LANDRE RAFAEL DE CARVALHO ESTAGIARIO ATIVO CURVELO; CURVELO-03 PJ 545,00 0,00 0,00 0,00 0,00 0,00 545,00 0,00 0,00 0,00 0,00 545,00 106,00 0,00 30/06/2014
573 406400 LARA GABRIELA PEREIRA SOARES ESTAGIARIO ATIVO Informação não disponível 545,00 0,00 0,00 0,00 0,00 0,00 545,00 0,00 0,00 0,00 0,00 545,00 111,30 0,00 30/06/2014
574 255600 LARISSA ALVARENGA MARINGUES DE AQUINO ESTAGIARIO ATIVO Informação não disponível 545,00 0,00 0,00 0,00 0,00 0,00 545,00 0,00 0,00 0,00 0,00 545,00 111,30 0,00 30/06/2014
575 290700 LARISSA CARMO LESSA PIRES ESTAGIARIO ATIVO MONTES CLAROS; MONTES CLAROS-08 PJ 545,00 0,00 0,00 0,00 0,00 0,00 545,00 0,00 0,00 0,00 0,00 545,00 111,30 0,00 30/06/2014
576 383100 LARISSA COELHO ALBERTIN ESTAGIARIO ATIVO BELO HORIZONTE; CAO-DIREITOS HUMANOS E APOIO COMUNITARIO 545,00 0,00 0,00 0,00 0,00 0,00 545,00 0,00 0,00 0,00 0,00 545,00 111,30 0,00 30/06/2014
577 371800 LARISSA FERNANDA BATISTA RESENDE ESTAGIARIO ATIVO RIO PARANAIBA; RIO PARANAIBA - PJ ÚNICA 545,00 0,00 0,00 0,00 0,00 0,00 545,00 0,00 0,00 0,00 0,00 545,00 111,30 0,00 30/06/2014
578 421900 LARISSA LAREN SILVA BARROSO ESTAGIARIO ATIVO GOVERNADOR VALADARES; GOVERNADOR VALADARES-09 PJ 272,50 0,00 0,00 0,00 0,00 0,00 272,50 0,00 0,00 0,00 0,00 272,50 47,70 0,00 30/06/2014
579 418700 LARISSA TAYRINE ALVES BRANDAO ESTAGIARIO ATIVO BELO HORIZONTE; TRIBUNAL DO JURI-07 PJ 545,00 0,00 0,00 0,00 0,00 0,00 545,00 0,00 0,00 0,00 0,00 545,00 111,30 0,00 30/06/2014
580 347000 LARISSA YASMIN FIGUEIREDO REIS ESTAGIARIO ATIVO BELO HORIZONTE; JUIZO CRIMINAL-12 PJ 545,00 0,00 0,00 0,00 0,00 0,00 545,00 0,00 0,00 0,00 0,00 545,00 111,30 0,00 30/06/2014
581 414100 LAUANE THAIS MOREIRA GOMES ESTAGIARIO ATIVO MALACACHETA; MALACACHETA - PJ ÚNICA 545,00 0,00 0,00 0,00 0,00 0,00 545,00 0,00 0,00 0,00 0,00 545,00 106,00 0,00 30/06/2014
582 352700 LAURA CANEDO SANTIAGO ESTAGIARIO ATIVO Informação não disponível 545,00 0,00 0,00 0,00 0,00 0,00 545,00 0,00 0,00 0,00 0,00 545,00 111,30 0,00 30/06/2014
583 327300 LAURA CAROLINA DE PULA ROSA ESTAGIARIO ATIVO BELO HORIZONTE; JUIZADO ESPECIAL CÍVEL E CRIMINAL - 08ª PJ 817,50 0,00 0,00 0,00 0,00 0,00 817,50 0,00 0,00 0,00 0,00 817,50 111,30 0,00 30/06/2014
584 395400 LAURA CRISTINA BIOTTULFE ACHCAR ESTAGIARIO ATIVO UBERABA; UBERABA-11 PJ 545,00 0,00 0,00 0,00 0,00 0,00 545,00 0,00 0,00 0,00 0,00 545,00 111,30 0,00 30/06/2014
585 390700 LAURA DA SILVA MEIRA ESTAGIARIO ATIVO INHAPIM; INHAPIM-02 PJ 545,00 0,00 0,00 0,00 0,00 0,00 545,00 0,00 0,00 0,00 0,00 545,00 106,00 0,00 30/06/2014
586 410600 LAURA LOVATO PIRES DE LEMOS ESTAGIARIO ATIVO BELO HORIZONTE; DEFESA DA SAUDE-19 PJ 545,00 0,00 0,00 0,00 0,00 0,00 545,00 0,00 0,00 0,00 0,00 545,00 111,30 0,00 30/06/2014
587 304100 LAYRA DIAS DE OLIVEIRA BRAZ ESTAGIARIO ATIVO CATAGUASES; CATAGUASES-03 PJ 545,00 0,00 0,00 0,00 0,00 0,00 545,00 0,00 0,00 0,00 0,00 545,00 106,00 0,00 30/06/2014
588 395500 LAYS LOPES CARNEIRO BARCELOS ESTAGIARIO ATIVO BELO HORIZONTE; JUIZO DE FAMILIA-02 PJ 545,00 0,00 0,00 0,00 0,00 0,00 545,00 0,00 0,00 0,00 0,00 545,00 111,30 0,00 30/06/2014
589 383200 LAYSLA NATALIA AMARO DE OLIVEIRA ESTAGIARIO ATIVO BELO HORIZONTE; DIRET DE INFORMACAO E CONHECIMENTO-DINC/CEAF 790,25 0,00 0,00 0,00 0,00 0,00 790,25 0,00 0,00 0,00 0,00 790,25 106,00 0,00 30/06/2014
590 362800 LEANDRO JOSE RIBEIRO ESTAGIARIO ATIVO PATROCINIO; PATROCINIO-03 PJ 545,00 0,00 0,00 0,00 0,00 0,00 545,00 0,00 0,00 0,00 0,00 545,00 111,30 0,00 30/06/2014
591 414200 LEANDRO TEIXEIRA PORTO ESTAGIARIO ATIVO BELO HORIZONTE; JUIZO CRIMINAL-12 PJ 545,00 0,00 0,00 0,00 0,00 0,00 545,00 0,00 0,00 0,00 0,00 545,00 100,70 0,00 30/06/2014
592 335400 LEDA ELETO FRANCA ESTAGIARIO ATIVO BELO HORIZONTE; JUIZO CRIMINAL-12 PJ 545,00 0,00 0,00 0,00 0,00 0,00 545,00 0,00 0,00 0,00 0,00 545,00 111,30 0,00 30/06/2014
593 362900 LELIANE FELISBINA DA CRUZ SILVA ESTAGIARIO ATIVO NOVA RESENDE; NOVA RESENDE - PJ ÚNICA 545,00 0,00 0,00 0,00 0,00 0,00 545,00 0,00 0,00 0,00 0,00 545,00 111,30 0,00 30/06/2014
594 383300 LEMUEL CAVALHEIRO DE ALMEIDA ESTAGIARIO ATIVO BELO HORIZONTE; CENTRO DE ESTUDOS E APERFEICOAMENTO FUNCIONAL 817,50 0,00 0,00 0,00 0,00 0,00 817,50 0,00 0,00 0,00 0,00 817,50 111,30 0,00 30/06/2014
595 390800 LEONAM ODRACIR DA SILVA CAMPOS ESTAGIARIO ATIVO BELO HORIZONTE; AUDITORIA MILITAR-09 PJ 545,00 0,00 0,00 0,00 0,00 0,00 545,00 0,00 0,00 0,00 0,00 545,00 111,30 0,00 30/06/2014
596 340900 LEONARDO AZEVEDO ESTAGIARIO ATIVO GOVERNADOR VALADARES; GOVERNADOR VALADARES-14 PJ 545,00 0,00 0,00 0,00 0,00 0,00 545,00 0,00 0,00 0,00 0,00 545,00 106,00 0,00 30/06/2014
597 377200 LEONARDO CUSTODIO DA SILVA ESTAGIARIO ATIVO BELO HORIZONTE; COORD DE INCLUSAO E MOBILIZACAO SOCIAIS 545,00 0,00 0,00 0,00 0,00 0,00 545,00 0,00 0,00 0,00 0,00 545,00 111,30 0,00 30/06/2014
598 367800 LEONARDO DE OLIVEIRA MARCHEZINI ESTAGIARIO ATIVO Informação não disponível 545,00 0,00 0,00 0,00 0,00 0,00 545,00 0,00 0,00 0,00 0,00 545,00 111,30 0,00 30/06/2014
599 416500 LEONARDO GUIMARAES GOMES ESTAGIARIO ATIVO Informação não disponível 545,00 0,00 0,00 0,00 0,00 0,00 545,00 0,00 0,00 0,00 0,00 545,00 111,30 0,00 30/06/2014
600 400500 LEONARDO NAZARETH VALADARES ESTAGIARIO ATIVO BELO HORIZONTE; GABINETE DOS PROCURADORES 545,00 0,00 0,00 0,00 0,00 0,00 545,00 0,00 0,00 0,00 0,00 545,00 100,70 0,00 30/06/2014
601 363000 LEONARDO PEREIRA DE SOUZA ESTAGIARIO ATIVO BELO HORIZONTE; TOXICOS-13 PJ 545,00 0,00 0,00 0,00 0,00 0,00 545,00 0,00 0,00 0,00 0,00 545,00 111,30 0,00 30/06/2014
602 400400 LEONARDO PEREIRA LANA ESTAGIARIO ATIVO BELO HORIZONTE; DIRETORIA DE SISTEMAS DE INFORMACAO 817,50 0,00 0,00 0,00 0,00 0,00 817,50 0,00 0,00 0,00 0,00 817,50 111,30 0,00 30/06/2014
603 371900 LETICIA ALONSO DO ESPIRITO SANTO ESTAGIARIO ATIVO JUIZ DE FORA; JUIZ DE FORA-12 PJ 545,00 0,00 0,00 0,00 0,00 0,00 545,00 0,00 0,00 0,00 0,00 545,00 106,00 0,00 30/06/2014
604 304200 LETICIA CAIXETA LIMA BOSSI ESTAGIARIO ATIVO TEOFILO OTONI; TEOFILO OTONI-05 PJ 545,00 0,00 0,00 0,00 0,00 0,00 545,00 0,00 0,00 0,00 0,00 545,00 111,30 0,00 30/06/2014
605 400600 LETICIA CANABRAVA HADDAD ABJAND ESTAGIARIO ATIVO SETE LAGOAS; SETE LAGOAS-03 PJ 545,00 0,00 0,00 0,00 0,00 0,00 545,00 0,00 0,00 0,00 0,00 545,00 111,30 0,00 30/06/2014
606 372000 LETICIA DOS SANTOS COUTO ESTAGIARIO ATIVO PAINS; ALFENAS-03 PJ 545,00 0,00 0,00 0,00 0,00 0,00 545,00 0,00 0,00 0,00 0,00 545,00 111,30 0,00 30/06/2014
607 406500 LETICIA FARIA FREITAS FRAGA ESTAGIARIO ATIVO BELO HORIZONTE; 18 PJ DEF DIR HUM AP COM CONF AG E FISC POL 545,00 0,00 0,00 0,00 0,00 0,00 545,00 0,00 0,00 0,00 0,00 545,00 111,30 0,00 30/06/2014
608 352800 LETICIA FATIMA GOMES ESTAGIARIO ATIVO BELO HORIZONTE; TRIBUNAL DO JURI-07 PJ 545,00 0,00 0,00 0,00 0,00 0,00 545,00 0,00 0,00 0,00 0,00 545,00 111,30 0,00 30/06/2014
609 287300 LETICIA GODOY RIBEIRO ESTAGIARIO ATIVO POCOS DE CALDAS; POCOS DE CALDAS-05 PJ 545,00 0,00 0,00 0,00 0,00 0,00 545,00 0,00 0,00 0,00 0,00 545,00 111,30 0,00 30/06/2014
610 414300 LETICIA GONCALVES VALERIO ESTAGIARIO ATIVO VARGINHA; VARGINHA-01 PJ 545,00 0,00 0,00 0,00 0,00 0,00 545,00 0,00 0,00 0,00 0,00 545,00 111,30 0,00 30/06/2014
611 377300 LETICIA MULLER DE ABREU OLIVEIRA ESTAGIARIO ATIVO BELO HORIZONTE; JUIZO CRIMINAL-12 PJ 545,00 0,00 0,00 0,00 0,00 0,00 545,00 0,00 0,00 0,00 0,00 545,00 111,30 0,00 30/06/2014
612 377400 LETICIA PEREIRA MONTEIRO ESTAGIARIO ATIVO PARAISOPOLIS; PARAISÓPOLIS - PJ ÚNICA 545,00 0,00 0,00 0,00 0,00 0,00 545,00 0,00 0,00 0,00 0,00 545,00 111,30 0,00 30/06/2014
613 398200 LETICIA PRUDENTE MIRANDA ESTAGIARIO ATIVO ITAJUBA; ITAJUBA-01 PJ 545,00 0,00 0,00 0,00 0,00 0,00 545,00 0,00 0,00 0,00 0,00 545,00 111,30 0,00 30/06/2014
614 355800 LETICIA SALLES FERNANDES ESTAGIARIO ATIVO LEOPOLDINA; LEOPOLDINA-02 PJ 545,00 0,00 0,00 0,00 0,00 0,00 545,00 0,00 0,00 0,00 0,00 545,00 111,30 0,00 30/06/2014
615 410700 LETICIA SCARLET DA COSTA NEVES ESTAGIARIO ATIVO BELO HORIZONTE; JUIZADO ESPECIAL CÍVEL E CRIMINAL - 08ª PJ 545,00 0,00 0,00 0,00 0,00 0,00 545,00 0,00 0,00 0,00 0,00 545,00 111,30 0,00 30/06/2014
616 308400 LIDIANE DAS DORES SILVA PEREIRA ESTAGIARIO ATIVO BONFINOPOLIS DE MINAS; BONFINOPOLIS DE MINAS - PJ ÚNICA 545,00 0,00 0,00 0,00 0,00 0,00 545,00 0,00 0,00 0,00 0,00 545,00 111,30 0,00 30/06/2014
617 363200 LIGIA TEIXEIRA ESTAGIARIO ATIVO CONSELHEIRO LAFAIETE; CONSELHEIRO LAFAIETE-06 PJ 545,00 0,00 0,00 0,00 0,00 0,00 545,00 0,00 0,00 0,00 0,00 545,00 111,30 0,00 30/06/2014
618 102 LILIAN ALVES DE CARVALHO INVESTIGADOR DE POLICIA 2 ATIVO BELO HORIZONTE - COMARCA; CAO-CRIM EXEC PENAL TRIB JURI AUD MILITAR 1.572,24 0,00 0,00 0,00 0,00 0,00 1.572,24 0,00 0,00 0,00 0,00 1.572,24 685,50 0,00 30/06/2014
619 400700 LILIAN BARBOSA PEREIRA DA COSTA ESTAGIARIO ATIVO Informação não disponível 545,00 0,00 0,00 0,00 0,00 0,00 545,00 0,00 0,00 0,00 0,00 545,00 111,30 0,00 30/06/2014
620 290900 LILIAN SARAH DOS ANJOS AMARAL ESTAGIARIO ATIVO DIVINOPOLIS; DIVINOPOLIS-04 PJ 545,00 0,00 0,00 0,00 0,00 0,00 545,00 0,00 0,00 0,00 0,00 545,00 111,30 0,00 30/06/2014
621 281500 LINDA DAIMOND ESTAGIARIO ATIVO DIVINOPOLIS; DIVINOPOLIS-03 PJ 545,00 0,00 0,00 0,00 0,00 0,00 545,00 0,00 0,00 0,00 0,00 545,00 84,80 0,00 30/06/2014
622 327400 LINDAMARIA GRASSELLI LIMA ESTAGIARIO ATIVO CONTAGEM; CONTAGEM-24 PJ 545,00 0,00 0,00 0,00 0,00 0,00 545,00 0,00 0,00 0,00 0,00 545,00 111,30 0,00 30/06/2014
623 298200 LIVIA MARIA ASSIS CAMPOS ESTAGIARIO ATIVO BELO HORIZONTE; PROC. JUSTICA DIR. DIFUSOS E COLETIVOS 545,00 0,00 0,00 0,00 0,00 0,00 545,00 0,00 0,00 0,00 0,00 545,00 68,90 0,00 30/06/2014
624 372100 LIVIA MARIA DIAS ANDRADE ESTAGIARIO ATIVO ITAUNA; ITAUNA-03 PJ 545,00 0,00 0,00 0,00 0,00 0,00 545,00 0,00 0,00 0,00 0,00 545,00 68,90 0,00 30/06/2014
625 372200 LOANE MARTINS URBANO ESTAGIARIO ATIVO UBERABA; UBERABA-01 PJ 545,00 0,00 0,00 0,00 0,00 0,00 545,00 0,00 0,00 0,00 0,00 545,00 111,30 0,00 30/06/2014
626 377500 LORENA FRANCIELE CORREA ROSA ESTAGIARIO ATIVO MURIAE; MURIAE-02 PJ 545,00 0,00 0,00 0,00 0,00 0,00 545,00 0,00 0,00 0,00 0,00 545,00 111,30 0,00 30/06/2014
627 367900 LORENA FRANCO DE OLIVEIRA ESTAGIARIO ATIVO UBERLANDIA; UBERLANDIA-06 PJ 545,00 0,00 0,00 0,00 0,00 0,00 545,00 0,00 0,00 0,00 0,00 545,00 111,30 0,00 30/06/2014
628 383400 LORENA GRAZIELE DOS REIS ALVES ESTAGIARIO ATIVO BELO HORIZONTE; SUPERINTENDENCIA DE COMUNICACAO INTEGRADA 817,50 0,00 0,00 0,00 0,00 0,00 817,50 0,00 0,00 0,00 0,00 817,50 111,30 0,00 30/06/2014
629 264700 LORENA RIBEIRO DE CARVALHO SOUSA ESTAGIARIO ATIVO ARCOS; ARCOS-01 PJ 436,00 0,00 0,00 0,00 0,00 0,00 436,00 0,00 0,00 0,00 0,00 436,00 0,00 0,00 30/06/2014
630 347100 LORENA SANTANA DE ALMEIDA ESTAGIARIO ATIVO IPATINGA; IPATINGA-02 PJ 545,00 0,00 0,00 0,00 0,00 0,00 545,00 0,00 0,00 0,00 0,00 545,00 100,70 0,00 30/06/2014
631 400800 LORRAYNE TABATHA A. O. LEMOS ESTAGIARIO ATIVO BELO HORIZONTE; 18 PJ DEF DIR HUM AP COM CONF AG E FISC POL 545,00 0,00 0,00 0,00 0,00 0,00 545,00 0,00 0,00 0,00 0,00 545,00 111,30 0,00 30/06/2014
632 335500 LUAN SOARES BOTELHO ESTAGIARIO ATIVO MONTES CLAROS; MONTES CLAROS-10 PJ 545,00 0,00 0,00 0,00 0,00 0,00 545,00 0,00 0,00 0,00 0,00 545,00 111,30 0,00 30/06/2014
633 284600 LUANA APARECIDA ARAUJO MAGALHAES ESTAGIARIO ATIVO BELO HORIZONTE; 18 PJ DEF DIR HUM AP COM CONF AG E FISC POL 545,00 0,00 0,00 0,00 0,00 0,00 545,00 0,00 0,00 0,00 0,00 545,00 111,30 0,00 30/06/2014
634 304600 LUANA CAETANO DREYER ESTAGIARIO ATIVO TEOFILO OTONI; TEOFILO OTONI-04 PJ 545,00 0,00 0,00 0,00 0,00 0,00 545,00 0,00 0,00 0,00 0,00 545,00 68,90 0,00 30/06/2014
635 298300 LUANA COSTA FILGUEIRAS ESTAGIARIO ATIVO VISCONDE DO RIO BRANCO; VISCONDE DO RIO BRANCO-02 PJ 545,00 0,00 0,00 0,00 0,00 0,00 545,00 0,00 0,00 0,00 0,00 545,00 111,30 0,00 30/06/2014
636 284800 LUCAS BORGES DE AVILA ESTAGIARIO ATIVO UBERLANDIA; UBERLANDIA-17 PJ 545,00 0,00 0,00 0,00 0,00 0,00 545,00 0,00 0,00 0,00 0,00 545,00 111,30 0,00 30/06/2014
637 298400 LUCAS DANIEL SOUZA SANTOS ESTAGIARIO ATIVO BELO HORIZONTE; TOXICOS-13 PJ 545,00 0,00 0,00 0,00 0,00 0,00 545,00 0,00 0,00 0,00 0,00 545,00 111,30 0,00 30/06/2014
638 372300 LUCAS FIGUEIREDO CAVALCANTI ESTAGIARIO ATIVO BETIM; BETIM-06 PJ 545,00 0,00 0,00 0,00 0,00 0,00 545,00 0,00 0,00 0,00 0,00 545,00 100,70 0,00 30/06/2014
639 414400 LUCAS GARCIA PORFIRO ESTAGIARIO ATIVO PASSOS; PASSOS-06 PJ 545,00 0,00 0,00 0,00 0,00 0,00 545,00 0,00 0,00 0,00 0,00 545,00 111,30 0,00 30/06/2014
640 414500 LUCAS GOMES PECHIM ESTAGIARIO ATIVO ITAMBACURI; ITAMBACURI-01 PJ 545,00 0,00 0,00 0,00 0,00 0,00 545,00 0,00 0,00 0,00 0,00 545,00 111,30 0,00 30/06/2014
641 341200 LUCAS MOSTARO DE OLIVEIRA ESTAGIARIO ATIVO JUIZ DE FORA; JUIZ DE FORA-06 PJ 545,00 0,00 0,00 0,00 0,00 0,00 545,00 0,00 0,00 0,00 0,00 545,00 106,00 0,00 30/06/2014
642 401000 LUCAS NASSER MARQUES DE SOUZA ESTAGIARIO ATIVO BELO HORIZONTE; 18 PJ DEF DIR HUM AP COM CONF AG E FISC POL 545,00 0,00 0,00 0,00 0,00 0,00 545,00 0,00 0,00 0,00 0,00 545,00 111,30 0,00 30/06/2014
643 406600 LUCAS PINHEIRO CRUZ ESTAGIARIO ATIVO BELO HORIZONTE; DIRETORIA DE MANUTENCAO PREDIAL 817,50 0,00 0,00 0,00 0,00 0,00 817,50 0,00 0,00 0,00 0,00 817,50 111,30 0,00 30/06/2014
644 304700 LUCAS ROGERIO ESTAGIARIO ATIVO SAO SEBASTIAO DO PARAISO; SAO SEBASTIAO DO PARAISO-02 PJ 545,00 0,00 0,00 0,00 0,00 0,00 545,00 0,00 0,00 0,00 0,00 545,00 111,30 0,00 30/06/2014
645 390900 LUCIA HELENA FARIA BARBOSA ESTAGIARIO ATIVO CATAGUASES; CATAGUASES-04 PJ 545,00 0,00 0,00 0,00 0,00 0,00 545,00 0,00 0,00 0,00 0,00 545,00 106,00 0,00 30/06/2014
646 395600 LUCIANO FRANCO RIBEIRO ESTAGIARIO ATIVO JUIZ DE FORA; JUIZ DE FORA-14 PJ 545,00 0,00 0,00 0,00 0,00 0,00 545,00 0,00 0,00 0,00 0,00 545,00 106,00 0,00 30/06/2014
647 368000 LUCIANO MENDONCA DA SILVA ESTAGIARIO ATIVO Informação não disponível 545,00 0,00 0,00 0,00 0,00 0,00 545,00 0,00 0,00 0,00 0,00 545,00 111,30 0,00 30/06/2014
648 321700 LUDMILA DE OLIVEIRA ESTAGIARIO ATIVO MANHUACU; MANHUACU-01 PJ 545,00 0,00 0,00 0,00 0,00 0,00 545,00 0,00 0,00 0,00 0,00 545,00 111,30 0,00 30/06/2014
649 335700 LUDYMILA SARAIVA DO AMARAL ESTAGIARIO ATIVO BETIM; BETIM-09 PJ 545,00 0,00 0,00 0,00 0,00 0,00 545,00 0,00 0,00 0,00 0,00 545,00 74,20 0,00 30/06/2014
650 353100 LUIS AUGUSTO DE OLIVEIRA ESTAGIARIO ATIVO UBERABA; UBERABA-09 PJ 545,00 0,00 0,00 0,00 0,00 0,00 545,00 0,00 0,00 0,00 0,00 545,00 111,30 0,00 30/06/2014
651 359300 LUIS FERNANDO ALVES DE SOUSA ESTAGIARIO ATIVO PATOS DE MINAS; PATOS DE MINAS-06 PJ 545,00 0,00 0,00 0,00 0,00 0,00 545,00 0,00 0,00 0,00 0,00 545,00 111,30 0,00 30/06/2014
652 335800 LUIS FERNANDO RESI E SILVA ESTAGIARIO ATIVO BELO HORIZONTE; JUIZO CRIMINAL-12 PJ 545,00 0,00 0,00 0,00 0,00 0,00 545,00 0,00 0,00 0,00 0,00 545,00 111,30 0,00 30/06/2014
653 372400 LUISA COSTA DA SILVA ESTAGIARIO ATIVO JUIZ DE FORA; JUIZ DE FORA-04 PJ 545,00 0,00 0,00 0,00 0,00 0,00 545,00 0,00 0,00 0,00 0,00 545,00 106,00 0,00 30/06/2014
654 401100 LUISA FILARDI SIQUEIRA ESTAGIARIO ATIVO BELO HORIZONTE; SUPERINTENDENCIA DOS ORGAOS COLEGIADOS 308,83 0,00 0,00 0,00 0,00 0,00 308,83 0,00 0,00 0,00 0,00 308,83 68,90 0,00 30/06/2014
655 401200 LUISA MARTINS PALHARES ESTAGIARIO ATIVO CURVELO; CURVELO-02 PJ 545,00 0,00 0,00 0,00 0,00 0,00 545,00 0,00 0,00 0,00 0,00 545,00 106,00 0,00 30/06/2014
656 407000 LUISA MUNIZ GARRONI ESTAGIARIO ATIVO POUSO ALEGRE; POUSO ALEGRE-04 PJ 545,00 0,00 0,00 0,00 0,00 0,00 545,00 0,00 0,00 0,00 0,00 545,00 111,30 0,00 30/06/2014
657 359200 LUISA VASCONELLOS THEODORO ESTAGIARIO ATIVO BELO HORIZONTE; GABINETE DOS PROCURADORES 545,00 0,00 0,00 0,00 0,00 0,00 545,00 0,00 0,00 0,00 0,00 545,00 84,80 0,00 30/06/2014
658 363300 LUIZ ARMANDO AMARAL KANGUSSU ESTAGIARIO ATIVO CARMO DA MATA; CARMO DA MATA - PJ ÚNICA 545,00 0,00 0,00 0,00 0,00 0,00 545,00 0,00 0,00 0,00 0,00 545,00 111,30 0,00 30/06/2014
659 416600 LUIZ CARLOS GINUARIO FERREIRA ESTAGIARIO ATIVO ANDRADAS; ANDRADAS-01 PJ 545,00 0,00 0,00 0,00 0,00 0,00 545,00 0,00 0,00 0,00 0,00 545,00 111,30 0,00 30/06/2014
660 22 LUIZ CLAUDIO FERREIRA DO NASCIMENTO 3O.SARGENTO ATIVO BELO HORIZONTE - COMARCA; GAECO - SECRETARIA 1.477,90 0,00 0,00 0,00 0,00 0,00 1.477,90 0,00 0,00 0,00 0,00 1.477,90 685,50 0,00 30/06/2014
661 406700 LUIZ EDUARDO GOUVEA FERNANDES ESTAGIARIO ATIVO BELO HORIZONTE; 18 PJ DEF DIR HUM AP COM CONF AG E FISC POL 545,00 0,00 0,00 0,00 0,00 0,00 545,00 0,00 0,00 0,00 0,00 545,00 111,30 0,00 30/06/2014
662 331400 LUIZ FELIPE SILVA DE PAULA ESTAGIARIO ATIVO SETE LAGOAS; SETE LAGOAS-09 PJ 545,00 0,00 0,00 0,00 0,00 0,00 545,00 0,00 0,00 0,00 0,00 545,00 111,30 0,00 30/06/2014
663 395700 LUIZ FERNANDO BATISTA PEREIRA ESTAGIARIO ATIVO UBERLANDIA; UBERLANDIA-08 PJ 545,00 0,00 0,00 0,00 0,00 0,00 545,00 0,00 0,00 0,00 0,00 545,00 111,30 0,00 30/06/2014
664 406800 LUIZ FERNANDO COSTA ESTAGIARIO ATIVO BELO HORIZONTE; EXTINTA - DIRETORIA SERVIÇOS GERAIS E TRANS 817,50 0,00 0,00 0,00 0,00 0,00 817,50 0,00 0,00 0,00 0,00 817,50 111,30 0,00 30/06/2014
665 298600 LUIZ FERNANDO RODRIGUES OLIVEIRA ESTAGIARIO ATIVO BELO HORIZONTE; GABINETE DOS PROCURADORES 545,00 0,00 0,00 0,00 0,00 0,00 545,00 0,00 0,00 0,00 0,00 545,00 111,30 0,00 30/06/2014
666 414600 LUIZ HENRIQUE MORAES SILVA ESTAGIARIO ATIVO PASSOS; PASSOS-01 PJ 545,00 0,00 0,00 0,00 0,00 0,00 545,00 0,00 0,00 0,00 0,00 545,00 111,30 0,00 30/06/2014
667 406900 LUIZA DE OLIVEIRA GABRICH ESTAGIARIO ATIVO LAGOA SANTA; LAGOA SANTA-02 PJ 545,00 0,00 0,00 0,00 0,00 0,00 545,00 0,00 0,00 0,00 0,00 545,00 111,30 0,00 30/06/2014
668 359400 MAERCIO HERCULANO DIAS ESTAGIARIO ATIVO BELO HORIZONTE; CAO-CRIMINAL-GABINETES 545,00 0,00 0,00 0,00 0,00 0,00 545,00 0,00 0,00 0,00 0,00 545,00 111,30 0,00 30/06/2014
669 328000 MAIRON HENRIQUE RODRIGUES BRANQUINHO ESTAGIARIO ATIVO CARMO DO PARANAIBA; CARMO DO PARANAIBA-01 PJ 545,00 0,00 0,00 0,00 0,00 0,00 545,00 0,00 0,00 0,00 0,00 545,00 68,90 0,00 30/06/2014
670 363400 MAISA BATISTA DE MELO ESTAGIARIO ATIVO CARMO DO CAJURU; CARMO DO CAJURU - PJ ÚNICA 545,00 0,00 0,00 0,00 0,00 0,00 545,00 0,00 0,00 0,00 0,00 545,00 111,30 0,00 30/06/2014
671 279900 MAISA DE SOUZA LOPES SIQUEIRA ESTAGIARIO ATIVO BURITIS; BURITIS - PJ ÚNICA 545,00 0,00 0,00 0,00 0,00 0,00 545,00 0,00 0,00 0,00 0,00 545,00 111,30 0,00 30/06/2014
672 395800 MAISA REZENDE PIRES ESTAGIARIO ATIVO PAINS; ALFENAS-02 PJ 545,00 0,00 0,00 0,00 0,00 0,00 545,00 0,00 0,00 0,00 0,00 545,00 111,30 0,00 30/06/2014
673 285000 MAISA TERCIA ALMEIDA SOUZA ESTAGIARIO ATIVO Informação não disponível 545,00 0,00 0,00 0,00 0,00 0,00 545,00 0,00 0,00 0,00 0,00 545,00 111,30 0,00 30/06/2014
674 321800 MARCELA APARECIDA SILVA CAMPOS ESTAGIARIO ATIVO IGUATAMA; IGUATAMA - PJ ÚNICA 545,00 0,00 0,00 0,00 0,00 0,00 545,00 0,00 0,00 0,00 0,00 545,00 58,30 0,00 30/06/2014
675 347200 MARCELA DUARTE ROSA ESTAGIARIO ATIVO BELO HORIZONTE; JUIZO DE FAMILIA-02 PJ 545,00 0,00 0,00 0,00 0,00 0,00 545,00 0,00 0,00 0,00 0,00 545,00 111,30 0,00 30/06/2014
676 359500 MARCELA FIRME SILVA ESTAGIARIO ATIVO PATOS DE MINAS; PATOS DE MINAS-03 PJ 545,00 0,00 0,00 0,00 0,00 0,00 545,00 0,00 0,00 0,00 0,00 545,00 111,30 0,00 30/06/2014
677 328100 MARCELA MOREIRA DE DEUS ESTAGIARIO ATIVO CARMO DO PARANAIBA; CARMO DO PARANAIBA-01 PJ 545,00 0,00 0,00 0,00 0,00 0,00 545,00 0,00 0,00 0,00 0,00 545,00 68,90 0,00 30/06/2014
678 267600 MARCELINO DA SILVA BARRETO ESTAGIARIO ATIVO TOMBOS; TOMBOS - PJ ÚNICA 545,00 0,00 0,00 0,00 0,00 0,00 545,00 0,00 0,00 0,00 0,00 545,00 111,30 0,00 30/06/2014
679 363500 MARCELLA OLIVEIRA DUARTE ESTAGIARIO ATIVO LAGOA DA PRATA; LAGOA DA PRATA-01 PJ 545,00 0,00 0,00 0,00 0,00 0,00 545,00 0,00 0,00 0,00 0,00 545,00 111,30 0,00 30/06/2014
680 314400 MARCELLO RODRIGUES TARTAGLIA ESTAGIARIO ATIVO CATAGUASES; CATAGUASES-03 PJ 545,00 0,00 0,00 0,00 0,00 0,00 545,00 0,00 0,00 0,00 0,00 545,00 106,00 0,00 30/06/2014
681 368100 MARCELO DELLISOLA DE VASCONCELLOS ESTAGIARIO ATIVO BELO HORIZONTE; JUIZADO ESPECIAL CÍVEL E CRIMINAL - 08ª PJ 545,00 0,00 0,00 0,00 0,00 0,00 545,00 0,00 0,00 0,00 0,00 545,00 111,30 0,00 30/06/2014
682 407100 MARCELO FERNANDO SILVA JUNIOR ESTAGIARIO ATIVO UBERABA; UBERABA-07 PJ 545,00 0,00 0,00 0,00 0,00 0,00 545,00 0,00 0,00 0,00 0,00 545,00 111,30 0,00 30/06/2014
683 368200 MARCELO HENRIQUE SOARES DA CRUZ ESTAGIARIO ATIVO BELO HORIZONTE; GABINETE DOS PROCURADORES 545,00 0,00 0,00 0,00 0,00 0,00 545,00 0,00 0,00 0,00 0,00 545,00 212,00 545,00 30/06/2014
684 418800 MARCIA DOS SANTOS RODRIGUES PIRES ESTAGIARIO ATIVO Informação não disponível 545,00 0,00 0,00 0,00 0,00 0,00 545,00 0,00 0,00 0,00 0,00 545,00 79,50 0,00 30/06/2014
685 71 MARCIA FARINA DE SANTANA ESCRIVAO DE POLICIA ATIVO BELO HORIZONTE - COMARCA; CAO-ORDEM ECONOMICA E TRIBUTARIA 2.110,53 0,00 0,00 0,00 0,00 0,00 2.110,53 0,00 24,21 0,00 24,21 2.086,32 685,50 0,00 30/06/2014
686 384000 MARCIAL DE SOUZA PENIDO ESTAGIARIO ATIVO BELO HORIZONTE; OUVIDORIA DO MPMG 817,50 0,00 0,00 0,00 0,00 0,00 817,50 0,00 0,00 0,00 0,00 817,50 79,50 0,00 30/06/2014
687 72 MARCIO CANDIDO VENTURA INVESTIGADOR DE POLICIA 2 ATIVO BELO HORIZONTE - COMARCA; CAO-ORDEM ECONOMICA E TRIBUTARIA 1.918,66 0,00 0,00 0,00 0,00 0,00 1.918,66 0,00 9,82 0,00 9,82 1.908,84 685,50 0,00 30/06/2014
688 395900 MARCO AURELIO DA SILVA RAMOS FILHO ESTAGIARIO ATIVO BELO HORIZONTE; JUIZADO ESPECIAL CÍVEL E CRIMINAL - 08ª PJ 545,00 0,00 0,00 0,00 0,00 0,00 545,00 0,00 0,00 0,00 0,00 545,00 111,30 0,00 30/06/2014
689 76 MARCO TULIO ALVERNE DE ABREU INVESTIGADOR DE POLICIA 2 ATIVO BELO HORIZONTE - COMARCA; COORD DE PLANEJAMENTO INSTITUCIONAL 1.918,66 0,00 0,00 0,00 0,00 0,00 1.918,66 0,00 9,82 0,00 9,82 1.908,84 685,50 0,00 30/06/2014
690 401300 MARCO TULIO DE ALMEIDA SIQUEIRA ESTAGIARIO ATIVO BELO HORIZONTE; DIRETORIA DE MANUTENCAO PREDIAL 817,50 0,00 0,00 0,00 0,00 0,00 817,50 0,00 0,00 0,00 0,00 817,50 111,30 0,00 30/06/2014
691 384100 MARCONE DIAS SOUZA ESTAGIARIO ATIVO Informação não disponível 817,50 0,00 0,00 0,00 0,00 0,00 817,50 0,00 0,00 0,00 0,00 817,50 111,30 0,00 30/06/2014
692 310100 MARCOS DE CAMPOS MACHADO ESTAGIARIO ATIVO POMPEU; POMPEU - PJ ÚNICA 545,00 0,00 0,00 0,00 0,00 0,00 545,00 0,00 0,00 0,00 0,00 545,00 111,30 0,00 30/06/2014
693 384200 MARCOS JOSE RIBEIRO JUNIOR ESTAGIARIO ATIVO BELO HORIZONTE; CENTRAL DE APOIO TECNICO-SETOR CONTABIL 817,50 0,00 0,00 0,00 0,00 0,00 817,50 0,00 0,00 0,00 0,00 817,50 111,30 0,00 30/06/2014
694 370200 MARCOS MARTINS RIBEIRO JUNIOR ESTAGIARIO ATIVO BELO HORIZONTE; CAO-DIREITOS HUMANOS E APOIO COMUNITARIO 941,61 0,00 0,00 0,00 0,00 0,00 941,61 0,00 0,00 0,00 0,00 941,61 0,00 0,00 30/06/2014
695 418900 MARCOS MAURICIO SOARES SANTOS ESTAGIARIO ATIVO UBERLANDIA; UBERLANDIA-23 PJ 545,00 0,00 0,00 0,00 0,00 0,00 545,00 0,00 0,00 0,00 0,00 545,00 100,70 0,00 30/06/2014
696 328200 MARCOS PAULO SOARES RODRIGUES ESTAGIARIO ATIVO PATOS DE MINAS; PATOS DE MINAS-06 PJ 545,00 0,00 0,00 0,00 0,00 0,00 545,00 0,00 0,00 0,00 0,00 545,00 111,30 0,00 30/06/2014
697 401400 MARCOS ROBERTO DA SILVA RIOS ESTAGIARIO ATIVO Informação não disponível 817,50 0,00 0,00 0,00 0,00 0,00 817,50 0,00 0,00 0,00 0,00 817,50 106,00 0,00 30/06/2014
698 401500 MARCOS VINICIUS SEVERINO SOUZA MAIA ESTAGIARIO ATIVO NOVA LIMA; NOVA LIMA-04 PJ 545,00 0,00 0,00 0,00 0,00 0,00 545,00 0,00 0,00 0,00 0,00 545,00 111,30 0,00 30/06/2014
699 396000 MARCUS FELIPE DE SOUZA CASTRO ESTAGIARIO ATIVO JUIZ DE FORA; JUIZ DE FORA-07 PJ 545,00 0,00 0,00 0,00 0,00 0,00 545,00 0,00 0,00 0,00 0,00 545,00 106,00 0,00 30/06/2014
700 377700 MARESSA DA SILVA MONTEIRO ESTAGIARIO ATIVO Informação não disponível 545,00 0,00 0,00 0,00 0,00 0,00 545,00 0,00 0,00 0,00 0,00 545,00 111,30 0,00 30/06/2014
701 396100 MARIA AMELIA SOUSA RODRIGUES ESTAGIARIO ATIVO CARATINGA; CARATINGA-01 PJ 545,00 0,00 0,00 0,00 0,00 0,00 545,00 0,00 0,00 0,00 0,00 545,00 111,30 0,00 30/06/2014
702 372500 MARIA APARECIDA AMARAL ESTAGIARIO ATIVO MONTE CARMELO; MONTE CARMELO-02 PJ 545,00 0,00 0,00 0,00 0,00 0,00 545,00 0,00 0,00 0,00 0,00 545,00 111,30 0,00 30/06/2014
703 419000 MARIA EDUARDA XAVIER GONCALVES ESTAGIARIO ATIVO CORONEL FABRICIANO; CORONEL FABRICIANO-02 PJ 545,00 0,00 0,00 0,00 0,00 0,00 545,00 0,00 0,00 0,00 0,00 545,00 106,00 0,00 30/06/2014
704 280100 MARIA EUNICE FONSECA ESTAGIARIO ATIVO BOM DESPACHO; BOM DESPACHO-01 PJ 545,00 0,00 0,00 0,00 0,00 0,00 545,00 0,00 0,00 0,00 0,00 545,00 111,30 0,00 30/06/2014
705 391100 MARIA HILDA ANDRADE JUNQUEIRA LEAO CARNEIRO ESTAGIARIO ATIVO UBERLANDIA; UBERLANDIA-04 PJ 545,00 0,00 0,00 0,00 0,00 0,00 545,00 0,00 0,00 0,00 0,00 545,00 111,30 0,00 30/06/2014
706 363600 MARIA LIDIANE SALES SOUSA ESTAGIARIO ATIVO BELO HORIZONTE; DEFESA DE HABITACAO E URBANISMO-16 PJ 545,00 0,00 0,00 0,00 0,00 0,00 545,00 0,00 0,00 0,00 0,00 545,00 111,30 0,00 30/06/2014
707 359600 MARIA LUISA VIEIRA NEVES ESTAGIARIO ATIVO BELO HORIZONTE; JUIZO CRIMINAL-12 PJ 545,00 0,00 0,00 0,00 0,00 0,00 545,00 0,00 0,00 0,00 0,00 545,00 111,30 0,00 30/06/2014
708 397900 MARIA SUELI MIRANDA VIEIRA ESTAGIARIO ATIVO ESPERA FELIZ; ESPERA FELIZ - PJ ÚNICA 545,00 0,00 0,00 0,00 0,00 0,00 545,00 0,00 0,00 0,00 0,00 545,00 111,30 0,00 30/06/2014
709 419100 MARIA THEREZA SILVA DE ALMEIDA ESTAGIARIO ATIVO BELO HORIZONTE; GABINETE DOS PROCURADORES 545,00 0,00 0,00 0,00 0,00 0,00 545,00 0,00 0,00 0,00 0,00 545,00 111,30 0,00 30/06/2014
710 377800 MARIANA APARECIDA BENTO ESTAGIARIO ATIVO CLAUDIO; CLAUDIO - PJ ÚNICA 545,00 0,00 0,00 0,00 0,00 0,00 545,00 0,00 0,00 0,00 0,00 545,00 111,30 0,00 30/06/2014
711 384300 MARIANA APARECIDA SOARES ESTAGIARIO ATIVO BELO HORIZONTE; CAO-TS-TERCEIRO SETOR-APOIO TECNICO 817,50 0,00 0,00 0,00 0,00 0,00 817,50 0,00 0,00 0,00 0,00 817,50 111,30 0,00 30/06/2014
712 363800 MARIANA BRAGA TEIXEIRA ESTAGIARIO ATIVO JUIZ DE FORA; JUIZ DE FORA-21 PJ 545,00 0,00 0,00 0,00 0,00 0,00 545,00 0,00 0,00 0,00 0,00 545,00 106,00 0,00 30/06/2014
713 308700 MARIANA CAMILA DE MELO ESTAGIARIO ATIVO UBERLANDIA; UBERLANDIA-19 PJ 545,00 0,00 0,00 0,00 0,00 0,00 545,00 0,00 0,00 0,00 0,00 545,00 63,60 0,00 30/06/2014
714 336100 MARIANA DO NASCIMENTO PEREIRA ESTAGIARIO ATIVO CARANGOLA; CARANGOLA-02 PJ 545,00 0,00 0,00 0,00 0,00 0,00 545,00 0,00 0,00 0,00 0,00 545,00 111,30 0,00 30/06/2014
715 368400 MARIANA GOUVEA LADEIRA ESTAGIARIO ATIVO CONTAGEM; CONTAGEM-02 PJ 545,00 0,00 0,00 0,00 0,00 0,00 545,00 0,00 0,00 0,00 0,00 545,00 111,30 0,00 30/06/2014
716 331500 MARIANA JULIA ESTEVAM CORREA ESTAGIARIO ATIVO DIVINOPOLIS; DIVINÓPOLIS - 07ª PJ 545,00 0,00 0,00 0,00 0,00 0,00 545,00 0,00 0,00 0,00 0,00 545,00 68,90 0,00 30/06/2014
717 422100 MARIANA PEREIRA DE ANDRADE VALLIM ESTAGIARIO ATIVO TRES CORACOES; TRES CORACOES-02 PJ 272,50 0,00 0,00 0,00 0,00 0,00 272,50 0,00 0,00 0,00 0,00 272,50 47,70 0,00 30/06/2014
718 341300 MARIANA PRISCILA DE OLIVEIRA RAMOS ESTAGIARIO ATIVO Informação não disponível 545,00 0,00 0,00 0,00 0,00 0,00 545,00 0,00 0,00 0,00 0,00 545,00 90,10 0,00 30/06/2014
719 407200 MARIANA REZENDE OLIVEIRA ESTAGIARIO ATIVO BELO HORIZONTE; 18 PJ DEF DIR HUM AP COM CONF AG E FISC POL 545,00 0,00 0,00 0,00 0,00 0,00 545,00 0,00 0,00 0,00 0,00 545,00 111,30 0,00 30/06/2014
720 359700 MARIANA RIBEIRO VIEIRA ESTAGIARIO ATIVO JUIZ DE FORA; JUIZ DE FORA-21 PJ 545,00 0,00 0,00 0,00 0,00 0,00 545,00 0,00 0,00 0,00 0,00 545,00 106,00 0,00 30/06/2014
721 401600 MARIANA SILVA CHIARINI ESTAGIARIO ATIVO BELO HORIZONTE; 18 PJ DEF DIR HUM AP COM CONF AG E FISC POL 545,00 0,00 0,00 0,00 0,00 0,00 545,00 0,00 0,00 0,00 0,00 545,00 111,30 0,00 30/06/2014
722 314700 MARIANA VILHENA COSTA NEVES ESTAGIARIO ATIVO BELO HORIZONTE; JUIZO DE FAMILIA-02 PJ 545,00 0,00 0,00 0,00 0,00 0,00 545,00 0,00 0,00 0,00 0,00 545,00 79,50 272,50 30/06/2014
723 398000 MARIANE APARECIDA REZENDE DE SAO JOSE ESTAGIARIO ATIVO ITAUNA; ITAUNA-05 PJ 545,00 0,00 0,00 0,00 0,00 0,00 545,00 0,00 0,00 0,00 0,00 545,00 111,30 0,00 30/06/2014
724 401700 MARIANE CRISTINA ALMEIDA E SILVA ESTAGIARIO ATIVO Informação não disponível 545,00 0,00 0,00 0,00 0,00 0,00 545,00 0,00 0,00 0,00 0,00 545,00 111,30 0,00 30/06/2014
725 419200 MARILDA MENDES DA SILVA ESTAGIARIO ATIVO BELO HORIZONTE; DIRETORIA DE PRODUCAO EDITORIAL 545,00 0,00 0,00 0,00 0,00 0,00 545,00 0,00 0,00 0,00 0,00 545,00 111,30 0,00 30/06/2014
726 314800 MARILIA ANELLO DE OLIVEIRA ESTAGIARIO ATIVO UBERLANDIA; UBERLANDIA-20 PJ 545,00 0,00 0,00 0,00 0,00 0,00 545,00 0,00 0,00 0,00 0,00 545,00 68,90 0,00 30/06/2014
727 407300 MARILIA CRISTINA GOMES LEAL ESTAGIARIO ATIVO UBERLANDIA; UBERLANDIA-10 PJ 545,00 0,00 0,00 0,00 0,00 0,00 545,00 0,00 0,00 0,00 0,00 545,00 111,30 0,00 30/06/2014
728 328400 MARILIA SANTANA DA SILVA ESTAGIARIO ATIVO GUAXUPE; GUAXUPE-01 PJ 545,00 0,00 0,00 0,00 0,00 0,00 545,00 0,00 0,00 0,00 0,00 545,00 111,30 0,00 30/06/2014
729 401800 MARINA AGAPITO SOARES ESTAGIARIO ATIVO BELO HORIZONTE; 12ª PJ JUÍZO CRIMINAL - COORDENAÇÃO 545,00 0,00 0,00 0,00 0,00 0,00 545,00 0,00 0,00 0,00 0,00 545,00 111,30 0,00 30/06/2014
730 377900 MARINA PENNA COUTO ESTAGIARIO ATIVO MURIAE; MURIAE-06 PJ 545,00 0,00 0,00 0,00 0,00 0,00 545,00 0,00 0,00 0,00 0,00 545,00 111,30 0,00 30/06/2014
731 75 MARIO HENRIQUE NASCIMENTO SILVEIRA INVESTIGADOR DE POLICIA 2 ATIVO BELO HORIZONTE - COMARCA; ORDEM ECONOMICA E TRIBUTARIA-20 PJ 1.312,96 0,00 0,00 0,00 0,00 0,00 1.312,96 0,00 0,00 0,00 0,00 1.312,96 685,50 0,00 30/06/2014
732 336300 MARISA DELFINO ESTAGIARIO ATIVO Informação não disponível 545,00 0,00 0,00 0,00 0,00 0,00 545,00 0,00 0,00 0,00 0,00 545,00 111,30 0,00 30/06/2014
733 416700 MARLENE ALVES DE ARAUJO ESTAGIARIO ATIVO CONTAGEM; CONTAGEM-16 PJ 545,00 0,00 0,00 0,00 0,00 0,00 545,00 0,00 0,00 0,00 0,00 545,00 111,30 0,00 30/06/2014
734 105 MARLENE APARECIDA DE ANDRADE ESCRIVAO DE POLICIA ATIVO CONTAGEM - COMARCA; COORD REG DEF ORDEM ECONOMICA TRIB CONTAGEM 1.477,92 0,00 0,00 0,00 0,00 0,00 1.477,92 0,00 0,00 0,00 0,00 1.477,92 685,50 0,00 30/06/2014
735 396200 MARLON ANTONIO ROSA ESTAGIARIO ATIVO ARAXA; EXTINTA-ARAXA - 05 PJ/JUNTO JUIZADO ESPECIAL 545,00 0,00 0,00 0,00 0,00 0,00 545,00 0,00 0,00 0,00 0,00 545,00 111,30 0,00 30/06/2014
736 291400 MARLON STEFANO CAMPOS CARVALHO ESTAGIARIO ATIVO VIRGINOPOLIS; VIRGINOPOLIS - PJ ÚNICA 545,00 0,00 0,00 0,00 0,00 0,00 545,00 0,00 0,00 0,00 0,00 545,00 111,30 0,00 30/06/2014
737 275100 MARTA BRAZ DA SILVA FERREIRA ESTAGIARIO ATIVO CAMPINA VERDE; CAMPINA VERDE - PJ ÚNICA 545,00 0,00 0,00 0,00 0,00 0,00 545,00 0,00 0,00 0,00 0,00 545,00 111,30 0,00 30/06/2014
738 308900 MARYELLE MACHADO PEREIRA ESTAGIARIO ATIVO BELO HORIZONTE; JUIZO DE FAMILIA-02 PJ 545,00 0,00 0,00 0,00 0,00 0,00 545,00 0,00 0,00 0,00 0,00 545,00 111,30 0,00 30/06/2014
739 407400 MATEUS CARVALHO REZENDE ESTAGIARIO ATIVO UBERLANDIA; UBERLÂNDIA-07 PJ 545,00 0,00 0,00 0,00 0,00 0,00 545,00 0,00 0,00 0,00 0,00 545,00 111,30 0,00 30/06/2014
740 407500 MATHEUS ALMEIDA NERES ESTAGIARIO ATIVO BELO HORIZONTE; 18 PJ DEF DIR HUM AP COM CONF AG E FISC POL 545,00 0,00 0,00 0,00 0,00 0,00 545,00 0,00 0,00 0,00 0,00 545,00 111,30 0,00 30/06/2014
741 410800 MATHEUS GABRICH MORAES CAMPOS ESTAGIARIO ATIVO SANTA LUZIA; SANTA LUZIA-04 PJ 545,00 0,00 0,00 0,00 0,00 0,00 545,00 0,00 0,00 0,00 0,00 545,00 111,30 0,00 30/06/2014
742 309000 MATHEUS HENRIQUE GARCIA ESTAGIARIO ATIVO CAMPO BELO; CAMPO BELO-04 PJ 545,00 0,00 0,00 0,00 0,00 0,00 545,00 0,00 0,00 0,00 0,00 545,00 111,30 0,00 30/06/2014
743 384600 MATHEUS MUNIZ DE OLIVEIRA ESTAGIARIO ATIVO BELO HORIZONTE; SUPERINTENDENCIA DE TECNOLOGIA DA INFORMACAO 817,50 0,00 0,00 0,00 0,00 0,00 817,50 0,00 0,00 0,00 0,00 817,50 111,30 0,00 30/06/2014
744 396300 MATHEUS OLIVEIRA BOTREL ESTAGIARIO ATIVO TRES PONTAS; TRES PONTAS-02 PJ 545,00 0,00 0,00 0,00 0,00 0,00 545,00 0,00 0,00 0,00 0,00 545,00 111,30 0,00 30/06/2014
745 322100 MATHEUS PHILLIPE QUADROS DE CASTRO ESTAGIARIO ATIVO DIVINOPOLIS; DIVINÓPOLIS - 07ª PJ 545,00 0,00 0,00 0,00 0,00 0,00 545,00 0,00 0,00 0,00 0,00 545,00 111,30 0,00 30/06/2014
746 336400 MAX IURY SANTIAGO ALVES ESTAGIARIO ATIVO MONTES CLAROS; MONTES CLAROS-10 PJ 545,00 0,00 0,00 0,00 0,00 0,00 545,00 0,00 0,00 0,00 0,00 545,00 111,30 0,00 30/06/2014
747 315300 MAXMILLER AZARIAS SILVA ESTAGIARIO ATIVO ITUMIRIM; ITUMIRIM - PJ ÚNICA 545,00 0,00 0,00 0,00 0,00 0,00 545,00 0,00 0,00 0,00 0,00 545,00 111,30 0,00 30/06/2014
748 315400 MAYARA PEREIRA DE ANDRADE ESTAGIARIO ATIVO PATOS DE MINAS; PATOS DE MINAS-01 PJ 545,00 0,00 0,00 0,00 0,00 0,00 545,00 0,00 0,00 0,00 0,00 545,00 111,30 0,00 30/06/2014
749 391200 MAYARA STEFANI DE SOUZA ESTAGIARIO ATIVO SAO JOAO DEL REI; SAO JOAO DEL REI-01 PJ 545,00 0,00 0,00 0,00 0,00 0,00 545,00 0,00 0,00 0,00 0,00 545,00 106,00 0,00 30/06/2014
750 341500 MAYTON MENDONCA DA SILVA ESTAGIARIO ATIVO MONTES CLAROS; COORD REG PJ DEF EDUC DIR CRIANCA ADOL NORTE 545,00 0,00 0,00 0,00 0,00 0,00 545,00 0,00 0,00 0,00 0,00 545,00 111,30 0,00 30/06/2014
751 353500 MEIRY CLAUDIA DE MELO BERNARDES ESTAGIARIO ATIVO ARAXA; ARAXA-01 PJ 545,00 0,00 0,00 0,00 0,00 0,00 545,00 0,00 0,00 0,00 0,00 545,00 111,30 0,00 30/06/2014
752 347300 MELINA FERREIRA RODRIGUES ESTAGIARIO ATIVO RIO NOVO; RIO NOVO - PJ ÚNICA 545,00 0,00 0,00 0,00 0,00 0,00 545,00 0,00 0,00 0,00 0,00 545,00 111,30 0,00 30/06/2014
753 299200 MELISSA TARCILA CRISTELLI SILVA ESTAGIARIO ATIVO BELO HORIZONTE; PROC. JUSTICA DIR. DIFUSOS E COLETIVOS 545,00 0,00 0,00 0,00 0,00 0,00 545,00 0,00 0,00 0,00 0,00 545,00 111,30 0,00 30/06/2014
754 347400 MICHAEL AUGUSTO LUIZ ESTAGIARIO ATIVO JACUTINGA; JACUTINGA - PJ ÚNICA 545,00 0,00 0,00 0,00 0,00 0,00 545,00 0,00 0,00 0,00 0,00 545,00 106,00 0,00 30/06/2014
755 401900 MICHELE DE OLIVEIRA NASCIMENTO ESTAGIARIO ATIVO BELO HORIZONTE; 18 PJ DEF DIR HUM AP COM CONF AG E FISC POL 545,00 0,00 0,00 0,00 0,00 0,00 545,00 0,00 0,00 0,00 0,00 545,00 111,30 0,00 30/06/2014
756 384700 MICHELE SOARES DA SILVA ESTAGIARIO ATIVO BELO HORIZONTE; JUIZO DE FAMILIA-02 PJ 817,50 0,00 0,00 0,00 0,00 0,00 817,50 0,00 0,00 0,00 0,00 817,50 79,50 0,00 30/06/2014
757 322200 MICHELLE BRAGA DINIZ DE OLIVEIRA ESTAGIARIO ATIVO SANTA LUZIA; SANTA LUZIA-05 PJ 545,00 0,00 0,00 0,00 0,00 0,00 545,00 0,00 0,00 0,00 0,00 545,00 111,30 0,00 30/06/2014
758 384800 MICHELLE TATIANE DE CAMPOS ESTAGIARIO ATIVO BELO HORIZONTE; SUPERINTENDENCIA DE TECNOLOGIA DA INFORMACAO 817,50 0,00 0,00 0,00 0,00 0,00 817,50 0,00 0,00 0,00 0,00 817,50 111,30 0,00 30/06/2014
759 353600 MICHELLI MUSSE JACOB ESTAGIARIO ATIVO Informação não disponível 545,00 0,00 0,00 0,00 0,00 0,00 545,00 0,00 0,00 0,00 0,00 545,00 111,30 0,00 30/06/2014
760 422200 MIKAELA KAROLINE ALVES DE SOUSA ESTAGIARIO ATIVO SETE LAGOAS; SETE LAGOAS-10 PJ 272,50 0,00 0,00 0,00 0,00 0,00 272,50 0,00 0,00 0,00 0,00 272,50 42,40 0,00 30/06/2014
761 414700 MILENA SILVEIRA PENA ESTAGIARIO ATIVO BELO HORIZONTE; 23ª PJ DEF DIREITOS CRIANÇAS E ADOLESCENTES 545,00 0,00 0,00 0,00 0,00 0,00 545,00 0,00 0,00 0,00 0,00 545,00 111,30 0,00 30/06/2014
762 419300 MILENE DA SILVA SOUZA ESTAGIARIO ATIVO Informação não disponível 817,50 0,00 0,00 0,00 0,00 0,00 817,50 0,00 0,00 0,00 0,00 817,50 111,30 0,00 30/06/2014
763 336700 MILENE FERREIRA MACHADO ESTAGIARIO ATIVO RIBEIRAO DAS NEVES; RIBEIRAO DAS NEVES-01 PJ 545,00 0,00 0,00 0,00 0,00 0,00 545,00 0,00 0,00 0,00 0,00 545,00 111,30 0,00 30/06/2014
764 363900 MILLA CHRISTI PEREIRA DA SILVA ESTAGIARIO ATIVO UBERLANDIA; UBERLANDIA-11 PJ 545,00 0,00 0,00 0,00 0,00 0,00 545,00 0,00 0,00 0,00 0,00 545,00 111,30 0,00 30/06/2014
765 336800 MIRNA CASTELNOVO NUNES ESTAGIARIO ATIVO BELO HORIZONTE; FAZENDA PUBLICA E EXECUCOES FISCAIS-01 PJ 545,00 0,00 0,00 0,00 0,00 0,00 545,00 0,00 0,00 0,00 0,00 545,00 111,30 0,00 30/06/2014
766 414800 MOEMA MARIA LANGONI AMORIM BARBOSA ESTAGIARIO ATIVO UBERLANDIA; UBERLANDIA-22 PJ 545,00 0,00 0,00 0,00 0,00 0,00 545,00 0,00 0,00 0,00 0,00 545,00 100,70 0,00 30/06/2014
767 341600 MOISES SILVA DE CASTRO ESTAGIARIO ATIVO PIRANGA; PIRANGA - PJ ÚNICA 545,00 0,00 0,00 0,00 0,00 0,00 545,00 0,00 0,00 0,00 0,00 545,00 95,40 0,00 30/06/2014
768 329000 MONIA NAVA CARVALHO REIS ESTAGIARIO ATIVO BOA ESPERANCA; BOA ESPERANCA-02 PJ 545,00 0,00 0,00 0,00 0,00 0,00 545,00 0,00 0,00 0,00 0,00 545,00 68,90 0,00 30/06/2014
769 419400 MONIANA MADEIRA TEIXEIRA DUARTE ESTAGIARIO ATIVO LUZ; LUZ - PJ ÚNICA 545,00 0,00 0,00 0,00 0,00 0,00 545,00 0,00 0,00 0,00 0,00 545,00 111,30 0,00 30/06/2014
770 422300 MONIKE VALENT SILVA BORGES ESTAGIARIO ATIVO BELO HORIZONTE; 22ª PJ DEF DIREITO PESSOAS DEFICIENCIA IDOSOS 545,00 0,00 0,00 0,00 0,00 0,00 545,00 0,00 0,00 0,00 0,00 545,00 47,70 0,00 30/06/2014
771 341700 MONIQUE MARIA CAMPOLINA DE SOUZA ESTAGIARIO ATIVO CONSELHEIRO LAFAIETE; CONSELHEIRO LAFAIETE-02 PJ 545,00 0,00 0,00 0,00 0,00 0,00 545,00 0,00 0,00 0,00 0,00 545,00 74,20 0,00 30/06/2014
772 422000 MRCIA CAROLINE OLIVEIRA DOS SANTOS MARTINS ESTAGIARIO ATIVO BELO HORIZONTE; MEIO AMB PAT HIS CULT 15PJ HAB URB 16PJ SEC 272,50 0,00 0,00 0,00 0,00 0,00 272,50 0,00 0,00 0,00 0,00 272,50 47,70 0,00 30/06/2014
773 385000 NADIA MARIA PEREIRA ESTAGIARIO ATIVO BELO HORIZONTE; CRIANÇAS E ADOLESCENTES-23 PJ-INFRACIONAL 817,50 0,00 0,00 0,00 0,00 0,00 817,50 0,00 0,00 0,00 0,00 817,50 111,30 0,00 30/06/2014
774 347500 NAGILLA CRISTINA SILVA ESTAGIARIO ATIVO IGARAPE; IGARAPE - 01ª PJ 545,00 0,00 0,00 0,00 0,00 0,00 545,00 0,00 0,00 0,00 0,00 545,00 106,00 0,00 30/06/2014
775 368500 NAIARA GOMES DE SOUZA ESTAGIARIO ATIVO VARZEA DA PALMA; VARZEA DA PALMA-02 PJ 545,00 0,00 0,00 0,00 0,00 0,00 545,00 0,00 0,00 0,00 0,00 545,00 111,30 0,00 30/06/2014
776 101 NAIRO DE ASSIS BARBOSA JUNIOR CABO ATIVO BELO HORIZONTE - COMARCA; COORD ESTADUAL COMBATE CRIMES CIBERNETICOS 1.477,90 0,00 0,00 0,00 0,00 0,00 1.477,90 0,00 0,00 0,00 0,00 1.477,90 685,50 0,00 30/06/2014
777 372600 NARA PINTO DE OLIVEIRA ESTAGIARIO ATIVO JUIZ DE FORA; JUIZ DE FORA-17 PJ 545,00 0,00 0,00 0,00 0,00 0,00 545,00 0,00 0,00 0,00 0,00 545,00 95,40 0,00 30/06/2014
778 385100 NASHILLA CEDRO ANDRADE ARAUJO ESTAGIARIO ATIVO BELO HORIZONTE; DIRETORIA DE PRODUCAO EDITORIAL 817,50 0,00 0,00 0,00 0,00 0,00 817,50 0,00 0,00 0,00 0,00 817,50 95,40 0,00 30/06/2014
779 360000 NATALIA DE DEUS AFONSECA ESTAGIARIO ATIVO BELO HORIZONTE; 22ª PJ DEF DIREITO PESSOAS DEFICIENCIA IDOSOS 545,00 0,00 0,00 0,00 0,00 0,00 545,00 0,00 0,00 0,00 0,00 545,00 111,30 0,00 30/06/2014
780 407700 NATALIA DE FATIMA ALVES DA SILVA ESTAGIARIO ATIVO DIVINOPOLIS; DIVINOPOLIS-05 PJ 545,00 0,00 0,00 0,00 0,00 0,00 545,00 0,00 0,00 0,00 0,00 545,00 111,30 0,00 30/06/2014
781 368600 NATALIA GIMER GUIMARAES PAULINO ESTAGIARIO ATIVO CONTAGEM; CONTAGEM-13 PJ 545,00 0,00 0,00 0,00 0,00 0,00 545,00 0,00 0,00 0,00 0,00 545,00 111,30 0,00 30/06/2014
782 396400 NATALIA JORGE ALMEIDA O. GOMES ESTAGIARIO ATIVO Informação não disponível 545,00 0,00 0,00 0,00 0,00 0,00 545,00 0,00 0,00 0,00 0,00 545,00 100,70 0,00 30/06/2014
783 305200 NATHALIA DUARTE MOREIRA ESTAGIARIO ATIVO BELO HORIZONTE; DEF DIREIT HUMAN-COMB A VIOLENC DOMEST-18 PJ 545,00 0,00 0,00 0,00 0,00 0,00 545,00 0,00 0,00 0,00 0,00 545,00 111,30 0,00 30/06/2014
784 368700 NATHALINE DE LIMA CARVALHO ESTAGIARIO ATIVO MACHADO; MACHADO-01 PJ 545,00 0,00 0,00 0,00 0,00 0,00 545,00 0,00 0,00 0,00 0,00 545,00 111,30 0,00 30/06/2014
785 372800 NATHAN ALAN VIANA CASARINO ESTAGIARIO ATIVO CAMPO BELO; CAMPO BELO-02 PJ 545,00 0,00 0,00 0,00 0,00 0,00 545,00 0,00 0,00 0,00 0,00 545,00 111,30 0,00 30/06/2014
786 353700 NATHYELLE BORGES SANTOS ESTAGIARIO ATIVO UBERLANDIA; UBERLANDIA-10 PJ 545,00 0,00 0,00 0,00 0,00 0,00 545,00 0,00 0,00 0,00 0,00 545,00 111,30 0,00 30/06/2014
787 372900 NAYARA AMELIA ALVES ESTAGIARIO ATIVO BELO HORIZONTE; GABINETE DOS PROCURADORES 545,00 0,00 0,00 0,00 0,00 0,00 545,00 0,00 0,00 0,00 0,00 545,00 111,30 0,00 30/06/2014
788 285600 NAYARA ANGELYCA CARDOSO SILVA ESTAGIARIO ATIVO ARAGUARI; ARAGUARI-01 PJ 545,00 0,00 0,00 0,00 0,00 0,00 545,00 0,00 0,00 0,00 0,00 545,00 111,30 0,00 30/06/2014
789 396500 NAYARA CAETANO MOREIRA DA SILVA ESTAGIARIO ATIVO BELO HORIZONTE; GABINETE DOS PROCURADORES 545,00 0,00 0,00 0,00 0,00 0,00 545,00 0,00 0,00 0,00 0,00 545,00 111,30 0,00 30/06/2014
790 331700 NAYARA CAROLINE MENDES ANGELINI ESTAGIARIO ATIVO GUAXUPE; GUAXUPE-02 PJ 545,00 0,00 0,00 0,00 0,00 0,00 545,00 0,00 0,00 0,00 0,00 545,00 106,00 0,00 30/06/2014
791 336500 NAYARA CRISTINA FELICIANO DE FREITAS ESTAGIARIO ATIVO BELO HORIZONTE; JUIZO CRIMINAL-12 PJ 545,00 0,00 0,00 0,00 0,00 0,00 545,00 0,00 0,00 0,00 0,00 545,00 111,30 0,00 30/06/2014
792 341900 NAYARA RIBEIRO SCHRODER ESTAGIARIO ATIVO JUIZ DE FORA; JUIZ DE FORA-01 PJ 545,00 0,00 0,00 0,00 0,00 0,00 545,00 0,00 0,00 0,00 0,00 545,00 106,00 0,00 30/06/2014
793 329200 NAYARA ROBERTA NERY DE ARAUJO ESTAGIARIO ATIVO SANTA LUZIA; SANTA LUZIA-01 PJ 545,00 0,00 0,00 0,00 0,00 0,00 545,00 0,00 0,00 0,00 0,00 545,00 111,30 0,00 30/06/2014
794 385200 NELSON UCHOA ALONSO RODRIGUES ESTAGIARIO ATIVO BELO HORIZONTE; CENTRAL DE APOIO TECNICO 817,50 0,00 0,00 0,00 0,00 0,00 817,50 0,00 0,00 0,00 0,00 817,50 111,30 0,00 30/06/2014
795 322300 NICOLE CARVALHO CARAM GUEDES ESTAGIARIO ATIVO BELO HORIZONTE; PROC. JUSTICA DIR. DIFUSOS E COLETIVOS 545,00 0,00 0,00 0,00 0,00 0,00 545,00 0,00 0,00 0,00 0,00 545,00 111,30 0,00 30/06/2014
796 396600 NICOLI CRISTINA GONCALVES ESTAGIARIO ATIVO COROMANDEL; COROMANDEL - PJ ÚNICA 545,00 0,00 0,00 0,00 0,00 0,00 545,00 0,00 0,00 0,00 0,00 545,00 111,30 0,00 30/06/2014
797 23 NILSON ALVES FILHO CABO ATIVO BELO HORIZONTE - COMARCA; GAECO - SECRETARIA 1.477,90 0,00 0,00 0,00 0,00 0,00 1.477,90 0,00 0,00 0,00 0,00 1.477,90 685,50 0,00 30/06/2014
798 385300 NIVIA TEODORO VASCONCELOS ESTAGIARIO ATIVO Informação não disponível 817,50 0,00 0,00 0,00 0,00 0,00 817,50 0,00 0,00 0,00 0,00 817,50 111,30 0,00 30/06/2014
799 402000 NUBIA DOS SANTOS CITTY ROSA ESTAGIARIO ATIVO ITABIRA; ITABIRA-01 PJ 545,00 0,00 0,00 0,00 0,00 0,00 545,00 0,00 0,00 0,00 0,00 545,00 111,30 0,00 30/06/2014
800 422400 NDIA RODRIGUES CORDEIRO ESTAGIARIO ATIVO BELO HORIZONTE; PROC. JUSTICA DE HABEAS CORPUS 272,50 0,00 0,00 0,00 0,00 0,00 272,50 0,00 0,00 0,00 0,00 272,50 42,40 0,00 30/06/2014
801 385400 ONI MARCIA JARDIM ESTAGIARIO ATIVO BELO HORIZONTE; OUVIDORIA DO MPMG 817,50 0,00 0,00 0,00 0,00 0,00 817,50 0,00 0,00 0,00 0,00 817,50 111,30 0,00 30/06/2014
802 315600 OTAVIO AUGUSTO VIEIRA BOMTEMPO ESTAGIARIO ATIVO PATOS DE MINAS; PATOS DE MINAS-03 PJ 545,00 0,00 0,00 0,00 0,00 0,00 545,00 0,00 0,00 0,00 0,00 545,00 111,30 0,00 30/06/2014
803 329300 PABLO DIAS RESENDE ESTAGIARIO ATIVO NOVA PONTE; NOVA PONTE - PJ ÚNICA 545,00 0,00 0,00 0,00 0,00 0,00 545,00 0,00 0,00 0,00 0,00 545,00 111,30 0,00 30/06/2014
804 402100 PABLO GOMES RIBEIRO ESTAGIARIO ATIVO BELO HORIZONTE; 23ª PJ DEF DIREITOS CRIANÇAS E ADOLESCENTES 545,00 0,00 0,00 0,00 0,00 0,00 545,00 0,00 0,00 0,00 0,00 545,00 100,70 0,00 30/06/2014
805 291900 PACCELLI WANDREY CHAGAS SANTOS ESTAGIARIO ATIVO BRASILIA DE MINAS; BRASILIA DE MINAS-01 PJ 545,00 0,00 0,00 0,00 0,00 0,00 545,00 0,00 0,00 0,00 0,00 545,00 111,30 0,00 30/06/2014
806 396700 PALOMA STHEFANY MARTINS DE SOARES ESTAGIARIO ATIVO BELO HORIZONTE; JUIZO CRIMINAL-12 PJ 545,00 0,00 0,00 0,00 0,00 0,00 545,00 0,00 0,00 0,00 0,00 545,00 111,30 0,00 30/06/2014
807 276600 PAMELA RAISSA HORRANA QUEIROZ ESTAGIARIO ATIVO BELO HORIZONTE; TRIBUNAL DO JURI-07 PJ-02 TRIBUNAL 545,00 0,00 0,00 0,00 0,00 0,00 545,00 0,00 0,00 0,00 0,00 545,00 95,40 272,50 30/06/2014
808 396800 PAOLA ALCANTARA LIMA DUMONT ESTAGIARIO ATIVO CONTAGEM; CONTAGEM-04 PJ 545,00 0,00 0,00 0,00 0,00 0,00 545,00 0,00 0,00 0,00 0,00 545,00 111,30 0,00 30/06/2014
809 95 PAOLA BONANATO LOPES MAJOR ATIVO BELO HORIZONTE - COMARCA; CAO-DIREITOS HUMANOS E APOIO COMUNITARIO 3.425,36 0,00 0,00 0,00 0,00 0,00 3.425,36 0,00 178,77 0,00 178,77 3.246,59 685,50 0,00 30/06/2014
810 378000 PATRICIA APARECIDA DA ASSIS PINTO ESTAGIARIO ATIVO PASSA TEMPO; PASSA TEMPO - PJ ÚNICA 545,00 0,00 0,00 0,00 0,00 0,00 545,00 0,00 0,00 0,00 0,00 545,00 106,00 0,00 30/06/2014
811 305300 PATRICIA APARECIDA GODINHO ESTAGIARIO ATIVO PONTE NOVA; PONTE NOVA-01 PJ 545,00 0,00 0,00 0,00 0,00 0,00 545,00 0,00 0,00 0,00 0,00 545,00 111,30 0,00 30/06/2014
812 305400 PATRICIA BOTELHO BALDINO ESTAGIARIO ATIVO BELO HORIZONTE; CRIANÇAS E ADOLESCENTES-23 PJ-INFRACIONAL 545,00 0,00 0,00 0,00 0,00 0,00 545,00 0,00 0,00 0,00 0,00 545,00 111,30 0,00 30/06/2014
813 300800 PATRICIA DE SOUSA RESENDE ESTAGIARIO ATIVO JUIZ DE FORA; JUIZ DE FORA-02 PJ 545,00 0,00 0,00 0,00 0,00 0,00 545,00 0,00 0,00 0,00 0,00 545,00 106,00 0,00 30/06/2014
814 292200 PATRICIA JUNQUEIRA RODRIGUES REZENDE ESTAGIARIO ATIVO SAO LOURENCO; SAO LOURENCO-02 PJ 545,00 0,00 0,00 0,00 0,00 0,00 545,00 0,00 0,00 0,00 0,00 545,00 111,30 0,00 30/06/2014
815 419500 PATRICIA MARTINOLLI PEREIRA ESTAGIARIO ATIVO Informação não disponível 817,50 0,00 0,00 0,00 0,00 0,00 817,50 0,00 0,00 0,00 0,00 817,50 100,70 0,00 30/06/2014
816 419600 PATRICIA MENDES GONCALVES LIMA ESTAGIARIO ATIVO MONTES CLAROS; COORD REG PJ DEF EDUC DIR CRIANCA ADOL NORTE 545,00 0,00 0,00 0,00 0,00 0,00 545,00 0,00 0,00 0,00 0,00 545,00 111,30 0,00 30/06/2014
817 368900 PATRICIA REGINA ANDRADE ESTAGIARIO ATIVO BELO HORIZONTE; PROC. JUSTICA DIR. DIFUSOS E COLETIVOS 545,00 0,00 0,00 0,00 0,00 0,00 545,00 0,00 0,00 0,00 0,00 545,00 111,30 0,00 30/06/2014
818 402200 PATRICIA RIBEIRO DA SILVA ESTAGIARIO ATIVO TUPACIGUARA; TUPACIGUARA - PJ ÚNICA 545,00 0,00 0,00 0,00 0,00 0,00 545,00 0,00 0,00 0,00 0,00 545,00 111,30 0,00 30/06/2014
819 305500 PATRICK ALEXSANDER PINTO DA COSTA ESTAGIARIO ATIVO CONGONHAS; CONGONHAS-01 PJ 545,00 0,00 0,00 0,00 0,00 0,00 545,00 0,00 0,00 0,00 0,00 545,00 111,30 0,00 30/06/2014
820 299500 PAULA DANIELLE SOUSA ESTAGIARIO ATIVO LAVRAS; LAVRAS-02 PJ 545,00 0,00 0,00 0,00 0,00 0,00 545,00 0,00 0,00 0,00 0,00 545,00 111,30 0,00 30/06/2014
821 397700 PAULA DE CAMPOS MATTAR AMORIM ESTAGIARIO ATIVO BELO HORIZONTE; AUDITORIA MILITAR-09 PJ 545,00 0,00 0,00 0,00 0,00 0,00 545,00 0,00 0,00 0,00 0,00 545,00 111,30 0,00 30/06/2014
822 329400 PAULA GROKE ESTAGIARIO ATIVO ITAPAGIPE; ITAPAGIPE - PJ ÚNICA 545,00 0,00 0,00 0,00 0,00 0,00 545,00 0,00 0,00 0,00 0,00 545,00 106,00 0,00 30/06/2014
823 407800 PAULA RAISSA COSTA E SILVA ESTAGIARIO ATIVO BELO HORIZONTE; DIRETORIA DE SISTEMAS DE INFORMACAO 817,50 0,00 0,00 0,00 0,00 0,00 817,50 0,00 0,00 0,00 0,00 817,50 111,30 0,00 30/06/2014
824 315800 PAULO CESAR DOS SANTOS JUNIOR ESTAGIARIO ATIVO EUGENOPOLIS; EUGENOPOLIS - PJ ÚNICA 545,00 0,00 0,00 0,00 0,00 0,00 545,00 0,00 0,00 0,00 0,00 545,00 111,30 0,00 30/06/2014
825 292000 PAULO HENRIQUE D'ASSUMPCAO FONSECA ESTAGIARIO ATIVO DIVINOPOLIS; DIVINOPOLIS-05 PJ 545,00 0,00 0,00 0,00 0,00 0,00 545,00 0,00 0,00 0,00 0,00 545,00 111,30 0,00 30/06/2014
826 337000 PAULO HENRIQUE FERREIRA BARROS ESTAGIARIO ATIVO BELO HORIZONTE; CAO-CRIMINAL-GABINETES 545,00 0,00 0,00 0,00 0,00 0,00 545,00 0,00 0,00 0,00 0,00 545,00 111,30 0,00 30/06/2014
827 322400 PAULO HENRIQUE LAMOUNIER QUADROS ESTAGIARIO ATIVO DIVINOPOLIS; DIVINOPOLIS-09 PJ 545,00 0,00 0,00 0,00 0,00 0,00 545,00 0,00 0,00 0,00 0,00 545,00 111,30 0,00 30/06/2014
828 47 PAULO LEONARDO BENICIO PRAXEDES TENENTE CORONEL ATIVO BELO HORIZONTE - COMARCA; COORD ESTADUAL COMBATE CRIMES CIBERNETICOS 4.260,42 0,00 0,00 0,00 0,00 0,00 4.260,42 0,00 355,63 0,00 355,63 3.904,79 685,50 0,00 30/06/2014
829 37 PAULO MARTINS JUNIOR 1O. SARGENTO ATIVO BELO HORIZONTE - COMARCA; COORD DE PLANEJAMENTO INSTITUCIONAL 1.918,66 0,00 0,00 0,00 0,00 0,00 1.918,66 0,00 9,82 0,00 9,82 1.908,84 685,50 0,00 30/06/2014
830 410900 PAULO ROBERTO DA SILVA ESTAGIARIO ATIVO BELO HORIZONTE; JUIZADO ESPECIAL CÍVEL E CRIMINAL - 08ª PJ 545,00 0,00 0,00 0,00 0,00 0,00 545,00 0,00 0,00 0,00 0,00 545,00 111,30 0,00 30/06/2014
831 342300 PEDRO BERALDO CAMBAIA FERREIRA ESTAGIARIO ATIVO JUIZ DE FORA; JUIZ DE FORA-06 PJ 545,00 0,00 0,00 0,00 0,00 0,00 545,00 0,00 0,00 0,00 0,00 545,00 106,00 0,00 30/06/2014
832 306700 PEDRO EMILIO PARADELO ESTAGIARIO ATIVO OURO FINO; OURO FINO-01 PJ 545,00 0,00 0,00 0,00 0,00 0,00 545,00 0,00 0,00 0,00 0,00 545,00 111,30 0,00 30/06/2014
833 342400 PEDRO FERRAZ DA SILVA VEIGA ESTAGIARIO ATIVO LEOPOLDINA; LEOPOLDINA-01 PJ 545,00 0,00 0,00 0,00 0,00 0,00 545,00 0,00 0,00 0,00 0,00 545,00 111,30 0,00 30/06/2014
834 329500 PEDRO HENRIQUE ALKIMIM JORDAO ESTAGIARIO ATIVO BELO HORIZONTE; PJ AUXILIAR DA CAPITAL 545,00 0,00 0,00 0,00 0,00 0,00 545,00 0,00 0,00 0,00 0,00 545,00 111,30 0,00 30/06/2014
835 385500 PEDRO HENRIQUE CAIRES DA SILVA ESTAGIARIO ATIVO BELO HORIZONTE; SUPERINTENDENCIA DE TECNOLOGIA DA INFORMACAO 817,50 0,00 0,00 0,00 0,00 0,00 817,50 0,00 0,00 0,00 0,00 817,50 111,30 0,00 30/06/2014
836 385600 PEDRO HENRIQUE DE MATOS ESTAGIARIO ATIVO BELO HORIZONTE; SUPERINTENDENCIA DE COMUNICACAO INTEGRADA 817,50 0,00 0,00 0,00 0,00 0,00 817,50 0,00 0,00 0,00 0,00 817,50 111,30 0,00 30/06/2014
837 369000 PEDRO HENRIQUE DE SOUZA COSTA ESTAGIARIO ATIVO MURIAE; MURIAE- SECRETARIA DAS PROMOTORIAS 545,00 0,00 0,00 0,00 0,00 0,00 545,00 0,00 0,00 0,00 0,00 545,00 111,30 0,00 30/06/2014
838 337100 PEDRO HENRIQUE FELICIANO ESTAGIARIO ATIVO MONTES CLAROS; MONTES CLAROS-02 PJ 545,00 0,00 0,00 0,00 0,00 0,00 545,00 0,00 0,00 0,00 0,00 545,00 111,30 0,00 30/06/2014
839 385700 PEDRO HENRIQUE FONSECA FERNANDES ESTAGIARIO ATIVO Informação não disponível 817,50 0,00 0,00 0,00 0,00 0,00 817,50 0,00 0,00 0,00 0,00 817,50 111,30 0,00 30/06/2014
840 407900 PEDRO HENRIQUE GUIMARAES COSTA ESTAGIARIO ATIVO Informação não disponível 526,83 0,00 0,00 0,00 0,00 0,00 526,83 0,00 0,00 0,00 0,00 526,83 106,00 0,00 30/06/2014
841 411000 PEDRO HENRIQUE LELES DIAS ESTAGIARIO ATIVO OURO PRETO; OURO PRETO-03 PJ 545,00 0,00 0,00 0,00 0,00 0,00 545,00 0,00 0,00 0,00 0,00 545,00 111,30 0,00 30/06/2014
842 402300 PEDRO HENRIQUE RESENDE FONSECA ESTAGIARIO ATIVO ITAGUARA; ITAGUARA - PJ ÚNICA 545,00 0,00 0,00 0,00 0,00 0,00 545,00 0,00 0,00 0,00 0,00 545,00 111,30 0,00 30/06/2014
843 309400 PEDRO HENRIQUE VALENTINO COUTO ESTAGIARIO ATIVO RIBEIRAO DAS NEVES; RIBEIRAO DAS NEVES-03 PJ 545,00 0,00 0,00 0,00 0,00 0,00 545,00 0,00 0,00 0,00 0,00 545,00 111,30 0,00 30/06/2014
844 329600 PEDRO LUIZ NORONHA DIAS SENNA ESTAGIARIO ATIVO BRASOPOLIS; BRASOPOLIS - PJ ÚNICA 545,00 0,00 0,00 0,00 0,00 0,00 545,00 0,00 0,00 0,00 0,00 545,00 63,60 0,00 30/06/2014
845 408000 PEDRO VICTOR CORREA ALVES ESTAGIARIO ATIVO IPATINGA; IPATINGA-03 PJ 545,00 0,00 0,00 0,00 0,00 0,00 545,00 0,00 0,00 0,00 0,00 545,00 106,00 0,00 30/06/2014
846 414900 PENHA POLIANA BATISTA ESTAGIARIO ATIVO BETIM; BETIM-06 PJ 236,17 0,00 0,00 0,00 0,00 0,00 236,17 0,00 0,00 0,00 0,00 236,17 15,90 0,00 30/06/2014
847 347700 PHILIPE DE BARROS SALES ESTAGIARIO ATIVO VESPASIANO; VESPASIANO-04 PJ 545,00 0,00 0,00 0,00 0,00 0,00 545,00 0,00 0,00 0,00 0,00 545,00 100,70 0,00 30/06/2014
848 268400 PHILIPE OUVERNEY OLIVEIRA MENDONCA ESTAGIARIO ATIVO DIVINO; DIVINO - PJ ÚNICA 308,83 0,00 0,00 0,00 0,00 0,00 308,83 0,00 0,00 0,00 0,00 308,83 53,00 0,00 30/06/2014
849 316100 POLIANA FLAVIA MOREIRA GIACOMELLI ESTAGIARIO ATIVO BELO HORIZONTE; PROC. JUSTICA DIR. DIFUSOS E COLETIVOS 545,00 0,00 0,00 0,00 0,00 0,00 545,00 0,00 0,00 0,00 0,00 545,00 111,30 0,00 30/06/2014
850 347600 POLIANA TOMAZ SOUZA ESTAGIARIO ATIVO Informação não disponível 308,83 0,00 0,00 0,00 0,00 0,00 308,83 0,00 0,00 0,00 0,00 308,83 68,90 0,00 30/06/2014
851 360800 POLLYANNA NUNES ARAUJO ESTAGIARIO ATIVO BELO HORIZONTE; JUIZADO ESPECIAL CÍVEL E CRIMINAL - 08ª PJ 545,00 0,00 0,00 0,00 0,00 0,00 545,00 0,00 0,00 0,00 0,00 545,00 68,90 0,00 30/06/2014
852 373100 PRISCILA ARAUJO DE FREITAS ESTAGIARIO ATIVO BELO HORIZONTE; JUIZADO ESPECIAL CÍVEL E CRIMINAL - 08ª PJ 545,00 0,00 0,00 0,00 0,00 0,00 545,00 0,00 0,00 0,00 0,00 545,00 111,30 0,00 30/06/2014
853 422600 PRISCILA CRISTINA DE SOUZA SILVA ESTAGIARIO ATIVO UBERLANDIA; UBERLANDIA-05 PJ 272,50 0,00 0,00 0,00 0,00 0,00 272,50 0,00 0,00 0,00 0,00 272,50 47,70 0,00 30/06/2014
854 343700 PRISCILA FERNANDA MACHADO DE SOUZA ESTAGIARIO ATIVO BELO HORIZONTE; 18 PJ DEF DIR HUM AP COM CONF AG E FISC POL 545,00 0,00 0,00 0,00 0,00 0,00 545,00 0,00 0,00 0,00 0,00 545,00 111,30 0,00 30/06/2014
855 416800 PRISCILA KELITA LEAL DA SILVA ESTAGIARIO ATIVO GOVERNADOR VALADARES; GOVERNADOR VALADARES-04 PJ 545,00 0,00 0,00 0,00 0,00 0,00 545,00 0,00 0,00 0,00 0,00 545,00 106,00 0,00 30/06/2014
856 369100 PRISCILA MARA SOUZA VIEIRA ESTAGIARIO ATIVO IPATINGA; IPATINGA-01 PJ 545,00 0,00 0,00 0,00 0,00 0,00 545,00 0,00 0,00 0,00 0,00 545,00 111,30 0,00 30/06/2014
857 411100 PRISCILA NOGUEIRA SANTOS ESTAGIARIO ATIVO BELO HORIZONTE; DEFESA DA SAUDE-19 PJ 817,50 0,00 0,00 0,00 0,00 0,00 817,50 0,00 0,00 0,00 0,00 817,50 111,30 0,00 30/06/2014
858 391300 PRISCILA YASMIN FLORES EMILIANO ESTAGIARIO ATIVO IGARAPE; IGARAPE - 01ª PJ 545,00 0,00 0,00 0,00 0,00 0,00 545,00 0,00 0,00 0,00 0,00 545,00 106,00 0,00 30/06/2014
859 402400 PRISCILLA REGINA DA SILVA RAMALHO ESTAGIARIO ATIVO AGUAS FORMOSAS; AGUAS FORMOSAS - PJ ÚNICA 545,00 0,00 0,00 0,00 0,00 0,00 545,00 0,00 0,00 0,00 0,00 545,00 111,30 0,00 30/06/2014
860 353900 QUEZIA DE PAULA RIBEIRO ESTAGIARIO ATIVO GOVERNADOR VALADARES; GOVERNADOR VALADARES-13 PROMOTORIA DEJUSTICA 545,00 0,00 0,00 0,00 0,00 0,00 545,00 0,00 0,00 0,00 0,00 545,00 106,00 0,00 30/06/2014
861 386000 RACHEL ASSIS BARAKY VERNER ESTAGIARIO ATIVO BELO HORIZONTE; EXTINTA - DIRETORIA SERVIÇOS GERAIS E TRANS 817,50 0,00 0,00 0,00 0,00 0,00 817,50 0,00 0,00 0,00 0,00 817,50 111,30 0,00 30/06/2014
862 342500 RACHEL FRANCIANE DE OLIVEIRA ESTAGIARIO ATIVO JUIZ DE FORA; JUIZ DE FORA-03 PJ 545,00 0,00 0,00 0,00 0,00 0,00 545,00 0,00 0,00 0,00 0,00 545,00 106,00 0,00 30/06/2014
863 337200 RAFAEL BALTAZAR GOMES DOS SANTOS ESTAGIARIO ATIVO ITUIUTABA; ITUIUTABA-05 PJ 545,00 0,00 0,00 0,00 0,00 0,00 545,00 0,00 0,00 0,00 0,00 545,00 111,30 0,00 30/06/2014
864 268500 RAFAEL BARBOSA AMARAL ESTAGIARIO ATIVO BOA ESPERANCA; BOA ESPERANCA-01 PJ 545,00 0,00 0,00 0,00 0,00 0,00 545,00 0,00 0,00 0,00 0,00 545,00 68,90 0,00 30/06/2014
865 329700 RAFAEL CEVIDANES PEREIRA ABELHA ESTAGIARIO ATIVO IPATINGA; IPATINGA-03 PJ 545,00 0,00 0,00 0,00 0,00 0,00 545,00 0,00 0,00 0,00 0,00 545,00 111,30 0,00 30/06/2014
866 360100 RAFAEL DA SILVA LIBERANO ESTAGIARIO ATIVO JUIZ DE FORA; COORD REG PJ ORDEM ECON TRIB ZONA DA MATA-GAB 545,00 0,00 0,00 0,00 0,00 0,00 545,00 0,00 0,00 0,00 0,00 545,00 106,00 0,00 30/06/2014
867 386100 RAFAEL DE ASSIS MEIRELES ESTAGIARIO ATIVO BELO HORIZONTE; CENTRO DE ESTUDOS E APERFEICOAMENTO FUNCIONAL 817,50 0,00 0,00 0,00 0,00 0,00 817,50 0,00 0,00 0,00 0,00 817,50 111,30 0,00 30/06/2014
868 337300 RAFAEL DE LUCCA TALMA ESTAGIARIO ATIVO UBA; UBA-02 PJ 545,00 0,00 0,00 0,00 0,00 0,00 545,00 0,00 0,00 0,00 0,00 545,00 111,30 0,00 30/06/2014
869 364100 RAFAEL JOSE DE CASTRO ESTAGIARIO ATIVO JUIZ DE FORA; JUIZ DE FORA-24 PJ 545,00 0,00 0,00 0,00 0,00 0,00 545,00 0,00 0,00 0,00 0,00 545,00 106,00 0,00 30/06/2014
870 408100 RAFAEL LUCAS VIEIRA ESTAGIARIO ATIVO Informação não disponível 545,00 0,00 0,00 0,00 0,00 0,00 545,00 0,00 0,00 0,00 0,00 545,00 111,30 0,00 30/06/2014
871 268600 RAFAEL LUIZ BALE CANTARINO ESTAGIARIO ATIVO JUIZ DE FORA; JUIZ DE FORA-01 PJ 545,00 0,00 0,00 0,00 0,00 0,00 545,00 0,00 0,00 0,00 0,00 545,00 106,00 0,00 30/06/2014
872 329800 RAFAEL OLIVEIRA DE SOUZA ESTAGIARIO ATIVO SANTOS DUMONT; SANTOS DUMONT-01 PJ 545,00 0,00 0,00 0,00 0,00 0,00 545,00 0,00 0,00 0,00 0,00 545,00 111,30 0,00 30/06/2014
873 329900 RAFAEL PIRES DEFELIPPE ESTAGIARIO ATIVO VICOSA; VICOSA-04 PJ 545,00 0,00 0,00 0,00 0,00 0,00 545,00 0,00 0,00 0,00 0,00 545,00 68,90 0,00 30/06/2014
874 422700 RAFAEL SOARES GONALVES ESTAGIARIO ATIVO BELO HORIZONTE; PROC. JUSTICA DE HABEAS CORPUS 436,00 0,00 0,00 0,00 0,00 0,00 436,00 0,00 0,00 0,00 0,00 436,00 42,40 0,00 30/06/2014
875 285900 RAFAEL TADEU DE FARIA SANTOS ESTAGIARIO ATIVO ABAETE; ABAETE - PJ ÚNICA 545,00 0,00 0,00 0,00 0,00 0,00 545,00 0,00 0,00 0,00 0,00 545,00 106,00 0,00 30/06/2014
876 411200 RAFAELA BRANDAO LEONARDO ESTAGIARIO ATIVO POUSO ALEGRE; POUSO ALEGRE-06 PJ 545,00 0,00 0,00 0,00 0,00 0,00 545,00 0,00 0,00 0,00 0,00 545,00 111,30 0,00 30/06/2014
877 342700 RAFAELA CRISTINA REIS FERREIRA ESTAGIARIO ATIVO JUIZ DE FORA; JUIZ DE FORA-13 PJ 545,00 0,00 0,00 0,00 0,00 0,00 545,00 0,00 0,00 0,00 0,00 545,00 106,00 0,00 30/06/2014
878 360200 RAFAELA FLAVIA DA SILVA ESTAGIARIO ATIVO PATOS DE MINAS; PATOS DE MINAS-02 PJ 545,00 0,00 0,00 0,00 0,00 0,00 545,00 0,00 0,00 0,00 0,00 545,00 111,30 0,00 30/06/2014
879 286000 RAFAELA PENA MAGALHAES CAMPOS ESTAGIARIO ATIVO CONTAGEM; CONTAGEM-08 PJ 545,00 0,00 0,00 0,00 0,00 0,00 545,00 0,00 0,00 0,00 0,00 545,00 111,30 0,00 30/06/2014
880 305700 RAFAELLO HENRIQUE MOREIRA TAVEIRA ESTAGIARIO ATIVO BELO HORIZONTE; AUDITORIA MILITAR-09 PJ 545,00 0,00 0,00 0,00 0,00 0,00 545,00 0,00 0,00 0,00 0,00 545,00 111,30 0,00 30/06/2014
881 411300 RAIANE CAROLINE ALFEU LOPES ESTAGIARIO ATIVO BELO HORIZONTE; 18 PJ DEF DIR HUM AP COM CONF AG E FISC POL 545,00 0,00 0,00 0,00 0,00 0,00 545,00 0,00 0,00 0,00 0,00 545,00 111,30 0,00 30/06/2014
882 337400 RAISSA ARAUJO SOUZA ESTAGIARIO ATIVO BELO HORIZONTE; JUIZO CRIMINAL-12 PJ 545,00 0,00 0,00 0,00 0,00 0,00 545,00 0,00 0,00 0,00 0,00 545,00 111,30 0,00 30/06/2014
883 268700 RAISSA SOUSA MARTINS ESTAGIARIO ATIVO Informação não disponível 545,00 0,00 0,00 0,00 0,00 0,00 545,00 0,00 0,00 0,00 0,00 545,00 111,30 327,00 30/06/2014
884 378800 RAIZZA PAULINA DO CARMO CUNHA ESTAGIARIO ATIVO CONTAGEM; CONTAGEM-11 PJ 545,00 0,00 0,00 0,00 0,00 0,00 545,00 0,00 0,00 0,00 0,00 545,00 111,30 0,00 30/06/2014
885 347800 RAMON PEREIRA TERUEL ESTAGIARIO ATIVO ESTRELA DO SUL; ESTRELA DO SUL - PJ ÚNICA 545,00 0,00 0,00 0,00 0,00 0,00 545,00 0,00 0,00 0,00 0,00 545,00 111,30 0,00 30/06/2014
886 391400 RAPHAELA DA SILVA PEREIRA ESTAGIARIO ATIVO GUARANI; GUARANI - PJ ÚNICA 545,00 0,00 0,00 0,00 0,00 0,00 545,00 0,00 0,00 0,00 0,00 545,00 111,30 0,00 30/06/2014
887 300000 RAQUEL LETICIA DE MATTOS SIMOES ESTAGIARIO ATIVO BELO HORIZONTE; JUIZO DE FAMILIA-02 PJ 545,00 0,00 0,00 0,00 0,00 0,00 545,00 0,00 0,00 0,00 0,00 545,00 84,80 0,00 30/06/2014
888 316200 RAQUEL SILVA MELO ESTAGIARIO ATIVO VAZANTE; VAZANTE - PJ ÚNICA 545,00 0,00 0,00 0,00 0,00 0,00 545,00 0,00 0,00 0,00 0,00 545,00 111,30 0,00 30/06/2014
889 59 RAUL MORAES DE EUCLIDES INVESTIGADOR DE POLICIA 2 ATIVO BELO HORIZONTE - COMARCA; GAECO - SECRETARIA 1.918,67 0,00 0,00 0,00 0,00 0,00 1.918,67 0,00 9,82 0,00 9,82 1.908,85 685,50 0,00 30/06/2014
890 69 RAVI RIBEIRO BARBOSA AGENTE DE POLICIA ATIVO BELO HORIZONTE - COMARCA; COORD DE PLANEJAMENTO INSTITUCIONAL 1.477,90 0,00 0,00 0,00 0,00 0,00 1.477,90 0,00 0,00 0,00 0,00 1.477,90 685,50 0,00 30/06/2014
891 419700 RAYANNE CRISTINE CUNHA MIRANDA ESTAGIARIO ATIVO CORONEL FABRICIANO; CORONEL FABRICIANO-01 PROMOTORIA DE JUSTIÇ 545,00 0,00 0,00 0,00 0,00 0,00 545,00 0,00 0,00 0,00 0,00 545,00 95,40 0,00 30/06/2014
892 391500 RAYSSA AZEVEDO ROCHA PEREIRA ESTAGIARIO ATIVO BELO HORIZONTE; JUIZO DE FAMILIA-02 PJ 545,00 0,00 0,00 0,00 0,00 0,00 545,00 0,00 0,00 0,00 0,00 545,00 111,30 0,00 30/06/2014
893 422800 RASSA DE PAULA PORTES ESTAGIARIO ATIVO MANHUACU; MANHUACU-03 PJ 272,50 0,00 0,00 0,00 0,00 0,00 272,50 0,00 0,00 0,00 0,00 272,50 47,70 0,00 30/06/2014
894 342900 REBECA LARA FONSECA DA SILVA ESTAGIARIO ATIVO BELO HORIZONTE; AUDITORIA MILITAR-09 PJ 545,00 0,00 0,00 0,00 0,00 0,00 545,00 0,00 0,00 0,00 0,00 545,00 111,30 0,00 30/06/2014
895 416900 RENAN VALENTI POSSAMAI ESTAGIARIO ATIVO BELO HORIZONTE; JUIZADO ESPECIAL CÍVEL E CRIMINAL - 08ª PJ 545,00 0,00 0,00 0,00 0,00 0,00 545,00 0,00 0,00 0,00 0,00 545,00 95,40 0,00 30/06/2014
896 386200 RENATA FERNANDES PARREIRAS ESTAGIARIO ATIVO BELO HORIZONTE; 23ª PJ DEF DIREITOS CRIANÇAS E ADOLESCENTES 817,50 0,00 0,00 0,00 0,00 0,00 817,50 0,00 0,00 0,00 0,00 817,50 111,30 0,00 30/06/2014
897 322600 RENATA LUCIANA SOARES SILVA ESTAGIARIO ATIVO RIBEIRAO DAS NEVES; RIBEIRAO DAS NEVES-01 PJ 545,00 0,00 0,00 0,00 0,00 0,00 545,00 0,00 0,00 0,00 0,00 545,00 111,30 0,00 30/06/2014
898 286100 RHAISSA COSTA DE MATOS ESTAGIARIO ATIVO BARBACENA; BARBACENA-05 PJ 545,00 0,00 0,00 0,00 0,00 0,00 545,00 0,00 0,00 0,00 0,00 545,00 111,30 0,00 30/06/2014
899 309500 RICARDO AUGUSTO DE CASRO ZINGONI ESTAGIARIO ATIVO POCOS DE CALDAS; POCOS DE CALDAS-02 PJ 545,00 0,00 0,00 0,00 0,00 0,00 545,00 0,00 0,00 0,00 0,00 545,00 111,30 0,00 30/06/2014
900 338400 RICARDO BRANQUINHO DE PASSOS MACIEL ESTAGIARIO ATIVO Informação não disponível 545,00 0,00 0,00 0,00 0,00 0,00 545,00 0,00 0,00 0,00 0,00 545,00 111,30 0,00 30/06/2014
901 56 RICARDO VIANA CAMPOS 3O.SARGENTO ATIVO BELO HORIZONTE - COMARCA; COORD DE PLANEJAMENTO INSTITUCIONAL 1.477,90 0,00 0,00 0,00 0,00 0,00 1.477,90 0,00 0,00 0,00 0,00 1.477,90 685,50 0,00 30/06/2014
902 415000 RICHELLMA CRISTOPHER MANICOBA SANTANA ESTAGIARIO ATIVO CANAPOLIS; CANAPOLIS - PJ ÚNICA 545,00 0,00 0,00 0,00 0,00 0,00 545,00 0,00 0,00 0,00 0,00 545,00 111,30 0,00 30/06/2014
903 419800 RITA GISELE GOULART DA SILVA ESTAGIARIO ATIVO SETE LAGOAS; SETE LAGOAS-02 PJ 545,00 0,00 0,00 0,00 0,00 0,00 545,00 0,00 0,00 0,00 0,00 545,00 111,30 0,00 30/06/2014
904 322700 RIVIANE MARIA FELIPPE FERES LAVIOLA ESTAGIARIO ATIVO MURIAE; MURIAE-05 PJ 545,00 0,00 0,00 0,00 0,00 0,00 545,00 0,00 0,00 0,00 0,00 545,00 111,30 0,00 30/06/2014
905 386300 ROBERT RODRIGUES DE SAO JOSE ESTAGIARIO ATIVO BELO HORIZONTE; DIRETORIA DE IMPRENSA 817,50 0,00 0,00 0,00 0,00 0,00 817,50 0,00 0,00 0,00 0,00 817,50 111,30 0,00 30/06/2014
906 316500 ROBERTA MARTINS RODRIGUES ESTAGIARIO ATIVO LEOPOLDINA; LEOPOLDINA-04 PJ 545,00 0,00 0,00 0,00 0,00 0,00 545,00 0,00 0,00 0,00 0,00 545,00 111,30 0,00 30/06/2014
907 11 ROBERTO HERMELINDO DOMINGUES 1O.TENENTE ATIVO BELO HORIZONTE - COMARCA; COORD DE PLANEJAMENTO INSTITUCIONAL 2.820,82 0,00 0,00 0,00 0,00 0,00 2.820,82 0,00 88,09 0,00 88,09 2.732,73 685,50 0,00 30/06/2014
908 422900 RODRIGO ALYSSON MARTINS ESTAGIARIO ATIVO PASSOS; PASSOS-02 PJ 272,50 0,00 0,00 0,00 0,00 0,00 272,50 0,00 0,00 0,00 0,00 272,50 47,70 0,00 30/06/2014
909 386400 RODRIGO ASSIS PEREIRA LIMA ESTAGIARIO ATIVO BELO HORIZONTE; SUPERINTENDENCIA DE TECNOLOGIA DA INFORMACAO 817,50 0,00 0,00 0,00 0,00 0,00 817,50 0,00 0,00 0,00 0,00 817,50 111,30 0,00 30/06/2014
910 402500 RODRIGO CARDOSO SOARES ESTAGIARIO ATIVO BELO HORIZONTE; 18 PJ DEF DIR HUM AP COM CONF AG E FISC POL 545,00 0,00 0,00 0,00 0,00 0,00 545,00 0,00 0,00 0,00 0,00 545,00 111,30 0,00 30/06/2014
911 391600 RODRIGO CESAR PICON DE CARVALHO ESTAGIARIO ATIVO SAO JOAO DEL REI; SAO JOAO DEL REI-06 PJ 545,00 0,00 0,00 0,00 0,00 0,00 545,00 0,00 0,00 0,00 0,00 545,00 111,30 0,00 30/06/2014
912 337800 RODRIGO FERNANDES ROCHA ESTAGIARIO ATIVO IPANEMA; IPANEMA - PJ ÚNICA 545,00 0,00 0,00 0,00 0,00 0,00 545,00 0,00 0,00 0,00 0,00 545,00 111,30 0,00 30/06/2014
913 316600 RODRIGO FREITAS BISPO DE SOUZA ESTAGIARIO ATIVO TUPACIGUARA; TUPACIGUARA - PJ ÚNICA 545,00 0,00 0,00 0,00 0,00 0,00 545,00 0,00 0,00 0,00 0,00 545,00 68,90 0,00 30/06/2014
914 411400 RODRIGO GONCALVES DE OLIVEIRA SOARES ESTAGIARIO ATIVO BELO HORIZONTE; 22ª PJ DEF DIREITO PESSOAS DEFICIENCIA IDOSOS 545,00 0,00 0,00 0,00 0,00 0,00 545,00 0,00 0,00 0,00 0,00 545,00 111,30 0,00 30/06/2014
915 417000 RODRIGO PEDRO LUDGERIO ESTAGIARIO ATIVO CARATINGA; CARATINGA-03 PJ 545,00 0,00 0,00 0,00 0,00 0,00 545,00 0,00 0,00 0,00 0,00 545,00 111,30 0,00 30/06/2014
916 6 ROGERIO JOSE DA SILVA SUB TENENTE ATIVO BELO HORIZONTE - COMARCA; GAECO - SECRETARIA 2.152,80 0,00 0,00 0,00 0,00 0,00 2.152,80 0,00 27,38 0,00 27,38 2.125,42 685,50 0,00 30/06/2014
917 7 ROGERLANE RODRIGUES DA SILVEIRA 3O.SARGENTO ATIVO BELO HORIZONTE - COMARCA; GAECO - SECRETARIA 1.477,90 0,00 0,00 0,00 0,00 0,00 1.477,90 0,00 0,00 0,00 0,00 1.477,90 685,50 0,00 30/06/2014
918 300200 ROMULO MENDONCA PIMENTA LOPES ESTAGIARIO ATIVO VESPASIANO; VESPASIANO-02 PJ 545,00 0,00 0,00 0,00 0,00 0,00 545,00 0,00 0,00 0,00 0,00 545,00 95,40 0,00 30/06/2014
919 423000 ROSANE MONTEIRO BARBOSA ESTAGIARIO ATIVO RIBEIRAO DAS NEVES; RIBEIRAO DAS NEVES-06 PJ 545,00 0,00 0,00 0,00 0,00 0,00 545,00 0,00 0,00 0,00 0,00 545,00 47,70 0,00 30/06/2014
920 423100 RUBEM DIAS BARBOSA ESTAGIARIO ATIVO BELO HORIZONTE; PROC. JUSTICA DE HABEAS CORPUS 545,00 0,00 0,00 0,00 0,00 0,00 545,00 0,00 0,00 0,00 0,00 545,00 47,70 0,00 30/06/2014
921 316700 RUBENS RAMOS ROCHA ESTAGIARIO ATIVO GOVERNADOR VALADARES; GOVERNADOR VALADARES-05 PJ 545,00 0,00 0,00 0,00 0,00 0,00 545,00 0,00 0,00 0,00 0,00 545,00 106,00 0,00 30/06/2014
922 411500 SABRINA DE SOUZA SOARES ESTAGIARIO ATIVO DIVINOPOLIS; DIVINÓPOLIS - 10ª PJ 545,00 0,00 0,00 0,00 0,00 0,00 545,00 0,00 0,00 0,00 0,00 545,00 111,30 0,00 30/06/2014
923 411600 SAMANTA MARIETA TAVEIRA FAUSTO ESTAGIARIO ATIVO CAXAMBU; CAXAMBU - PJ ÚNICA 545,00 0,00 0,00 0,00 0,00 0,00 545,00 0,00 0,00 0,00 0,00 545,00 111,30 0,00 30/06/2014
924 386600 SAMANTHA LOPES DA COSTA ESTAGIARIO ATIVO BELO HORIZONTE; SUPERINTENDENCIA DE COMUNICACAO INTEGRADA 817,50 0,00 0,00 0,00 0,00 0,00 817,50 0,00 0,00 0,00 0,00 817,50 84,80 0,00 30/06/2014
925 396900 SAMANTHA OLIVEIRA MORAES DE ANDRADE ESTAGIARIO ATIVO BELO HORIZONTE; 23ª PJ DEF DIREITOS CRIANÇAS E ADOLESCENTES 54,50 0,00 0,00 0,00 0,00 0,00 54,50 0,00 0,00 0,00 0,00 54,50 15,90 0,00 30/06/2014
926 378200 SAMEA CAROLINE DE JESUS ESTAGIARIO ATIVO Informação não disponível 545,00 0,00 0,00 0,00 0,00 0,00 545,00 0,00 0,00 0,00 0,00 545,00 111,30 0,00 30/06/2014
927 68 SAMUEL MARCIO DA LUZ 1O. SARGENTO ATIVO BELO HORIZONTE - COMARCA; COORD DE PLANEJAMENTO INSTITUCIONAL 1.918,66 0,00 0,00 0,00 0,00 0,00 1.918,66 0,00 9,82 0,00 9,82 1.908,84 685,50 0,00 30/06/2014
928 293100 SAMUEL MIGUEL ABDALA JUNIOR ESTAGIARIO ATIVO BELO HORIZONTE; FAZENDA PUBLICA E EXECUCOES FISCAIS-01 PJ 545,00 0,00 0,00 0,00 0,00 0,00 545,00 0,00 0,00 0,00 0,00 545,00 111,30 0,00 30/06/2014
929 87 SAMUEL PASSOS MOREIRA INVESTIGADOR DE POLICIA 2 ATIVO BELO HORIZONTE - COMARCA; CAO-CRIM EXEC PENAL TRIB JURI AUD MILITAR 1.280,94 0,00 0,00 0,00 0,00 0,00 1.280,94 0,00 0,00 0,00 0,00 1.280,94 685,50 0,00 30/06/2014
930 364200 SANDRA CARLA MAIA MEDEIROS ESTAGIARIO ATIVO NOVA LIMA; NOVA LIMA-04 PJ 545,00 0,00 0,00 0,00 0,00 0,00 545,00 0,00 0,00 0,00 0,00 545,00 111,30 0,00 30/06/2014
931 88 SANDRA DA NATIVIDADE ESCRIVAO DE POLICIA ATIVO BELO HORIZONTE - COMARCA; CAO-CRIM EXEC PENAL TRIB JURI AUD MILITAR 1.572,24 0,00 0,00 0,00 0,00 0,00 1.572,24 0,00 0,00 0,00 0,00 1.572,24 685,50 0,00 30/06/2014
932 347900 SANDY DE OLIVEIRA RIBEIRO ESTAGIARIO ATIVO MONTES CLAROS; MONTES CLAROS-13 PJ 545,00 0,00 0,00 0,00 0,00 0,00 545,00 0,00 0,00 0,00 0,00 545,00 95,40 0,00 30/06/2014
933 391700 SANDY IARA ESTEVES BENTO ESTAGIARIO ATIVO DIVINOPOLIS; DIVINOPOLIS-12 PJ 545,00 0,00 0,00 0,00 0,00 0,00 545,00 0,00 0,00 0,00 0,00 545,00 111,30 0,00 30/06/2014
934 294300 SANNY JUSTINO QUEIROZ ESTAGIARIO ATIVO GUANHAES; GUANHAES-01 PJ 545,00 0,00 0,00 0,00 0,00 0,00 545,00 0,00 0,00 0,00 0,00 545,00 111,30 0,00 30/06/2014
935 373200 SANTIAGO PEREIRA OLIVEIRA ESTAGIARIO ATIVO UBERABA; UBERABA-15 PJ 545,00 0,00 0,00 0,00 0,00 0,00 545,00 0,00 0,00 0,00 0,00 545,00 111,30 0,00 30/06/2014
936 330500 SARA DE ANDRADE LEITE ESTAGIARIO ATIVO BAEPENDI; BAEPENDI - PJ ÚNICA 545,00 0,00 0,00 0,00 0,00 0,00 545,00 0,00 0,00 0,00 0,00 545,00 111,30 0,00 30/06/2014
937 415100 SARAH COSTA VIEIRA RIBEIRO ESTAGIARIO ATIVO GOVERNADOR VALADARES; COORD REG PJ DEF EDU DIR CRIANCA ADOL RIODOCE 545,00 0,00 0,00 0,00 0,00 0,00 545,00 0,00 0,00 0,00 0,00 545,00 106,00 0,00 30/06/2014
938 305800 SARAH PAIXAO ALMEIDA ESTAGIARIO ATIVO TEOFILO OTONI; TEOFILO OTONI-08 PJ 545,00 0,00 0,00 0,00 0,00 0,00 545,00 0,00 0,00 0,00 0,00 545,00 95,40 0,00 30/06/2014
939 54 SEBASTIAO FERNANDO DE FIGUEIREDO DELEGADO DE POLICIA 1 ATIVO BELO HORIZONTE - COMARCA; CENTRO SEGURANCA E INTELIGENCIA INSTITUCIONAL 3.842,95 0,00 0,00 0,00 0,00 0,00 3.842,95 0,00 261,70 0,00 261,70 3.581,25 685,50 0,00 30/06/2014
940 8 SERGIO JOSE FELIX MACIEL 1O. SARGENTO ATIVO BELO HORIZONTE - COMARCA; GAECO - SECRETARIA 1.918,66 0,00 0,00 0,00 0,00 0,00 1.918,66 0,00 9,82 0,00 9,82 1.908,84 685,50 0,00 30/06/2014
941 305900 SERGIO LUIZ BRANGIONI DA CUNHA ESTAGIARIO ATIVO PONTE NOVA; PONTE NOVA-03 PJ 545,00 0,00 0,00 0,00 0,00 0,00 545,00 0,00 0,00 0,00 0,00 545,00 111,30 0,00 30/06/2014
942 408200 SHEINA LIMA DE ALMEIDA ESTAGIARIO ATIVO BELO HORIZONTE; DIRETORIA DE RELACOES PUBLICAS E CERIMONIAL 817,50 0,00 0,00 0,00 0,00 0,00 817,50 0,00 0,00 0,00 0,00 817,50 111,30 0,00 30/06/2014
943 378300 SILVANA DE OLIVEIRA GUIMARAES ESTAGIARIO ATIVO TIMOTEO; TIMOTEO-03 PJ 545,00 0,00 0,00 0,00 0,00 0,00 545,00 0,00 0,00 0,00 0,00 545,00 111,30 0,00 30/06/2014
944 397800 SILVANA FERNANDES CORDEIRO ESTAGIARIO ATIVO BELO HORIZONTE; CRIANÇAS E ADOLESCENTES-23 PJ-INFRACIONAL 817,50 0,00 0,00 0,00 0,00 0,00 817,50 0,00 0,00 0,00 0,00 817,50 111,30 0,00 30/06/2014
945 386700 SILVIA MAGALHAES ASSUNCAO ESTAGIARIO ATIVO BELO HORIZONTE; CENTRAL DE APOIO TECNICO-ASSESSORIA 817,50 0,00 0,00 0,00 0,00 0,00 817,50 0,00 0,00 0,00 0,00 817,50 111,30 0,00 30/06/2014
946 330700 SIMONE DE CARVALHO SILVA BERNARDES ESTAGIARIO ATIVO Informação não disponível 545,00 0,00 0,00 0,00 0,00 0,00 545,00 0,00 0,00 0,00 0,00 545,00 84,80 0,00 30/06/2014
947 417100 SIMONE MARQUES DE FREITAS ESTAGIARIO ATIVO SETE LAGOAS; SETE LAGOAS-07 PJ 545,00 0,00 0,00 0,00 0,00 0,00 545,00 0,00 0,00 0,00 0,00 545,00 111,30 0,00 30/06/2014
948 386900 SIRLEY DE JESUS SARAIVA CUNHA ESTAGIARIO ATIVO BELO HORIZONTE; 22ª PJ DEF DIREITO PESSOAS DEFICIENCIA IDOSOS 817,50 0,00 0,00 0,00 0,00 0,00 817,50 0,00 0,00 0,00 0,00 817,50 111,30 0,00 30/06/2014
949 391800 SOFIA DUARTE FIALHO ESTAGIARIO ATIVO VISCONDE DO RIO BRANCO; VISCONDE DO RIO BRANCO-01 PJ 490,50 0,00 0,00 0,00 0,00 0,00 490,50 0,00 0,00 0,00 0,00 490,50 68,90 0,00 30/06/2014
950 370300 SOFIA GONCALVES REPOLES ESTAGIARIO ATIVO BELO HORIZONTE; CAO-DIREITOS HUMANOS E APOIO COMUNITARIO 941,61 0,00 0,00 0,00 0,00 0,00 941,61 0,00 0,00 0,00 0,00 941,61 0,00 0,00 30/06/2014
951 402600 STENIO SANTOS ASSUNCAO ESTAGIARIO ATIVO MIRADOURO; MIRADOURO - PJ ÚNICA 545,00 0,00 0,00 0,00 0,00 0,00 545,00 0,00 0,00 0,00 0,00 545,00 111,30 0,00 30/06/2014
952 293300 STENIO TADEU CAMPOS FROIS ESTAGIARIO ATIVO BETIM; BETIM-12 PJ 490,50 0,00 0,00 0,00 0,00 0,00 490,50 0,00 0,00 0,00 0,00 490,50 90,10 0,00 30/06/2014
953 408300 STEPHANIE AQUINO GONCALVES ESTAGIARIO ATIVO Informação não disponível 545,00 0,00 0,00 0,00 0,00 0,00 545,00 0,00 0,00 0,00 0,00 545,00 111,30 0,00 30/06/2014
954 402700 STEPHANIE DE PAULA SANTOS ESTAGIARIO ATIVO DIAMANTINA; DIAMANTINA-03 PJ 545,00 0,00 0,00 0,00 0,00 0,00 545,00 0,00 0,00 0,00 0,00 545,00 106,00 0,00 30/06/2014
955 322800 STEPHANIE LARISDAY SOUZA LUZ ESTAGIARIO ATIVO UBERLANDIA; UBERLANDIA-10 PJ 545,00 0,00 0,00 0,00 0,00 0,00 545,00 0,00 0,00 0,00 0,00 545,00 111,30 0,00 30/06/2014
956 415200 STHEFFANIE PEREIRA DA SILVA ESTAGIARIO ATIVO MANHUACU; MANHUACU-02 PJ 545,00 0,00 0,00 0,00 0,00 0,00 545,00 0,00 0,00 0,00 0,00 545,00 111,30 0,00 30/06/2014
957 269200 SUELEM VIEIRA RAPOSO ESTAGIARIO ATIVO Informação não disponível 545,00 0,00 0,00 0,00 0,00 0,00 545,00 0,00 0,00 0,00 0,00 545,00 111,30 0,00 30/06/2014
958 309600 SUSIANE CARVALHO CASARINO BERNARDE ESTAGIARIO ATIVO CAMPO BELO; CAMPO BELO-01 PJ 545,00 0,00 0,00 0,00 0,00 0,00 545,00 0,00 0,00 0,00 0,00 545,00 53,00 0,00 30/06/2014
959 343200 TAHYUNNE FERREIRA HILARIO ESTAGIARIO ATIVO BELO HORIZONTE; GABINETE DOS PROCURADORES 545,00 0,00 0,00 0,00 0,00 0,00 545,00 0,00 0,00 0,00 0,00 545,00 111,30 0,00 30/06/2014
960 293400 TAIS FERNANDA FONSECA ESTAGIARIO ATIVO OLIVEIRA; OLIVEIRA-02 PJ 545,00 0,00 0,00 0,00 0,00 0,00 545,00 0,00 0,00 0,00 0,00 545,00 111,30 0,00 30/06/2014
961 369200 TALES DE ALMEIDA AMENO ESTAGIARIO ATIVO BELO HORIZONTE; JUIZO CRIMINAL-12 PJ 545,00 0,00 0,00 0,00 0,00 0,00 545,00 0,00 0,00 0,00 0,00 545,00 111,30 0,00 30/06/2014
962 387300 TALES FELIPE MILAGRES MOL ESTAGIARIO ATIVO BELO HORIZONTE; DIRETORIA DE SISTEMAS DE INFORMACAO 817,50 0,00 0,00 0,00 0,00 0,00 817,50 0,00 0,00 0,00 0,00 817,50 111,30 0,00 30/06/2014
963 408400 TAMARA JANE VIEIRA ESTAGIARIO ATIVO CONSELHEIRO LAFAIETE; CONSELHEIRO LAFAIETE-04 PJ 545,00 0,00 0,00 0,00 0,00 0,00 545,00 0,00 0,00 0,00 0,00 545,00 111,30 0,00 30/06/2014
964 317300 TAMARA LIRA RIBEIRO ESTAGIARIO ATIVO BELO HORIZONTE; JUIZADO ESPECIAL CÍVEL E CRIMINAL - 08ª PJ 545,00 0,00 0,00 0,00 0,00 0,00 545,00 0,00 0,00 0,00 0,00 545,00 111,30 0,00 30/06/2014
965 378400 TAMARA LUCIA DE OLIVEIRA ESTAGIARIO ATIVO PATOS DE MINAS; PATOS DE MINAS-04 PJ 545,00 0,00 0,00 0,00 0,00 0,00 545,00 0,00 0,00 0,00 0,00 545,00 111,30 0,00 30/06/2014
966 408500 TAMARA RAFAELA TEIXEIRA GONCALVES ESTAGIARIO ATIVO SETE LAGOAS; SETE LAGOAS-06 PJ 545,00 0,00 0,00 0,00 0,00 0,00 545,00 0,00 0,00 0,00 0,00 545,00 111,30 0,00 30/06/2014
967 402800 TAMILIS DE LIMA BERNARDO ESTAGIARIO ATIVO CORINTO; CORINTO - PJ ÚNICA 545,00 0,00 0,00 0,00 0,00 0,00 545,00 0,00 0,00 0,00 0,00 545,00 111,30 0,00 30/06/2014
968 317400 TAMYRA GEORGIA VIEIRA ESTAGIARIO ATIVO BELO HORIZONTE; JUIZO CRIMINAL-12 PJ 545,00 0,00 0,00 0,00 0,00 0,00 545,00 0,00 0,00 0,00 0,00 545,00 196,10 545,00 30/06/2014
969 408600 TAMYRIS SAMANTHA DE OLIVEIRA MIRANDA ESTAGIARIO ATIVO MATOZINHOS; MATOZINHOS-01 PJ 545,00 0,00 0,00 0,00 0,00 0,00 545,00 0,00 0,00 0,00 0,00 545,00 111,30 0,00 30/06/2014
970 397000 TATIANA COSTA DE OLIVEIRA ESTAGIARIO ATIVO UNAI; UNAI-01 PJ 545,00 0,00 0,00 0,00 0,00 0,00 545,00 0,00 0,00 0,00 0,00 545,00 106,00 0,00 30/06/2014
971 306100 TATIANA GOMES DE PINHO SILVA ESTAGIARIO ATIVO MATOZINHOS; MATOZINHOS-02 PJ 545,00 0,00 0,00 0,00 0,00 0,00 545,00 0,00 0,00 0,00 0,00 545,00 95,40 0,00 30/06/2014
972 348100 TATIANA TAVARES FONSECA ESTAGIARIO ATIVO BELO HORIZONTE; PROC. JUSTICA DIR. DIFUSOS E COLETIVOS 127,17 0,00 0,00 0,00 0,00 0,00 127,17 0,00 0,00 0,00 0,00 127,17 0,00 0,00 30/06/2014
973 310500 TATIANE ASSIS ROSA ESTAGIARIO ATIVO ITABIRA; ITABIRA-04 PJ 545,00 0,00 0,00 0,00 0,00 0,00 545,00 0,00 0,00 0,00 0,00 545,00 111,30 0,00 30/06/2014
974 280800 TATIANE GONTIJO CARVALHO ESTAGIARIO ATIVO DIVINOPOLIS; DIVINOPOLIS-01 PJ 545,00 0,00 0,00 0,00 0,00 0,00 545,00 0,00 0,00 0,00 0,00 545,00 111,30 0,00 30/06/2014
975 387400 TATIANE ISABELLE DE CARVALHO ESTAGIARIO ATIVO BELO HORIZONTE; SUPERINTENDENCIA DE COMUNICACAO INTEGRADA 436,00 0,00 0,00 0,00 0,00 0,00 436,00 0,00 0,00 0,00 0,00 436,00 0,00 0,00 30/06/2014
976 411700 TATIANE MATIAS FERREIRA ESTAGIARIO ATIVO SAO LOURENCO; SAO LOURENCO-01 PJ 545,00 0,00 0,00 0,00 0,00 0,00 545,00 0,00 0,00 0,00 0,00 545,00 111,30 0,00 30/06/2014
977 387500 TATIANE NONATO DE SOUSA ESTAGIARIO ATIVO BELO HORIZONTE; CAO-TS-TERCEIRO SETOR-APOIO TECNICO 817,50 0,00 0,00 0,00 0,00 0,00 817,50 0,00 0,00 0,00 0,00 817,50 111,30 0,00 30/06/2014
978 330900 TATIANE RIBEIRO DE PAULA ESTAGIARIO ATIVO BELO HORIZONTE; TRIBUNAL DO JURI-07 PJ 545,00 0,00 0,00 0,00 0,00 0,00 545,00 0,00 0,00 0,00 0,00 545,00 111,30 0,00 30/06/2014
979 373300 TEFFER STANCIOLI RIBEIRO FARIA ESTAGIARIO ATIVO Informação não disponível 545,00 0,00 0,00 0,00 0,00 0,00 545,00 0,00 0,00 0,00 0,00 545,00 111,30 0,00 30/06/2014
980 331000 THAIS ALDRED IASBIK ESTAGIARIO ATIVO UBA; UBA-01 PJ 545,00 0,00 0,00 0,00 0,00 0,00 545,00 0,00 0,00 0,00 0,00 545,00 111,30 0,00 30/06/2014
981 317500 THAIS CRISTIELLE GABRIEL SILVA ESTAGIARIO ATIVO TRES CORACOES; TRES CORACOES-04 PJ 545,00 0,00 0,00 0,00 0,00 0,00 545,00 0,00 0,00 0,00 0,00 545,00 111,30 0,00 30/06/2014
982 276000 THAIS CRISTINA MIRANDA ESTAGIARIO ATIVO BELO HORIZONTE; PATRIMONIO PUBLICO-17 PJ 545,00 0,00 0,00 0,00 0,00 0,00 545,00 0,00 0,00 0,00 0,00 545,00 111,30 0,00 30/06/2014
983 331100 THAIS CUNHA SOARES NASCIMENTO ESTAGIARIO ATIVO UBERLANDIA; UBERLANDIA-13 PJ 545,00 0,00 0,00 0,00 0,00 0,00 545,00 0,00 0,00 0,00 0,00 545,00 111,30 0,00 30/06/2014
984 360400 THAIS DE ASSIS PEREIRA ALVES ESTAGIARIO ATIVO JUIZ DE FORA; JUIZ DE FORA-19 PJ 545,00 0,00 0,00 0,00 0,00 0,00 545,00 0,00 0,00 0,00 0,00 545,00 106,00 0,00 30/06/2014
985 408700 THAIS FERNANDA ALBUQUERQUE LIMA ESTAGIARIO ATIVO BELO HORIZONTE; DIRETORIA DE RELACOES PUBLICAS E CERIMONIAL 817,50 0,00 0,00 0,00 0,00 0,00 817,50 0,00 0,00 0,00 0,00 817,50 111,30 0,00 30/06/2014
986 338100 THAIS LOT CALDEIRA DA CUNHA ESTAGIARIO ATIVO BELO HORIZONTE; JUIZO CRIMINAL-12 PJ 545,00 0,00 0,00 0,00 0,00 0,00 545,00 0,00 0,00 0,00 0,00 545,00 58,30 0,00 30/06/2014
987 300400 THAIS MARA MENDES VIEIRA ESTAGIARIO ATIVO CONSELHEIRO LAFAIETE; CONSELHEIRO LAFAIETE-08 PJ 545,00 0,00 0,00 0,00 0,00 0,00 545,00 0,00 0,00 0,00 0,00 545,00 15,90 0,00 30/06/2014
988 309700 THAIS NASCIMENTO RIBAS GARCIA ESTAGIARIO ATIVO UBERLANDIA; COORD REG PJS ORD ECON TRIB TRIA E NOROE-GAB 545,00 0,00 0,00 0,00 0,00 0,00 545,00 0,00 0,00 0,00 0,00 545,00 68,90 0,00 30/06/2014
989 392000 THAIS RAMALHO DA COSTA SANTOS ESTAGIARIO ATIVO GOVERNADOR VALADARES; GOVERNADOR VALADARES-03 PJ 545,00 0,00 0,00 0,00 0,00 0,00 545,00 0,00 0,00 0,00 0,00 545,00 106,00 0,00 30/06/2014
990 348300 THAIS TEIXEIRA DE SOUZA ESTAGIARIO ATIVO ALEM PARAIBA; ALEM PARAIBA-01 PJ 545,00 0,00 0,00 0,00 0,00 0,00 545,00 0,00 0,00 0,00 0,00 545,00 111,30 0,00 30/06/2014
991 392100 THAIS TEIXEIRA PORTO ESTAGIARIO ATIVO PATOS DE MINAS; PATOS DE MINAS-04 PJ 545,00 0,00 0,00 0,00 0,00 0,00 545,00 0,00 0,00 0,00 0,00 545,00 111,30 0,00 30/06/2014
992 402900 THAISA MARIA ROCHA LEMOS ESTAGIARIO ATIVO ITUIUTABA; ITUIUTABA-04 PJ 545,00 0,00 0,00 0,00 0,00 0,00 545,00 0,00 0,00 0,00 0,00 545,00 100,70 0,00 30/06/2014
993 269400 THALES BORGES MUNIZ ESTAGIARIO ATIVO JUIZ DE FORA; JUIZ DE FORA-11 PJ 545,00 0,00 0,00 0,00 0,00 0,00 545,00 0,00 0,00 0,00 0,00 545,00 106,00 0,00 30/06/2014
994 369300 THAMIRIS CAMPOS DA COSTA ESTAGIARIO ATIVO VICOSA; VICOSA-02 PJ 545,00 0,00 0,00 0,00 0,00 0,00 545,00 0,00 0,00 0,00 0,00 545,00 79,50 0,00 30/06/2014
995 378500 THAMIRIS FERREIRA ALMEIDA SILVA ESTAGIARIO ATIVO UBERABA; UBERABA-04 PJ 545,00 0,00 0,00 0,00 0,00 0,00 545,00 0,00 0,00 0,00 0,00 545,00 111,30 0,00 30/06/2014
996 354800 THAMYRES OLIVEIRA SILVA ESTAGIARIO ATIVO PRADOS; PRADOS - PJ ÚNICA 545,00 0,00 0,00 0,00 0,00 0,00 545,00 0,00 0,00 0,00 0,00 545,00 111,30 0,00 30/06/2014
997 423200 THAYANA RODRIGUES ESTAGIARIO ATIVO LAVRAS; LAVRAS-04 PJ 272,50 0,00 0,00 0,00 0,00 0,00 272,50 0,00 0,00 0,00 0,00 272,50 47,70 0,00 30/06/2014
998 62 THESSA BERTOLDI SOUZA SILVA ESCRIVAO DE POLICIA ATIVO BELO HORIZONTE - COMARCA; EXTINTA CAO-CRIMO-COMBATE AO CRIME ORGANIZADO 1.674,87 0,00 0,00 0,00 0,00 0,00 1.674,87 0,00 0,00 0,00 0,00 1.674,87 685,50 0,00 30/06/2014
999 423300 THIAGO DE AVILA PINTO COELHO FAGUNDES ESTAGIARIO ATIVO BELO HORIZONTE; PROCURADORIA DE JUSTIÇA DE HABEAS CORPUS 545,00 0,00 0,00 0,00 0,00 0,00 545,00 0,00 0,00 0,00 0,00 545,00 47,70 0,00 30/06/2014
1000 286400 THIAGO DE OLIVEIRA LACERDA ESTAGIARIO ATIVO CATAGUASES; CATAGUASES-02 PJ 545,00 0,00 0,00 0,00 0,00 0,00 545,00 0,00 0,00 0,00 0,00 545,00 95,40 0,00 30/06/2014
1001 280900 THIAGO FILIPE MARTINS BICALHO ESTAGIARIO ATIVO CONTAGEM; CONTAGEM-24 PJ 545,00 0,00 0,00 0,00 0,00 0,00 545,00 0,00 0,00 0,00 0,00 545,00 111,30 0,00 30/06/2014
1002 403000 THIAGO PEREIRA SOARES ESTAGIARIO ATIVO DIAMANTINA; DIAMANTINA-02 PJ 545,00 0,00 0,00 0,00 0,00 0,00 545,00 0,00 0,00 0,00 0,00 545,00 106,00 0,00 30/06/2014
1003 360700 THIAGO RAMALHO DE REZENDE ARANTES ESTAGIARIO ATIVO POCOS DE CALDAS; POCOS DE CALDAS-06 PJ 545,00 0,00 0,00 0,00 0,00 0,00 545,00 0,00 0,00 0,00 0,00 545,00 111,30 0,00 30/06/2014
1004 397100 THIAGO RIBEIRO LIMA ESTAGIARIO ATIVO ARCOS; ARCOS - 02ª PJ 545,00 0,00 0,00 0,00 0,00 0,00 545,00 0,00 0,00 0,00 0,00 545,00 111,30 0,00 30/06/2014
1005 354900 THOBIAS DE PAIVA CAMARGO ESTAGIARIO ATIVO JUIZ DE FORA; JUIZ DE FORA-18 PJ 545,00 0,00 0,00 0,00 0,00 0,00 545,00 0,00 0,00 0,00 0,00 545,00 106,00 0,00 30/06/2014
1006 411800 THOMAS HENRIQUE DE OLIVEIRA RESENDE ESTAGIARIO ATIVO BELO HORIZONTE; TRIBUNAL DO JURI-07 PJ 545,00 0,00 0,00 0,00 0,00 0,00 545,00 0,00 0,00 0,00 0,00 545,00 111,30 0,00 30/06/2014
1007 317600 THOMAZ SAORES DE SOUZ OLIVEIRA ESTAGIARIO ATIVO MONTES CLAROS; MONTES CLAROS-13 PJ 545,00 0,00 0,00 0,00 0,00 0,00 545,00 0,00 0,00 0,00 0,00 545,00 111,30 0,00 30/06/2014
1008 378600 THULIO HENRIQUE DA SILVA MACHADO ESTAGIARIO ATIVO DIVINOPOLIS; DIVINÓPOLIS - 07ª PJ 545,00 0,00 0,00 0,00 0,00 0,00 545,00 0,00 0,00 0,00 0,00 545,00 111,30 0,00 30/06/2014
1009 343400 TIAGO AUGUSTO DA SILVA ESTAGIARIO ATIVO ARAXA; ARAXA-04 PJ 545,00 0,00 0,00 0,00 0,00 0,00 545,00 0,00 0,00 0,00 0,00 545,00 111,30 0,00 30/06/2014
1010 423400 TIAGO DE SOUZA PAIVA ESTAGIARIO ATIVO ELOI MENDES; ELOI MENDES - PJ ÚNICA 272,50 0,00 0,00 0,00 0,00 0,00 272,50 0,00 0,00 0,00 0,00 272,50 47,70 0,00 30/06/2014
1011 293500 TONY LUCAS DE FREITAS ESTAGIARIO ATIVO Informação não disponível 545,00 0,00 0,00 0,00 0,00 0,00 545,00 0,00 0,00 0,00 0,00 545,00 37,10 0,00 30/06/2014
1012 281100 TUANNE CAROLINE FERREIRA RODRIGUES ESTAGIARIO ATIVO OURO BRANCO; OURO BRANCO - PJ ÚNICA 545,00 0,00 0,00 0,00 0,00 0,00 545,00 0,00 0,00 0,00 0,00 545,00 111,30 0,00 30/06/2014
1013 317700 TULIO ALVES DE SOUZA ESTAGIARIO ATIVO CAPINOPOLIS; CAPINOPOLIS - PJ ÚNICA 545,00 0,00 0,00 0,00 0,00 0,00 545,00 0,00 0,00 0,00 0,00 545,00 90,10 0,00 30/06/2014
1014 317800 TULIO DA MATA E CARVALHO ESTAGIARIO ATIVO BELO HORIZONTE; GABINETE DOS PROCURADORES 545,00 0,00 0,00 0,00 0,00 0,00 545,00 0,00 0,00 0,00 0,00 545,00 111,30 0,00 30/06/2014
1015 411900 TULIO MARCOS ANSELMO DA COSTA ESTAGIARIO ATIVO SACRAMENTO; SACRAMENTO-01 PJ 545,00 0,00 0,00 0,00 0,00 0,00 545,00 0,00 0,00 0,00 0,00 545,00 111,30 0,00 30/06/2014
1016 306400 TULIO TEODORO PICCIRILLO ESTAGIARIO ATIVO SAO SEBASTIAO DO PARAISO; SAO SEBASTIAO DO PARAISO-04 PJ 545,00 0,00 0,00 0,00 0,00 0,00 545,00 0,00 0,00 0,00 0,00 545,00 111,30 0,00 30/06/2014
1017 387800 VAIRSON CASSIO DOS SANTOS ESTAGIARIO ATIVO BELO HORIZONTE; CENTRO DE ESTUDOS E APERFEICOAMENTO FUNCIONAL 817,50 0,00 0,00 0,00 0,00 0,00 817,50 0,00 0,00 0,00 0,00 817,50 111,30 0,00 30/06/2014
1018 343600 VALQUIRIA APARECIDA SANTIAGO ESTAGIARIO ATIVO ITABIRA; ITABIRA-04 PJ 545,00 0,00 0,00 0,00 0,00 0,00 545,00 0,00 0,00 0,00 0,00 545,00 111,30 0,00 30/06/2014
1019 378900 VALTER ROCHA RUBIO FILHO ESTAGIARIO ATIVO UBERLANDIA; UBERLANDIA-01 PJ 545,00 0,00 0,00 0,00 0,00 0,00 545,00 0,00 0,00 0,00 0,00 545,00 111,30 0,00 30/06/2014
1020 293700 VANESSA DE MORAIS TORRES ESTAGIARIO ATIVO EXTREMA; EXTREMA - PJ ÚNICA 545,00 0,00 0,00 0,00 0,00 0,00 545,00 0,00 0,00 0,00 0,00 545,00 10,60 0,00 30/06/2014
1021 392300 VANESSA DE OLIVEIRA ESTAGIARIO ATIVO PASSOS; PASSOS-02 PJ 199,83 0,00 0,00 0,00 0,00 0,00 199,83 0,00 0,00 0,00 0,00 199,83 0,00 0,00 30/06/2014
1022 369500 VANESSA VIEIRA SILVA ESTAGIARIO ATIVO Informação não disponível 545,00 0,00 0,00 0,00 0,00 0,00 545,00 0,00 0,00 0,00 0,00 545,00 111,30 0,00 30/06/2014
1023 64 VANIA MARIA GONCALVES 1O. SARGENTO ATIVO 1.918,66 0,00 0,00 0,00 0,00 0,00 1.918,66 0,00 9,82 0,00 9,82 1.908,84 685,50 0,00 30/06/2014
1024 419900 VANIL VASCONCELOS COSTA ESTAGIARIO ATIVO MONTES CLAROS; COORD REG BACIA RIOS VERDE GRANDE E PARDO 545,00 0,00 0,00 0,00 0,00 0,00 545,00 0,00 0,00 0,00 0,00 545,00 111,30 0,00 30/06/2014
1025 423500 VERNICA CONCEIO MAGESTE ESTAGIARIO ATIVO PONTE NOVA; PONTE NOVA-04 PJ 272,50 0,00 0,00 0,00 0,00 0,00 272,50 0,00 0,00 0,00 0,00 272,50 47,70 0,00 30/06/2014
1026 355100 VICENTE AUGUSTO FONSECA DE SOUZA BARROS ESTAGIARIO ATIVO BELO HORIZONTE; JUIZO CRIMINAL-12 PJ 545,00 0,00 0,00 0,00 0,00 0,00 545,00 0,00 0,00 0,00 0,00 545,00 111,30 0,00 30/06/2014
1027 67 VICTOR GANDRA FRANCO INVESTIGADOR DE POLICIA 2 ATIVO BELO HORIZONTE - COMARCA; GAECO - SECRETARIA 1.477,90 0,00 0,00 0,00 0,00 0,00 1.477,90 0,00 0,00 0,00 0,00 1.477,90 685,50 0,00 30/06/2014
1028 338000 VICTOR MEDEIROS VOLPINI ESTAGIARIO ATIVO BELO HORIZONTE; 23ª PJ DEF DIREITOS CRIANÇAS E ADOLESCENTES 545,00 0,00 0,00 0,00 0,00 0,00 545,00 0,00 0,00 0,00 0,00 545,00 111,30 0,00 30/06/2014
1029 369600 VICTOR NOGUEIRA DE PAULA ESTAGIARIO ATIVO LIMA DUARTE; LIMA DUARTE - PJ ÚNICA 545,00 0,00 0,00 0,00 0,00 0,00 545,00 0,00 0,00 0,00 0,00 545,00 111,30 0,00 30/06/2014
1030 373400 VICTOR PAULO SANTOS RODRIGUES ESTAGIARIO ATIVO BELO HORIZONTE; JUIZO CRIMINAL-12 PJ 545,00 0,00 0,00 0,00 0,00 0,00 545,00 0,00 0,00 0,00 0,00 545,00 111,30 0,00 30/06/2014
1031 373500 VICTOR VALE CANTARINO ESTAGIARIO ATIVO JUIZ DE FORA; JUIZ DE FORA-07 PJ 545,00 0,00 0,00 0,00 0,00 0,00 545,00 0,00 0,00 0,00 0,00 545,00 106,00 0,00 30/06/2014
1032 331200 VINICIUS HENRIQUE BELEZIA ESTAGIARIO ATIVO BELO HORIZONTE; GABINETE DOS PROCURADORES 545,00 0,00 0,00 0,00 0,00 0,00 545,00 0,00 0,00 0,00 0,00 545,00 37,10 0,00 30/06/2014
1033 293800 VINICIUS MARTINS SOARES ESTAGIARIO ATIVO MONTES CLAROS; COORD REG PJ DEF EDUC DIR CRIANCA ADOL NORTE 545,00 0,00 0,00 0,00 0,00 0,00 545,00 0,00 0,00 0,00 0,00 545,00 100,70 0,00 30/06/2014
1034 323000 VIRGINIA ANDRADE MOREIRA ESTAGIARIO ATIVO BELO HORIZONTE; JUIZADO ESPECIAL CÍVEL E CRIMINAL - 08ª PJ 545,00 0,00 0,00 0,00 0,00 0,00 545,00 0,00 0,00 0,00 0,00 545,00 111,30 0,00 30/06/2014
1035 98 VITOR ABDALA DELEGADO DE POLICIA 1 ATIVO CONTAGEM - COMARCA; COORD REG DEF ORDEM ECONOMICA TRIB CONTAGEM 3.173,74 0,00 0,00 0,00 0,00 0,00 3.173,74 0,00 141,03 0,00 141,03 3.032,71 685,50 0,00 30/06/2014
1036 281300 VITOR MAGNO BORGES NUNES COUTO ESTAGIARIO ATIVO SAO JOAO DEL REI; SAO JOAO DEL REI-02 PJ 545,00 0,00 0,00 0,00 0,00 0,00 545,00 0,00 0,00 0,00 0,00 545,00 111,30 0,00 30/06/2014
1037 355300 VITORIA PEREIRA COSTA ESTAGIARIO ATIVO CONTAGEM; CONTAGEM-18 PJ 545,00 0,00 0,00 0,00 0,00 0,00 545,00 0,00 0,00 0,00 0,00 545,00 111,30 0,00 30/06/2014
1038 360500 VIVIAN GONCALVES DE SOUZA ESTAGIARIO ATIVO BELO HORIZONTE; 07ª PJ TRIBUNAL JÚRI-01º TRIB JURI-GAB 59 PJ 526,83 0,00 0,00 0,00 0,00 0,00 526,83 0,00 0,00 0,00 0,00 526,83 106,00 0,00 30/06/2014
1039 309900 VIVIANE APARECIDA DA CRUZ ESTAGIARIO ATIVO FERROS; FERROS - PJ ÚNICA 545,00 0,00 0,00 0,00 0,00 0,00 545,00 0,00 0,00 0,00 0,00 545,00 111,30 0,00 30/06/2014
1040 420000 VIVIANE DE PINHO AMARAL ESTAGIARIO ATIVO MONTES CLAROS; COORD REG BACIA RIOS VERDE GRANDE E PARDO 545,00 0,00 0,00 0,00 0,00 0,00 545,00 0,00 0,00 0,00 0,00 545,00 111,30 0,00 30/06/2014
1041 306500 WAGNER AUGUSTO DE ANDRADE ESTAGIARIO ATIVO ITAJUBA; ITAJUBA-03 PJ 545,00 0,00 0,00 0,00 0,00 0,00 545,00 0,00 0,00 0,00 0,00 545,00 111,30 0,00 30/06/2014
1042 306600 WALKIRIA GONCALVES DE OLIVEIRA ESTAGIARIO ATIVO ENTRE RIOS DE MINAS; ENTRE RIOS DE MINAS - PJ ÚNICA 545,00 0,00 0,00 0,00 0,00 0,00 545,00 0,00 0,00 0,00 0,00 545,00 111,30 0,00 30/06/2014
1043 369700 WALLACE PATRICK MENEZES DE AGUIAR ESTAGIARIO ATIVO Informação não disponível 545,00 0,00 0,00 0,00 0,00 0,00 545,00 0,00 0,00 0,00 0,00 545,00 100,70 0,00 30/06/2014
1044 355400 WANDER SOUZA BARRETO ESTAGIARIO ATIVO BETIM; BETIM-11 PJ 545,00 0,00 0,00 0,00 0,00 0,00 545,00 0,00 0,00 0,00 0,00 545,00 100,70 0,00 30/06/2014
1045 369800 WANESSA DE OLIVEIRA SOUZA LEITE ESTAGIARIO ATIVO BELO HORIZONTE; PROC. JUSTICA DIR. DIFUSOS E COLETIVOS 545,00 0,00 0,00 0,00 0,00 0,00 545,00 0,00 0,00 0,00 0,00 545,00 111,30 0,00 30/06/2014
1046 250800 WANESSA REZENDE VARGAS SANCHES ESTAGIARIO ATIVO NOVA LIMA; NOVA LIMA-01 PJ 545,00 0,00 0,00 0,00 0,00 0,00 545,00 0,00 0,00 0,00 0,00 545,00 111,30 0,00 30/06/2014
1047 25 WARLENSON GONCALVES DOS ANJOS 3O.SARGENTO ATIVO BELO HORIZONTE - COMARCA; COORD DE PLANEJAMENTO INSTITUCIONAL 1.477,90 0,00 0,00 0,00 0,00 0,00 1.477,90 0,00 0,00 0,00 0,00 1.477,90 685,50 0,00 30/06/2014
1048 378700 WARLEY SERGIO ARRUDA SANTOS ESTAGIARIO ATIVO BETIM; BETIM-07 PJ-DEFESA DO CIDADAO 545,00 0,00 0,00 0,00 0,00 0,00 545,00 0,00 0,00 0,00 0,00 545,00 100,70 0,00 30/06/2014
1049 397300 WARLLEY FRANCISCO RAMOS FRANCA ESTAGIARIO ATIVO TEOFILO OTONI; TEOFILO OTONI-02 PJ 545,00 0,00 0,00 0,00 0,00 0,00 545,00 0,00 0,00 0,00 0,00 545,00 106,00 0,00 30/06/2014
1050 15 WATSON JOSE COSTA CABO ATIVO BELO HORIZONTE - COMARCA; COORD DE PLANEJAMENTO INSTITUCIONAL 1.280,94 0,00 0,00 0,00 0,00 0,00 1.280,94 0,00 0,00 0,00 0,00 1.280,94 685,50 0,00 30/06/2014
1051 318000 WEBERSON DE OLIVEIRA PEREIRA ESTAGIARIO ATIVO UBERABA; UBERABA-13 PJ 545,00 0,00 0,00 0,00 0,00 0,00 545,00 0,00 0,00 0,00 0,00 545,00 111,30 0,00 30/06/2014
1052 294000 WELINGTON MACIEL ESTAGIARIO ATIVO CRUZILIA; CRUZILIA - PJ ÚNICA 545,00 0,00 0,00 0,00 0,00 0,00 545,00 0,00 0,00 0,00 0,00 545,00 307,40 1.090,00 30/06/2014
1053 403100 WENITON PAIVA SANTOS ESTAGIARIO ATIVO JUIZ DE FORA; JUIZ DE FORA-16 PJ 545,00 0,00 0,00 0,00 0,00 0,00 545,00 0,00 0,00 0,00 0,00 545,00 106,00 0,00 30/06/2014
1054 63 WEVERTON DUARTE ARAUJO AGENTE DE POLICIA ATIVO BELO HORIZONTE - COMARCA; COORD DE PLANEJAMENTO INSTITUCIONAL 1.918,66 0,00 0,00 0,00 0,00 0,00 1.918,66 0,00 9,82 0,00 9,82 1.908,84 685,50 0,00 30/06/2014
1055 103 WILER LOPES DA SILVEIRA INVESTIGADOR DE POLICIA 2 ATIVO BELO HORIZONTE - COMARCA; CAO-CRIM EXEC PENAL TRIB JURI AUD MILITAR 1.481,99 0,00 0,00 0,00 0,00 0,00 1.481,99 0,00 0,00 0,00 0,00 1.481,99 685,50 0,00 30/06/2014
1056 415300 WILHER JOSE DOS SANTOS ESTAGIARIO ATIVO MATIAS BARBOSA; MATIAS BARBOSA - PJ ÚNICA 327,00 0,00 0,00 0,00 0,00 0,00 327,00 0,00 0,00 0,00 0,00 327,00 58,30 0,00 30/06/2014
1057 417200 WILKER PEREIRA DA CRUZ ESTAGIARIO ATIVO BELO HORIZONTE; DIRETORIA DE IMPRENSA 817,50 0,00 0,00 0,00 0,00 0,00 817,50 0,00 0,00 0,00 0,00 817,50 111,30 0,00 30/06/2014
1058 80 WILLIAM ALENCAR DE ABREU INVESTIGADOR DE POLICIA 2 ATIVO BELO HORIZONTE - COMARCA; COORD DE PLANEJAMENTO INSTITUCIONAL 1.918,66 0,00 0,00 0,00 0,00 0,00 1.918,66 0,00 9,82 0,00 9,82 1.908,84 685,50 0,00 30/06/2014
1059 397400 WILLIAM BRAGA SALVIONE ESTAGIARIO ATIVO VICOSA; VICOSA-03 PJ 545,00 0,00 0,00 0,00 0,00 0,00 545,00 0,00 0,00 0,00 0,00 545,00 106,00 0,00 30/06/2014
1060 300700 WILLIAM SILVEIRA DA SILVA ESTAGIARIO ATIVO IBIRACI; IBIRACI - PJ ÚNICA 545,00 0,00 0,00 0,00 0,00 0,00 545,00 0,00 0,00 0,00 0,00 545,00 111,30 0,00 30/06/2014
1061 355600 WILLIAN ALVES CRISPIM ESTAGIARIO ATIVO GOVERNADOR VALADARES; GOVERNADOR VALADARES-14 PJ 545,00 0,00 0,00 0,00 0,00 0,00 545,00 0,00 0,00 0,00 0,00 545,00 106,00 0,00 30/06/2014
1062 109 WILLIAN MARCOS CABRAL DOS SANTOS 3O.SARGENTO ATIVO 1.477,91 0,00 0,00 0,00 0,00 0,00 1.477,91 0,00 0,00 0,00 0,00 1.477,91 685,50 0,00 30/06/2014
1063 108 WILSON GONCALVES LOPES FILHO CABO ATIVO BELO HORIZONTE - COMARCA; EXTINTA CAO-CRIMO-COMBATE AO CRIME ORGANIZADO 1.280,95 0,00 0,00 0,00 0,00 0,00 1.280,95 0,00 0,00 0,00 0,00 1.280,95 685,50 0,00 30/06/2014
1064 417300 YAGO RABELO DE ALMEIDA ESTAGIARIO ATIVO SETE LAGOAS; SETE LAGOAS-01 PJ 545,00 0,00 0,00 0,00 0,00 0,00 545,00 0,00 0,00 0,00 0,00 545,00 90,10 0,00 30/06/2014
1065 338300 YANARA GABRIELE SOUZA DA SILVA ESTAGIARIO ATIVO JUIZ DE FORA; JUIZ DE FORA-17 PJ 545,00 0,00 0,00 0,00 0,00 0,00 545,00 0,00 0,00 0,00 0,00 545,00 106,00 0,00 30/06/2014
1066 111 YOHANNA SCHETTINO DE SOUZA TECNICO POLICIA CIVIL ATIVO BELO HORIZONTE - COMARCA; CAO-CRIM EXEC PENAL TRIB JURI AUD MILITAR 413,23 0,00 0,00 0,00 0,00 0,00 413,23 0,00 0,00 0,00 0,00 413,23 685,50 0,00 30/06/2014
1067 355700 YURI ALEXANDRE DOS SANTOS ESTAGIARIO ATIVO BELO HORIZONTE; PJ AUXILIAR DA CAPITAL 545,00 0,00 0,00 0,00 0,00 0,00 545,00 0,00 0,00 0,00 0,00 545,00 100,70 0,00 30/06/2014
1068 415400 ZAYNE GIL BRITO DE SOUSA SOUTO ESTAGIARIO ATIVO RIBEIRAO DAS NEVES; RIBEIRAO DAS NEVES-08 PJ 545,00 0,00 0,00 0,00 0,00 0,00 545,00 0,00 0,00 0,00 0,00 545,00 111,30 0,00 30/06/2014
TOTAL 1068

Fonte: Sistema de Recursos Humanos - MPMG

Data da última atualização: 30/06/2014